[[{"header":{"parameterUnit":"m.s-1","parameterCategory":1,"la1":30.6,"la2":28.766,"lo1":-90.7593,"lo2":-88.6598,"dy":0.0162,"dx":0.0183,"nx":116,"ny":114,"refTime":"2023-06-05T00:00:00:Z","depth":0,"parameterNumber":2,"parameterNumberName":"U-component_of_WINDS"},"data":[0.0,0.0,0.0,0.0,0.0,0.0,0.0,0.0,0.0,0.0,0.0,0.0,0.0,0.0,0.0,0.0,0.0,0.0,0.0,0.0,0.0,0.0,0.0,0.0,0.0,0.0,0.0,0.0,0.0,0.0,0.0,0.0,0.0,0.0,0.0,0.0,0.0,0.0,0.0,0.0,0.0,0.0,0.0,0.0,0.0,0.0,0.0,0.0,0.0,0.0,0.0,0.0,0.0,0.0,0.0,0.0,0.0,0.0,0.0,0.0,0.0,0.0,0.0,0.0,0.0,0.0,0.0,0.0,0.0,0.0,0.0,0.0,0.0,0.0,0.0,0.0,0.0,0.0,0.0,0.0,0.0,0.0,0.0,0.0,0.0,0.0,0.0,0.0,0.0,0.0,0.0,0.0,0.0,0.0,0.0,0.0,0.0,0.0,0.0,0.0,0.0,0.0,0.0,0.0,0.0,0.0,0.0,0.0,0.0,0.0,0.0,0.0,0.0,0.0,0.0,0.0,0.0,0.0,0.0,0.0,0.0,0.0,0.0,0.0,0.0,0.0,0.0,0.0,0.0,0.0,0.0,0.0,0.0,0.0,0.0,0.0,0.0,0.0,0.0,0.0,0.0,0.0,0.0,0.0,0.0,0.0,0.0,0.0,0.0,0.0,0.0,0.0,0.0,0.0,0.0,0.0,0.0,0.0,0.0,0.0,0.0,0.0,0.0,0.0,0.0,0.0,0.0,0.0,0.0,0.0,0.0,0.0,0.0,0.0,0.0,0.0,0.0,0.0,0.0,0.0,0.0,0.0,0.0,0.0,0.0,0.0,0.0,0.0,0.0,0.0,0.0,0.0,0.0,0.0,0.0,0.0,0.0,0.0,0.0,0.0,0.0,0.0,0.0,0.0,0.0,0.0,0.0,0.0,0.0,0.0,0.0,0.0,0.0,0.0,0.0,0.0,0.0,0.0,0.0,0.0,0.0,0.0,0.0,0.0,0.0,0.0,0.0,0.0,0.0,0.0,0.0,0.0,0.0,0.0,0.0,0.0,0.0,0.0,0.0,0.0,0.0,0.0,0.0,0.0,0.0,0.0,0.0,0.0,0.0,0.0,0.0,0.0,0.0,0.0,0.0,0.0,0.0,0.0,0.0,0.0,0.0,0.0,0.0,0.0,0.0,0.0,0.0,0.0,0.0,0.0,0.0,0.0,0.0,0.0,0.0,0.0,0.0,0.0,0.0,0.0,0.0,0.0,0.0,0.0,0.0,0.0,0.0,0.0,0.0,0.0,0.0,0.0,0.0,0.0,0.0,0.0,0.0,0.0,0.0,0.0,0.0,0.0,0.0,0.0,0.0,0.0,0.0,0.0,0.0,0.0,0.0,0.0,0.0,0.0,0.0,0.0,0.0,0.0,0.0,0.0,0.0,0.0,0.0,0.0,0.0,0.0,0.0,0.0,0.0,0.0,0.0,0.0,0.0,0.0,0.0,0.0,0.0,0.0,0.0,0.0,0.0,0.0,0.0,0.0,0.0,0.0,0.0,0.0,0.0,0.0,0.0,0.0,0.0,0.0,0.0,0.0,0.0,0.0,0.0,0.0,0.0,0.0,0.0,0.0,0.0,0.0,0.0,0.0,0.0,0.0,0.0,0.0,0.0,0.0,0.0,0.0,0.0,0.0,0.0,0.0,0.0,0.0,0.0,0.0,0.0,0.0,0.0,0.0,0.0,0.0,0.0,0.0,0.0,0.0,0.0,0.0,0.0,0.0,0.0,0.0,0.0,0.0,0.0,0.0,0.0,0.0,0.0,0.0,0.0,0.0,0.0,0.0,0.0,0.0,0.0,0.0,0.0,0.0,0.0,0.0,0.0,0.0,0.0,0.0,0.0,0.0,0.0,0.0,0.0,0.0,0.0,0.0,0.0,0.0,0.0,0.0,0.0,0.0,0.0,0.0,0.0,0.0,0.0,0.0,0.0,0.0,0.0,0.0,0.0,0.0,0.0,0.0,0.0,0.0,0.0,0.0,0.0,0.0,0.0,0.0,0.0,0.0,0.0,0.0,0.0,0.0,0.0,0.0,0.0,0.0,0.0,0.0,0.0,0.0,0.0,0.0,0.0,0.0,0.0,0.0,0.0,0.0,0.0,0.0,0.0,0.0,0.0,0.0,0.0,0.0,0.0,0.0,0.0,0.0,0.0,0.0,0.0,0.0,0.0,0.0,0.0,0.0,0.0,0.0,0.0,0.0,0.0,0.0,0.0,0.0,0.0,0.0,0.0,0.0,0.0,0.0,0.0,0.0,0.0,0.0,0.0,0.0,0.0,0.0,0.0,0.0,0.0,0.0,0.0,0.0,0.0,0.0,0.0,0.0,0.0,0.0,0.0,0.0,0.0,0.0,0.0,0.0,0.0,0.0,0.0,0.0,0.0,0.0,0.0,0.0,0.0,0.0,0.0,0.0,0.0,0.0,0.0,0.0,0.0,0.0,0.0,0.0,0.0,0.0,0.0,0.0,0.0,0.0,0.0,0.0,0.0,0.0,0.0,0.0,0.0,0.0,0.0,0.0,0.0,0.0,0.0,0.0,0.0,0.0,0.0,0.0,0.0,0.0,0.0,0.0,0.0,0.0,0.0,0.0,0.0,0.0,0.0,0.0,0.0,0.0,0.0,0.0,0.0,0.0,0.0,0.0,0.0,0.0,0.0,0.0,0.0,0.0,0.0,0.0,0.0,0.0,0.0,0.0,0.0,0.0,0.0,0.0,0.0,0.0,0.0,0.0,0.0,0.0,0.0,0.0,0.0,0.0,0.0,0.0,0.0,0.0,0.0,0.0,0.0,0.0,0.0,0.0,0.0,0.0,0.0,0.0,0.0,0.0,0.0,0.0,0.0,0.0,0.0,0.0,0.0,0.0,0.0,0.0,0.0,0.0,0.0,0.0,0.0,0.0,0.0,0.0,0.0,0.0,0.0,0.0,0.0,0.0,0.0,0.0,0.0,0.0,0.0,0.0,0.0,0.0,0.0,0.0,0.0,0.0,0.0,0.0,0.0,0.0,0.0,0.0,0.0,0.0,0.0,0.0,0.0,0.0,0.0,0.0,0.0,0.0,0.0,0.0,0.0,0.0,0.0,0.0,0.0,0.0,0.0,0.0,0.0,0.0,0.0,0.0,0.0,0.0,0.0,0.0,0.0,0.0,0.0,0.0,0.0,0.0,0.0,0.0,0.0,0.0,0.0,0.0,0.0,0.0,0.0,0.0,0.0,0.0,0.0,0.0,0.0,0.0,0.0,0.0,0.0,0.0,0.0,0.0,0.0,0.0,0.0,0.0,0.0,0.0,0.0,0.0,0.0,0.0,0.0,0.0,0.0,0.0,0.0,0.0,0.0,0.0,0.0,0.0,0.0,0.0,0.0,0.0,0.0,0.0,0.0,0.0,0.0,0.0,0.0,0.0,0.0,0.0,0.0,0.0,0.0,0.0,0.0,0.0,0.0,0.0,0.0,0.0,0.0,0.0,0.0,0.0,0.0,0.0,0.0,0.0,0.0,0.0,0.0,0.0,0.0,0.0,0.0,0.0,0.0,0.0,0.0,0.0,0.0,0.0,0.0,0.0,0.0,0.0,0.0,0.0,0.0,0.0,0.0,0.0,0.0,0.0,0.0,0.0,0.0,0.0,0.0,0.0,0.0,0.0,0.0,0.0,0.0,0.0,0.0,0.0,0.0,0.0,0.0,0.0,0.0,0.0,0.0,0.0,0.0,0.0,0.0,0.0,0.0,0.0,0.0,0.0,0.0,0.0,0.0,0.0,0.0,0.0,0.0,0.0,0.0,0.0,0.0,0.0,0.0,0.0,0.0,0.0,0.0,0.0,0.0,0.0,0.0,0.0,0.0,0.0,0.0,0.0,0.0,0.0,0.0,0.0,0.0,0.0,0.0,0.0,0.0,0.0,0.0,0.0,0.0,0.0,0.0,0.0,0.0,0.0,0.0,0.0,0.0,0.0,0.0,0.0,0.0,0.0,0.0,0.0,0.0,0.0,0.0,0.0,0.0,0.0,0.0,0.0,0.0,0.0,0.0,0.0,0.0,0.0,0.0,0.0,0.0,0.0,0.0,0.0,0.0,0.0,0.0,0.0,0.0,0.0,0.0,0.0,0.0,0.0,0.0,0.0,0.0,0.0,0.0,0.0,0.0,0.0,0.0,0.0,0.0,0.0,0.0,0.0,0.0,0.0,0.0,0.0,0.0,0.0,0.0,0.0,0.0,0.0,0.0,0.0,0.0,0.0,0.0,0.0,0.0,0.0,0.0,0.0,0.0,0.0,0.0,0.0,0.0,0.0,0.0,0.0,0.0,0.0,0.0,0.0,0.0,0.0,0.0,0.0,0.0,0.0,0.0,0.0,0.0,0.0,0.0,0.0,0.0,0.0,0.0,0.0,0.0,0.0,0.0,0.0,0.0,0.0,0.0,0.0,0.0,0.0,0.0,0.0,0.0,0.0,0.0,0.0,0.0,0.0,0.0,0.0,0.0,0.0,0.0,0.0,0.0,0.0,0.0,0.0,0.0,0.0,0.0,0.0,0.0,0.0,0.0,0.0,0.0,0.0,0.0,0.0,0.0,0.0,0.0,0.0,0.0,0.0,0.0,0.0,0.0,0.0,0.0,0.0,0.0,0.0,0.0,0.0,0.0,0.0,0.0,0.0,0.0,0.0,0.0,0.0,0.0,0.0,0.0,0.0,0.0,0.0,0.0,0.0,0.0,0.0,0.0,0.0,0.0,0.0,0.0,0.0,0.0,0.0,0.0,0.0,0.0,0.0,0.0,0.0,0.0,0.0,0.0,0.0,0.0,0.0,0.0,0.0,0.0,0.0,0.0,0.0,0.0,0.0,0.0,0.0,0.0,0.0,0.0,0.0,0.0,0.0,0.0,0.0,0.0,0.0,0.0,0.0,0.0,0.0,0.0,0.0,0.0,0.0,0.0,0.0,0.0,0.0,0.0,0.0,0.0,0.0,0.0,0.0,0.0,0.0,0.0,0.0,0.0,0.0,0.0,0.0,0.0,0.0,0.0,0.0,0.0,0.0,0.0,0.0,0.0,0.0,0.0,0.0,0.0,0.0,0.0,0.0,0.0,0.0,0.0,0.0,0.0,0.0,0.0,0.0,0.0,0.0,0.0,0.0,0.0,0.0,0.0,0.0,0.0,0.0,0.0,0.0,0.0,0.0,0.0,0.0,0.0,0.0,0.0,0.0,0.0,0.0,0.0,0.0,0.0,0.0,0.0,0.0,0.0,0.0,0.0,0.0,0.0,0.0,0.0,0.0,0.0,0.0,0.0,0.0,0.0,0.0,0.0,0.0,0.0,0.0,0.0,0.0,0.0,0.0,0.0,0.0,0.0,0.0,0.0,0.0,0.0,0.0,0.0,0.0,0.0,0.0,0.0,0.0,0.0,0.0,0.0,0.0,0.0,0.0,0.0,0.0,0.0,0.0,0.0,0.0,0.0,0.0,0.0,0.0,0.0,0.0,0.0,0.0,0.0,0.0,0.0,0.0,0.0,0.0,0.0,0.0,0.0,0.0,0.0,0.0,0.0,0.0,0.0,0.0,0.0,0.0,0.0,0.0,0.0,0.0,0.0,0.0,0.0,0.0,0.0,0.0,0.0,0.0,0.0,0.0,0.0,0.0,0.0,0.0,0.0,0.0,0.0,0.0,0.0,0.0,0.0,0.0,0.0,0.0,0.0,0.0,0.0,0.0,0.0,0.0,0.0,0.0,0.0,0.0,0.0,0.0,0.0,0.0,0.0,0.0,0.0,0.0,0.0,0.0,0.0,0.0,0.0,0.0,0.0,0.0,0.0,0.0,0.0,0.0,0.0,0.0,0.0,0.0,0.0,0.0,0.0,0.0,0.0,0.0,0.0,0.0,0.0,0.0,0.0,0.0,0.0,0.0,0.0,0.0,0.0,0.0,0.0,0.0,0.0,0.0,0.0,0.0,0.0,0.0,0.0,0.0,0.0,0.0,0.0,0.0,0.0,0.0,0.0,0.0,0.0,0.0,0.0,0.0,0.0,0.0,0.0,0.0,0.0,0.0,0.0,0.0,0.0,0.0,0.0,0.0,-4.2191,-4.1855,0.0,0.0,0.0,0.0,0.0,0.0,0.0,0.0,0.0,0.0,0.0,0.0,0.0,0.0,0.0,0.0,0.0,0.0,0.0,0.0,0.0,0.0,0.0,0.0,0.0,0.0,0.0,0.0,0.0,0.0,0.0,0.0,0.0,0.0,0.0,0.0,0.0,-3.1706,-3.2626,-3.3221,-3.3518,-3.3848,-3.4153,-3.4476,0.0,0.0,0.0,0.0,0.0,0.0,0.0,0.0,0.0,0.0,0.0,0.0,0.0,0.0,0.0,0.0,0.0,0.0,0.0,0.0,0.0,0.0,0.0,0.0,0.0,0.0,0.0,0.0,0.0,0.0,0.0,0.0,0.0,0.0,0.0,0.0,0.0,0.0,0.0,0.0,0.0,0.0,0.0,0.0,0.0,0.0,0.0,0.0,0.0,0.0,0.0,0.0,0.0,0.0,0.0,0.0,0.0,0.0,0.0,0.0,0.0,0.0,0.0,0.0,0.0,0.0,0.0,0.0,0.0,0.0,-4.3038,-4.2536,0.0,0.0,0.0,0.0,0.0,0.0,0.0,0.0,0.0,0.0,0.0,0.0,0.0,0.0,0.0,0.0,0.0,0.0,0.0,0.0,0.0,0.0,0.0,-2.6235,-2.6633,-2.7434,-2.7683,-2.8131,0.0,0.0,0.0,0.0,0.0,0.0,-3.1006,-3.1616,-3.1919,-3.1866,-3.2954,-3.386,-3.4499,-3.4272,-3.4351,-3.4612,-3.4811,0.0,0.0,0.0,0.0,0.0,0.0,0.0,0.0,0.0,0.0,0.0,0.0,0.0,0.0,0.0,0.0,0.0,0.0,0.0,0.0,0.0,0.0,0.0,0.0,0.0,0.0,0.0,0.0,0.0,0.0,0.0,0.0,0.0,0.0,0.0,0.0,0.0,0.0,0.0,0.0,0.0,0.0,0.0,0.0,0.0,0.0,0.0,0.0,0.0,0.0,0.0,0.0,0.0,0.0,0.0,0.0,0.0,0.0,0.0,0.0,0.0,0.0,0.0,-4.4467,-4.4568,-4.4568,-4.4686,-4.4787,-4.4727,-4.3482,-4.294,-4.2884,-4.2112,0.0,0.0,0.0,0.0,0.0,0.0,0.0,0.0,0.0,0.0,0.0,0.0,0.0,0.0,0.0,0.0,0.0,0.0,0.0,0.0,0.0,-2.7261,-2.7868,-2.8598,-2.9185,-2.9608,-2.9881,0.0,0.0,0.0,0.0,0.0,-3.1085,-3.1752,-3.2222,-3.249,-3.3166,-3.3551,-3.3636,-3.3443,-3.3401,-3.347,-3.4325,-3.4874,-3.5138,0.0,0.0,0.0,0.0,0.0,0.0,0.0,0.0,0.0,0.0,0.0,0.0,0.0,0.0,0.0,0.0,0.0,0.0,0.0,0.0,0.0,0.0,0.0,0.0,0.0,0.0,0.0,0.0,0.0,0.0,0.0,0.0,0.0,0.0,0.0,0.0,0.0,0.0,0.0,0.0,0.0,-3.9519,-3.9631,0.0,0.0,0.0,0.0,0.0,0.0,0.0,0.0,0.0,0.0,0.0,0.0,0.0,-4.3384,-4.3384,-4.3384,-4.3384,-4.3384,-4.3973,-4.4365,-4.4542,-4.512,-4.547,-4.5577,-4.4675,0.0,-4.4305,-4.395,0.0,0.0,0.0,0.0,0.0,0.0,0.0,0.0,0.0,0.0,0.0,0.0,0.0,0.0,0.0,0.0,0.0,0.0,0.0,0.0,0.0,-2.7967,-2.836,-2.8703,-2.9162,-2.9482,-2.9601,-2.9846,0.0,0.0,0.0,-3.1391,-3.2,-3.2489,-3.3006,-3.343,-3.3383,-3.3447,-3.3586,-3.3415,-3.3181,-3.2954,-3.3638,-3.4086,-3.4297,-3.4148,0.0,0.0,0.0,0.0,0.0,0.0,0.0,0.0,0.0,0.0,0.0,0.0,0.0,0.0,0.0,0.0,0.0,0.0,0.0,0.0,0.0,0.0,0.0,0.0,0.0,0.0,0.0,0.0,0.0,0.0,0.0,0.0,0.0,0.0,0.0,0.0,0.0,0.0,0.0,-3.9377,-4.0022,-4.0968,-4.1296,-4.1582,0.0,0.0,0.0,0.0,0.0,0.0,0.0,0.0,0.0,-4.3781,-4.4079,-4.439,-4.4609,-4.4624,-4.4702,-4.4903,-4.5171,-4.5345,-4.5486,-4.577,-4.5945,-4.6011,-4.56,-4.5456,-4.5422,-4.4165,-4.3474,-4.3214,0.0,0.0,0.0,0.0,-4.1483,-4.144,0.0,0.0,0.0,0.0,0.0,0.0,0.0,0.0,0.0,0.0,0.0,0.0,-2.816,-2.8572,-2.8846,-2.8846,-2.9264,-2.9535,-2.9644,-2.9944,-3.033,-3.0831,-3.1312,-3.1983,-3.2837,-3.3162,-3.3508,-3.3859,-3.3506,-3.3407,-3.3558,-3.35,-3.3194,-3.2749,-3.3085,-3.328,-3.3397,-3.3449,-3.3389,-3.329,0.0,0.0,0.0,0.0,0.0,0.0,0.0,0.0,0.0,0.0,0.0,0.0,0.0,0.0,0.0,0.0,0.0,0.0,0.0,0.0,0.0,0.0,0.0,0.0,0.0,0.0,0.0,0.0,0.0,0.0,0.0,0.0,0.0,0.0,0.0,0.0,0.0,-4.0082,-4.0603,-4.2004,-4.2175,-4.2359,0.0,0.0,0.0,0.0,0.0,0.0,-4.305,-4.3831,-4.4256,-4.4256,-4.4864,-4.5322,-4.5611,-4.5611,-4.5739,-4.5993,-4.5993,-4.5993,-4.5993,-4.5993,-4.5993,-4.5993,-4.5993,-4.5993,-4.5888,-4.4305,-4.3607,-4.3593,-4.3223,-4.305,-4.3036,-4.2688,-4.2542,-4.2497,0.0,0.0,0.0,0.0,0.0,0.0,0.0,0.0,0.0,0.0,0.0,-2.7985,-2.8513,-2.9102,-2.9447,-2.9447,-3.0009,-3.0506,-3.0895,-3.0932,-3.1318,-3.2262,-3.2328,-3.2635,-3.3247,-3.3409,-3.3414,-3.3234,-3.3614,-3.3532,-3.3138,-3.3463,-3.3293,-3.2792,-3.2816,-3.288,-3.2995,-3.2684,-3.2898,-3.3325,-3.2855,0.0,0.0,0.0,0.0,0.0,0.0,0.0,0.0,0.0,0.0,0.0,0.0,0.0,0.0,0.0,0.0,0.0,0.0,0.0,0.0,0.0,0.0,0.0,0.0,0.0,0.0,0.0,0.0,0.0,0.0,0.0,0.0,0.0,0.0,0.0,0.0,0.0,0.0,-4.1767,-4.185,0.0,0.0,0.0,0.0,-4.1892,-4.2385,-4.2749,-4.2749,-4.3869,-4.4505,-4.4505,-4.5086,-4.5368,-4.5396,-4.5409,-4.5423,-4.5451,-4.5451,-4.5451,-4.5451,-4.5451,-4.5451,-4.5451,-4.5451,-4.5451,-4.5396,-4.4997,-4.4801,-4.4689,-4.3285,-4.2749,-4.2633,-4.2053,-4.1846,-4.1846,0.0,0.0,0.0,0.0,0.0,0.0,0.0,0.0,-2.6519,-2.7408,-2.7931,-2.8348,-2.8747,-2.9466,-2.9902,-2.9758,-3.0547,-3.1113,-3.1233,-3.1497,-3.1928,-3.2567,-3.258,-3.2857,-3.3435,-3.4204,-3.4266,-3.3584,-3.3756,-3.3633,-3.3155,-3.3007,-3.2591,-3.2075,-3.2268,-3.2204,-3.1912,-3.2236,-3.2394,-3.2411,-3.2322,-3.2133,0.0,0.0,0.0,0.0,0.0,0.0,0.0,0.0,0.0,0.0,0.0,0.0,0.0,0.0,0.0,0.0,0.0,0.0,0.0,0.0,0.0,0.0,0.0,0.0,0.0,0.0,0.0,0.0,0.0,0.0,0.0,0.0,0.0,0.0,0.0,0.0,0.0,-4.2052,-4.2273,0.0,-4.2937,-4.2979,-4.3097,-4.3511,-4.3746,-4.4035,-4.4422,-4.4849,-4.5084,-4.5084,-4.5291,-4.5481,-4.5729,-4.5729,-4.5833,-4.6127,-4.6127,-4.6127,-4.6127,-4.6127,-4.6127,-4.6076,-4.5856,-4.579,-4.575,-4.5051,-4.4929,-4.519,-4.465,-4.4436,-4.4359,-4.3813,-4.3585,-4.3536,0.0,0.0,0.0,0.0,0.0,0.0,0.0,0.0,-2.6663,-2.7678,-2.8028,-2.8398,-2.8898,-2.9626,-3.005,-2.9901,-3.0691,-3.1219,-3.1395,-3.1668,-3.2096,-3.2745,-3.2927,-3.32,-3.3576,-3.434,-3.4385,-3.3695,-3.3842,-3.3653,-3.3114,-3.2876,-3.2396,-3.1664,-3.1854,-3.1672,-3.1288,-3.1556,-3.1797,-3.195,-3.2022,-3.181,-3.1395,0.0,0.0,0.0,0.0,0.0,0.0,0.0,0.0,0.0,0.0,0.0,0.0,0.0,0.0,0.0,0.0,0.0,0.0,0.0,0.0,0.0,0.0,0.0,0.0,0.0,0.0,0.0,0.0,0.0,0.0,0.0,0.0,0.0,0.0,-4.0777,-4.1437,-4.2134,-4.2549,-4.2978,-4.336,-4.3579,-4.3816,-4.4239,-4.4266,-4.4443,-4.4838,-4.5043,-4.5152,-4.5152,-4.5343,-4.5591,-4.5779,-4.5793,-4.5944,-4.6206,-4.6206,-4.6206,-4.6206,-4.6206,-4.6206,-4.6192,-4.5967,-4.5861,-4.5834,-4.5235,-4.52,-4.5411,-4.5016,-4.4852,-4.4802,-4.4462,-4.431,-4.4259,0.0,0.0,0.0,0.0,0.0,0.0,0.0,-2.597,-2.6958,-2.7692,-2.7804,-2.8138,-2.9008,-2.9595,-2.9926,-2.9926,-3.0429,-3.0927,-3.1405,-3.1446,-3.189,-3.289,-3.3402,-3.3683,-3.3696,-3.377,-3.3733,-3.3536,-3.3829,-3.3648,-3.2911,-3.3151,-3.2656,-3.1618,-3.1578,-3.1424,-3.1146,-3.0672,-3.1031,-3.1933,-3.1946,-3.1762,-3.1463,0.0,0.0,0.0,0.0,0.0,0.0,0.0,0.0,0.0,0.0,0.0,0.0,0.0,0.0,0.0,0.0,0.0,0.0,0.0,0.0,0.0,0.0,0.0,0.0,0.0,0.0,0.0,0.0,0.0,0.0,0.0,0.0,0.0,-4.0927,-4.1191,-4.1431,-4.2039,-4.2651,-4.3024,-4.3024,-4.348,-4.3826,-4.3839,-4.3839,-4.3852,-4.3865,-4.4398,-4.4704,-4.4704,-4.5315,-4.5595,-4.5595,-4.5595,-4.5595,-4.5595,-4.5595,-4.5595,-4.5595,-4.5595,-4.5595,-4.5595,-4.5595,-4.5595,-4.5595,-4.5595,-4.5595,-4.5435,-4.4305,-4.3865,-4.3865,-4.3865,-4.3814,-4.3763,0.0,0.0,0.0,0.0,0.0,0.0,0.0,-2.5816,-2.6854,-2.7692,-2.7804,-2.8101,-2.88,-2.9724,-3.0202,-3.0077,-3.101,-3.1717,-3.1816,-3.2148,-3.2637,-3.3255,-3.3395,-3.3576,-3.3752,-3.4052,-3.4073,-3.3877,-3.4138,-3.3889,-3.3174,-3.2851,-3.2291,-3.1578,-3.1373,-3.1178,-3.0868,-3.0565,-3.0581,-3.0846,-3.088,-3.0869,-3.0812,0.0,0.0,0.0,0.0,0.0,0.0,0.0,0.0,0.0,0.0,0.0,0.0,0.0,0.0,0.0,0.0,0.0,0.0,0.0,0.0,0.0,0.0,0.0,0.0,0.0,0.0,0.0,0.0,0.0,0.0,0.0,-3.8798,-3.9539,-4.0003,-4.1154,-4.2008,-4.2152,-4.301,-4.3573,-4.3573,-4.3719,-4.3985,-4.4411,-4.4438,-4.4624,-4.5102,-4.5276,-4.5355,-4.5355,-4.5515,-4.5595,-4.5595,-4.5595,-4.5595,-4.5595,-4.5595,-4.5595,-4.5595,-4.5595,-4.5595,-4.5595,-4.5395,-4.5287,-4.5287,-4.5059,-4.4951,-4.4966,-4.509,-4.5129,-4.5076,-4.4864,-4.4545,-4.4116,0.0,0.0,0.0,0.0,0.0,0.0,0.0,-2.5749,-2.6784,-2.7569,-2.7681,-2.7938,-2.8615,-2.9419,-2.9885,-2.9802,-3.0863,-3.1554,-3.1673,-3.2253,-3.268,-3.2982,-3.2982,-3.3146,-3.355,-3.3748,-3.3873,-3.3994,-3.394,-3.3656,-3.3069,-3.2454,-3.1834,-3.123,-3.0961,-3.0661,-3.0297,-3.013,-2.9973,-2.9869,-2.9884,-2.9999,-3.0164,-3.045,-3.0563,-3.0596,-3.0521,-3.042,-3.0314,-3.002,0.0,0.0,0.0,0.0,0.0,0.0,0.0,0.0,0.0,0.0,0.0,0.0,0.0,0.0,0.0,0.0,0.0,0.0,0.0,0.0,0.0,0.0,0.0,0.0,-3.8831,-3.9563,-3.9803,-4.0965,-4.1892,-4.2138,-4.2932,-4.3428,-4.3428,-4.3717,-4.4005,-4.4332,-4.4465,-4.4717,-4.5046,-4.5167,-4.5221,-4.5221,-4.5221,-4.5221,-4.5221,-4.5221,-4.5221,-4.5221,-4.5221,-4.5221,-4.5221,-4.5221,-4.5221,-4.5221,-4.5059,-4.491,-4.4802,-4.4626,-4.4463,-4.4422,0.0,0.0,0.0,0.0,-4.4435,-4.4107,0.0,0.0,0.0,0.0,0.0,0.0,0.0,-2.5749,-2.6724,-2.7336,-2.7446,-2.7725,-2.8345,-2.8943,-2.9304,-2.9304,-3.0218,-3.0924,-3.1186,-3.1938,-3.2344,-3.24,-3.2356,-3.2582,-3.3183,-3.3158,-3.3396,-3.3935,-3.3496,-3.3119,-3.2695,-3.1936,-3.1322,-3.0786,-3.0505,-3.0078,-2.9606,-2.9501,-2.929,-2.9026,-2.8973,-2.9194,-2.9485,-2.9536,-2.9387,-2.9231,-2.9228,-2.9377,-2.9575,-2.9522,0.0,0.0,0.0,0.0,0.0,0.0,0.0,0.0,0.0,0.0,0.0,0.0,0.0,0.0,0.0,0.0,0.0,0.0,0.0,0.0,0.0,0.0,0.0,0.0,-3.8701,-3.9544,-4.009,-4.081,-4.1511,-4.2062,-4.2718,-4.3118,-4.3118,-4.3592,-4.3899,-4.3899,-4.4107,-4.4258,-4.4258,-4.4463,0.0,0.0,0.0,-4.4681,-4.4668,-4.4668,-4.4668,-4.4668,-4.4668,-4.4681,-4.4681,-4.4681,-4.4626,-4.4626,-4.4626,-4.4463,-4.4258,-4.4258,-4.4107,-4.3887,-4.4161,-4.4258,-4.4203,-4.3887,-4.3789,-4.3789,0.0,0.0,0.0,0.0,0.0,0.0,0.0,-2.5749,-2.6599,-2.6819,-2.725,-2.7579,-2.784,-2.8727,-2.9304,-2.9304,-2.9881,-3.0537,-3.1162,-3.1765,-3.2169,-3.24,-3.2025,-3.2252,-3.3172,-3.2816,-3.2911,-3.3429,-3.3335,-3.2919,-3.2128,-3.1772,-3.1322,-3.0776,-3.0308,-2.9879,-2.9554,-2.9099,-2.8727,-2.8451,-2.8228,-2.8436,-2.8876,-2.9096,-2.9046,-2.881,-2.8613,-2.8727,-2.8921,-2.8531,-2.8597,-2.8815,-2.877,-2.8687,0.0,0.0,0.0,0.0,0.0,0.0,0.0,0.0,0.0,0.0,0.0,0.0,0.0,0.0,0.0,0.0,0.0,0.0,0.0,-3.7336,-3.8591,-3.9742,-4.0363,-4.0928,-4.1621,-4.243,-4.3223,-4.3733,-4.3733,-4.3835,-4.3899,-4.3899,-4.3955,-4.401,-4.401,-4.4052,-4.4161,-4.4367,-4.4367,-4.4463,-4.4668,-4.4668,-4.4668,-4.4668,-4.4668,0.0,-4.4367,-4.4367,-4.4258,-4.4052,-4.4052,-4.4052,-4.401,-4.401,-4.3764,-4.3517,-4.3832,-4.401,-4.3887,-4.3376,-4.3141,-4.3098,0.0,0.0,0.0,0.0,0.0,0.0,0.0,-2.5511,-2.6224,-2.679,-2.6991,-2.7213,-2.74,-2.8068,-2.851,-2.851,-2.9232,-3.0067,-3.0979,-3.1293,-3.1571,-3.1837,-3.1617,-3.1929,-3.2852,-3.2347,-3.2478,-3.3281,-3.2857,-3.2342,-3.1772,-3.1373,-3.0972,-3.0557,-3.0036,-2.9606,-2.9343,-2.8887,-2.8461,-2.8077,-2.796,-2.7897,-2.7897,-2.8174,-2.8174,-2.8028,-2.7931,-2.8107,-2.8331,-2.8071,-2.8209,-2.8366,-2.8145,-2.8075,-2.7933,0.0,0.0,0.0,0.0,0.0,0.0,0.0,0.0,0.0,0.0,0.0,0.0,0.0,0.0,-3.5351,-3.5521,0.0,-3.7613,-3.7785,-3.9062,-4.0123,-4.0612,-4.1237,-4.1917,-4.2461,-4.2922,-4.3265,-4.3432,-4.3444,-4.3444,-4.3444,-4.3598,-4.364,-4.364,-4.3832,-4.3955,-4.4107,-4.4107,-4.4161,-4.4313,-4.4313,-4.4313,-4.4313,-4.4313,-4.4203,-4.4107,-4.4107,-4.4052,-4.3899,-4.3899,-4.3776,-4.3653,-4.3321,-4.3085,-4.2961,-4.2999,-4.3111,-4.3154,-4.2706,-4.2538,-4.2494,0.0,0.0,0.0,0.0,0.0,0.0,0.0,-2.5197,-2.5857,-2.6574,-2.6729,-2.6845,-2.7078,-2.7425,-2.7686,-2.7743,-2.8634,-2.9598,-3.0549,-3.0759,-3.0973,-3.114,-3.1214,-3.1577,-3.2277,-3.1771,-3.1945,-3.2834,-3.2152,-3.1629,-3.1385,-3.0929,-3.062,-3.0391,-2.9764,-2.9343,-2.9079,-2.8781,-2.8344,-2.7906,-2.7853,-2.7476,-2.7043,-2.7161,-2.7215,-2.7161,-2.7161,-2.7368,-2.7638,-2.7638,-2.7853,-2.8072,-2.767,-2.7554,-2.7476,-2.6988,-2.717,0.0,0.0,0.0,0.0,0.0,0.0,0.0,0.0,-3.2544,-3.3256,-3.3427,-3.4459,-3.537,-3.5688,-3.68,-3.7888,-3.828,-3.9419,-4.0379,-4.058,-4.1403,-4.2041,-4.23,-4.2356,-4.2525,-4.2818,-4.2862,-4.2918,-4.2918,-4.3184,-4.3338,-4.3338,-4.3598,-4.3721,-4.3776,-4.3776,-4.3832,-4.3899,-4.3899,-4.3899,-4.3899,-4.3899,-4.3899,-4.3776,-4.3776,-4.3776,-4.3721,-4.3666,-4.3487,-4.3172,-4.2638,-4.2413,-4.2356,-4.2041,-4.2029,-4.2243,-4.1984,-4.194,-4.1928,0.0,0.0,0.0,0.0,0.0,0.0,0.0,0.0,-2.5582,-2.5484,-2.6365,-2.689,-2.6759,-2.7213,-2.7653,-2.7926,-2.8494,-2.902,-2.9436,-3.035,-3.0817,-3.0604,-3.0847,-3.1197,-3.1495,-3.1019,-3.0916,-3.1277,-3.1114,-3.0885,-3.0594,-3.0512,-3.0443,-3.0339,-2.9554,-2.9132,-2.9079,-2.8558,-2.8184,-2.7853,-2.7584,-2.726,-2.6989,-2.6791,-2.6518,-2.6236,-2.6236,-2.6445,-2.6763,-2.6763,-2.7098,-2.7476,-2.7428,-2.741,-2.7334,-2.6926,-2.6845,-2.695,-2.7193,-2.8241,-2.9389,-2.9699,-3.0313,-3.0987,0.0,-3.2104,-3.2772,-3.3606,-3.4208,-3.5013,-3.6228,-3.6844,-3.7352,-3.8083,-3.9196,-3.9959,-4.0016,-4.0779,-4.1402,-4.1663,-4.196,-4.2155,-4.2211,-4.2425,-4.2581,-4.2581,-4.2862,-4.303,-4.303,-4.3085,-4.3197,-4.3449,-4.3462,-4.3585,-4.3899,-4.3899,-4.3899,-4.3899,-4.3899,-4.3764,-4.3462,-4.3462,-4.3351,-4.3085,-4.2806,-4.2638,-4.2581,-4.2256,-4.2155,-4.2098,-4.1528,-4.1299,-4.1357,-4.1299,-4.1299,-4.1242,0.0,0.0,0.0,0.0,0.0,0.0,0.0,0.0,0.0,-2.4978,-2.5601,-2.5983,-2.5901,-2.6573,-2.7226,-2.7653,-2.8203,-2.8636,-2.8984,-2.9697,-3.0176,-3.0304,-3.0452,-3.0633,-3.0927,-3.0553,-3.0519,-3.0782,-3.0433,-3.0137,-2.986,-2.969,-2.9482,-2.934,-2.8829,-2.8583,-2.8532,-2.8006,-2.7633,-2.7331,-2.685,-2.6545,-2.629,-2.5982,-2.5707,-2.5433,-2.5901,-2.6072,0.0,-2.6063,-2.6227,-2.6391,-2.6391,-2.6391,-2.6364,-2.6199,-2.6262,-2.6524,-2.7234,-2.7882,-2.8545,-2.9238,-2.9898,-3.0551,-3.0944,-3.1682,-3.2535,-3.3374,-3.3983,-3.4729,-3.5952,-3.6847,-3.7565,-3.8286,-3.9232,-3.9975,-4.0332,-4.0695,-4.1012,-4.1332,-4.1459,-4.17,-4.2054,-4.2211,-4.2256,-4.2256,-4.2525,-4.2694,-4.2694,-4.2918,-4.303,-4.3129,-4.3184,-4.3252,-4.3376,-4.3389,-4.3389,-4.3389,-4.3389,-4.3308,-4.3184,-4.3184,-4.303,-4.2694,-4.2581,-4.2413,-4.2256,-4.1972,-4.1745,-4.1528,-4.1069,-4.0769,-4.0641,-4.0641,-4.0641,-4.0583,0.0,0.0,0.0,0.0,0.0,0.0,0.0,0.0,0.0,0.0,-2.4928,-2.5228,-2.5365,-2.5995,-2.6644,-2.7323,-2.773,-2.8108,-2.8572,-2.9055,-2.9525,-2.9824,-2.9914,-3.0087,-3.0354,-3.0007,-2.9974,-3.0286,-2.978,-2.9406,-2.9221,-2.8992,-2.8807,-2.8568,-2.8328,-2.8187,-2.8187,-2.7713,-2.7358,-2.7053,-2.6593,-2.6233,-2.5994,-2.5631,-2.531,-2.5061,-2.5586,-2.5702,-2.5637,-2.5637,-2.5709,-2.5789,-2.5789,-2.5743,-2.5688,-2.5688,-2.5933,-2.6297,-2.7022,-2.7483,-2.7892,-2.8719,-2.9441,-3.0084,-3.0438,-3.1202,-3.2062,-3.2926,-3.3601,-3.4418,-3.5611,-3.6659,-3.7593,-3.835,-3.9114,-3.9849,-4.0386,-4.0619,-4.0781,-4.1012,-4.1127,-4.1357,-4.1814,-4.1928,-4.1972,-4.1972,-4.2256,-4.2356,-4.2356,-4.265,-4.2818,-4.2862,-4.2862,-4.2918,-4.2974,-4.2974,-4.2974,-4.2974,-4.2974,-4.2974,-4.2862,-4.2818,-4.265,-4.2356,-4.23,-4.2086,-4.1814,-4.1504,-4.116,-4.0884,-4.0549,-4.0258,-3.9931,-3.9873,-3.9873,-3.9931,0.0,0.0,0.0,0.0,0.0,0.0,0.0,0.0,0.0,0.0,0.0,0.0,0.0,-2.5624,-2.5999,-2.6946,-2.7022,-2.7335,-2.7991,-2.8521,-2.8867,-2.8946,-2.9235,-2.9539,-2.9802,-2.9104,-2.8992,-2.953,-2.9022,-2.8721,-2.8732,-2.8648,-2.8607,-2.8568,-2.8328,-2.8187,-2.8187,-2.7925,-2.7652,-2.7348,-2.7114,-2.6807,-2.6541,-2.5994,-2.557,-2.5249,-2.5006,-2.5172,-2.5514,-2.5514,-2.5757,-2.6072,-2.6072,-2.5907,-2.5688,-2.5688,-2.5963,-2.6273,-2.6347,-2.7118,-2.7993,-2.8312,-2.8948,-2.9589,-3.0246,-3.0665,-3.12,-3.2223,-3.296,-3.3882,-3.5399,-3.6259,-3.7077,-3.8127,-3.8871,-3.9437,-3.9802,-4.0328,-4.0723,-4.0723,-4.1012,-4.1184,-4.1242,-4.1447,-4.1606,-4.1606,-4.1915,-4.211,-4.211,-4.2098,-4.2268,-4.2525,-4.2525,-4.2694,-4.2974,-4.2974,-4.2974,-4.2974,-4.2974,-4.2806,-4.2525,-4.2268,-4.2098,-4.2098,-4.1789,-4.1504,-4.1184,-4.0838,-4.0537,-4.0176,-3.9908,-3.9614,-3.9297,-3.899,-3.9049,-3.9297,0.0,0.0,0.0,0.0,0.0,0.0,0.0,0.0,0.0,0.0,0.0,0.0,0.0,0.0,0.0,0.0,-2.6493,-2.6843,-2.7323,-2.8035,-2.8485,-2.8566,-2.8763,-2.8916,-2.9063,-2.8528,-2.8265,-2.831,-2.78,-2.7567,-2.7567,-2.7349,-2.7283,-2.7294,-2.7516,-2.7615,-2.7578,-2.7497,-2.7426,-2.727,-2.6635,-2.6241,-2.5935,-2.5607,-2.5158,-2.4748,0.0,-2.4721,-2.4818,-2.4818,-2.5085,-2.5415,-2.5189,-2.5248,-2.534,-2.5136,-2.5414,-2.5826,-2.6241,-2.6804,-2.7446,-2.8,-2.845,-2.8897,-2.939,-2.9677,-3.0252,-3.1564,-3.2008,-3.2762,-3.476,-3.565,-3.6459,-3.7539,-3.8395,-3.9119,-3.9426,-3.9849,-4.027,-4.0677,-4.0781,-4.0954,-4.1184,-4.1287,-4.1344,-4.1344,-4.1618,-4.1789,-4.1789,-4.1984,-4.2155,-4.2211,-4.2211,-4.2268,-4.2381,-4.2381,-4.2381,-4.2381,-4.2381,-4.2324,-4.2211,-4.2155,-4.1984,-4.1732,-4.1459,-4.1172,-4.0838,-4.0537,-4.0188,-3.9908,-3.9614,-3.9238,-3.893,-3.8645,-3.8477,-3.8418,0.0,0.0,0.0,0.0,0.0,0.0,0.0,0.0,0.0,0.0,0.0,0.0,0.0,0.0,0.0,0.0,0.0,-2.6436,-2.6756,-2.7446,-2.7874,-2.7975,-2.8159,-2.8328,-2.8395,-2.8089,-2.7925,-2.781,-2.7337,-2.7082,-2.7004,-2.6715,-2.6615,-2.6626,-2.6945,-2.7027,-2.7048,-2.7069,-2.6998,-2.6858,-2.6259,-2.5872,-2.5577,-2.5158,-2.4861,0.0,-2.4363,-2.4404,-2.4521,-2.4571,-2.4879,-2.5219,-2.4995,-2.5033,-2.52,-2.5031,-2.5283,-2.5709,-2.6252,-2.6708,-2.7183,-2.7709,-2.8002,-2.8241,-2.8558,-2.8966,-2.9552,-3.0613,-3.1177,-3.1998,-3.3589,-3.4617,-3.5544,-3.6675,-3.7531,-3.8301,-3.9026,-3.9426,-3.979,-4.0328,-4.0433,-4.0595,-4.0826,-4.0954,-4.1069,-4.1184,-4.1344,-4.1447,-4.1447,-4.1631,-4.1814,-4.1915,-4.1915,-4.1984,-4.211,-4.211,-4.211,-4.211,-4.1984,-4.1915,-4.1915,-4.1814,-4.1573,-4.1275,-4.1127,-4.0792,-4.0328,-4.0013,-3.9708,-3.9426,-3.9072,-3.8764,-3.8455,-3.8298,-3.795,-3.7588,0.0,0.0,0.0,0.0,0.0,0.0,0.0,0.0,0.0,0.0,0.0,0.0,0.0,0.0,0.0,0.0,0.0,0.0,-2.6343,-2.6744,-2.7027,-2.7175,-2.7507,-2.7675,-2.7723,-2.7752,-2.7816,-2.785,-2.7425,-2.7085,-2.6897,-2.6654,-2.6532,-2.6553,-2.6574,-2.6606,-2.6628,-2.666,-2.6515,-2.6235,-2.6041,-2.578,-2.5442,-2.4746,-2.4668,-2.4878,-2.4154,-2.4175,-2.4517,-2.4702,-2.5072,-2.5469,-2.5514,-2.5386,-2.5244,-2.5362,-2.5643,-2.602,-2.6388,-2.6773,-2.7185,-2.7401,-2.7461,-2.7581,-2.7891,-2.8498,-2.9025,-2.9461,-3.055,-3.1522,-3.2051,-3.3205,-3.4414,-3.5523,-3.6275,-3.7163,-3.8521,-3.9037,-3.9426,-3.9743,-4.0013,-4.0165,-4.0223,-4.0479,-4.0781,-4.1115,-4.1184,-4.1184,-4.1184,-4.1184,-4.1344,-4.1549,-4.1606,-4.1732,-4.2054,-4.2054,-4.2054,-4.2054,-4.1732,-4.1606,-4.1549,-4.1287,-4.1012,-4.0723,-4.0677,-4.0328,-3.9743,-3.9426,-3.906,-3.8752,-3.8488,-3.819,-3.7878,-3.7878,-3.7456,-3.6982,0.0,0.0,0.0,0.0,0.0,0.0,0.0,0.0,0.0,0.0,0.0,0.0,0.0,0.0,0.0,0.0,0.0,0.0,-2.5975,-2.6364,-2.6636,-2.6821,-2.7001,-2.6959,-2.6694,-2.6406,-2.6188,-2.6063,-2.573,-2.5558,-2.5488,-2.5448,-2.5606,-2.6033,-2.6376,-2.674,-2.7127,-2.7294,-2.7227,-2.7005,-2.6749,-2.6312,-2.578,-2.5361,-2.4953,-2.4526,-2.4298,-2.4152,-2.4098,-2.4279,-2.4636,-2.5136,-2.5513,-2.5426,-2.5244,-2.5362,-2.5643,-2.602,-2.6388,-2.6773,-2.7133,-2.7185,-2.7185,-2.7306,-2.7581,-2.7762,-2.8097,-2.8984,-2.9429,-3.0077,-3.1453,-3.2355,-3.3276,-3.4334,-3.5763,-3.6816,-3.7163,-3.8208,-3.9049,-3.9367,-3.9732,-3.9954,-4.0165,-4.0293,-4.0351,-4.0467,-4.0942,-4.1184,-4.1184,-4.1184,-4.1242,-4.1287,-4.1287,-4.1344,-4.1414,-4.1414,-4.1414,-4.1414,-4.1344,-4.1287,-4.1287,-4.0954,-4.0792,-4.0665,-4.0211,-3.979,-3.9426,-3.906,-3.8764,-3.8488,-3.813,-3.7818,-3.7506,-3.7275,-3.6911,-3.6545,0.0,0.0,0.0,0.0,0.0,0.0,0.0,0.0,0.0,0.0,0.0,0.0,0.0,0.0,0.0,0.0,0.0,0.0,0.0,-2.562,-2.592,-2.6193,-2.6382,-2.6371,-2.6227,-2.6048,-2.582,-2.5511,-2.5305,-2.5138,-2.501,-2.501,-2.5167,-2.5457,-2.5715,-2.5994,-2.6296,-2.6388,-2.6331,0.0,0.0,-2.5776,-2.5265,-2.5013,-2.4706,-2.4398,-2.3905,-2.372,-2.3784,-2.4275,-2.4738,-2.5229,-2.5711,-2.5679,-2.5453,-2.5787,-2.5878,-2.6054,-2.6602,-2.691,-2.7073,-2.7073,-2.7073,-2.7133,-2.7297,-2.7401,-2.7642,-2.825,-2.8677,-2.9287,-3.0215,-3.1201,-3.2163,-3.3207,-3.4431,-3.5575,-3.6588,-3.7347,-3.8208,-3.8967,-3.9238,-3.9485,-3.9767,-3.9954,-4.0013,-4.0013,-4.0479,-4.0769,-4.0769,-4.0769,-4.0769,-4.0769,-4.0769,-4.0769,-4.0769,-4.0769,-4.0769,-4.0769,-4.0769,-4.0769,-4.0757,-4.0595,-4.0433,-4.027,-3.979,-3.9367,-3.906,-3.8574,-3.8298,-3.813,-3.7637,-3.7335,-3.7143,-3.6789,-3.6484,-3.6167,0.0,0.0,0.0,0.0,0.0,0.0,0.0,0.0,0.0,0.0,0.0,0.0,0.0,0.0,0.0,0.0,0.0,0.0,0.0,0.0,-2.5075,-2.5477,-2.5614,-2.5737,-2.5877,-2.5988,-2.5884,-2.5547,-2.5355,-2.5152,-2.4897,-2.4897,-2.4931,-2.5026,-2.4987,-2.5032,-2.5127,-2.5088,-2.4971,-2.4769,-2.5,-2.4854,-2.4449,0.0,-2.426,-2.4301,-2.3412,-2.3271,-2.3627,-2.445,-2.5041,-2.5448,-2.5874,-2.5863,-2.5783,-2.6219,-2.6099,-2.6105,-2.6867,-2.7073,-2.7073,-2.7073,-2.7073,-2.7073,-2.7073,-2.7297,-2.7461,-2.7521,-2.825,-2.8856,-2.8984,-2.9971,-3.1142,-3.2153,-3.2919,-3.4058,-3.5983,-3.6507,-3.7151,-3.8357,-3.8648,-3.8871,-3.9131,-3.9496,-3.9684,-3.9684,-3.9943,-4.0118,-4.0223,-4.0223,-4.0223,-4.0223,-4.0223,-4.0223,-4.0223,-4.0223,-4.0223,-4.0223,-4.0223,-4.0223,-4.0223,-4.0176,-4.0013,-3.9684,-3.9367,-3.899,-3.8622,-3.8107,-3.7818,-3.7698,-3.7104,-3.6861,-3.6739,-3.6423,-3.6116,-3.586,0.0,0.0,0.0,0.0,0.0,0.0,0.0,0.0,0.0,0.0,-2.2777,-2.2897,0.0,0.0,0.0,0.0,0.0,0.0,0.0,0.0,0.0,-2.4946,-2.4719,-2.4649,-2.4748,-2.4694,-2.4684,-2.4721,-2.4684,-2.4538,-2.4342,-2.4342,-2.4622,-2.5162,-2.5012,-2.5253,-2.5831,-2.5665,-2.5356,-2.5044,-2.5083,-2.4854,-2.4458,-2.4033,0.0,0.0,-2.3662,-2.3532,-2.3618,-2.4249,-2.4887,-2.5402,-2.5281,-2.5485,-2.5728,-2.5941,-2.5934,-2.6105,-2.6867,-2.7073,-2.7073,-2.7073,-2.7073,-2.7073,-2.7073,-2.7133,-2.7246,-2.7461,-2.7831,-2.8319,-2.8925,-2.9795,-3.0645,-3.1113,-3.2433,-3.3547,-3.3937,-3.5564,-3.6794,-3.7059,-3.7922,-3.8488,-3.8548,-3.8834,-3.899,-3.899,-3.9297,-3.965,-4.0165,-4.0223,-4.0223,-4.0223,-4.0223,-4.0223,-4.0223,-4.0223,-4.0223,-4.0223,-4.0223,-4.0223,-4.0165,-3.9966,-3.9673,-3.9367,-3.9049,-3.8574,-3.8047,-3.7938,-3.7577,-3.7043,-3.6921,-3.6545,-3.6044,-3.5983,-3.5798,-3.549,0.0,0.0,0.0,0.0,0.0,0.0,0.0,-2.3741,-2.3371,-2.2267,-2.2215,-2.2388,-2.2623,-2.2841,-2.3152,0.0,0.0,0.0,0.0,0.0,0.0,-2.4576,-2.4126,-2.4051,-2.439,-2.4066,-2.3925,-2.3967,0.0,-2.3607,-2.3537,-2.3708,-2.3972,-2.4274,-2.4466,-2.4719,-2.5047,-2.4961,-2.4687,-2.4332,-2.4475,-2.4213,-2.3769,0.0,0.0,0.0,-2.3279,-2.3168,-2.3039,-2.3538,-2.4143,-2.4704,-2.5032,-2.526,-2.5509,-2.5756,-2.5895,-2.6004,-2.6619,-2.6919,-2.7073,-2.7073,-2.7073,-2.7021,-2.6816,-2.6773,-2.6773,-2.6685,-2.6929,-2.7411,-2.8088,-2.8821,-2.9657,-3.0519,-3.161,-3.2588,-3.3289,-3.4455,-3.5628,-3.6588,-3.7158,-3.7721,-3.8347,-3.8548,-3.8596,-3.8596,-3.8716,-3.9072,-3.9708,-3.9708,-3.9708,-3.9708,-3.9708,-3.9708,-3.9708,-3.9708,-3.9708,-3.9708,-3.9708,-3.9638,-3.945,-3.9356,-3.9131,-3.8786,-3.8466,-3.8167,-3.7878,-3.7517,-3.7165,-3.6861,-3.6545,-3.6167,-3.586,-3.5675,-3.5552,-3.5356,0.0,0.0,0.0,0.0,0.0,0.0,0.0,-2.3705,-2.3325,-2.2126,-2.1949,-2.2058,-2.2407,-2.2376,-2.2715,0.0,0.0,0.0,0.0,0.0,0.0,0.0,0.0,0.0,-2.4116,0.0,0.0,-2.3482,-2.3136,0.0,0.0,0.0,0.0,0.0,-2.3856,-2.4097,-2.42,-2.4152,-2.3897,0.0,0.0,-2.3443,-2.2977,0.0,0.0,0.0,0.0,-2.2732,-2.2542,-2.2919,-2.3393,-2.3953,-2.4509,-2.4858,-2.5148,-2.557,-2.5755,-2.59,-2.6268,-2.6593,-2.6833,-2.6833,-2.6833,-2.6747,-2.6439,-2.6371,-2.6285,-2.6003,-2.6157,-2.6591,-2.7248,-2.7957,-2.8811,-2.9957,-3.0733,-3.1676,-3.2892,-3.3491,-3.4381,-3.6037,-3.641,-3.6909,-3.7965,-3.813,-3.819,-3.832,-3.838,-3.8619,-3.9072,-3.9131,-3.9131,-3.9131,-3.9131,-3.9131,-3.9131,-3.9131,-3.9131,-3.9131,-3.9131,-3.8942,-3.8693,-3.8693,-3.8585,-3.8261,-3.7938,-3.7758,-3.7637,-3.7032,-3.6739,-3.6606,-3.6116,-3.586,-3.5737,-3.5418,-3.5294,-3.5232,0.0,0.0,0.0,0.0,0.0,0.0,0.0,-2.4064,-2.3748,-2.268,-2.2417,-2.2315,-2.2231,-2.2373,-2.2678,0.0,0.0,0.0,0.0,0.0,0.0,0.0,0.0,0.0,0.0,0.0,0.0,-2.3482,-2.3282,0.0,0.0,0.0,0.0,0.0,0.0,-2.3728,-2.42,-2.4007,0.0,0.0,0.0,0.0,0.0,0.0,0.0,0.0,0.0,-2.264,-2.2533,-2.2677,-2.3085,-2.3539,-2.335,-2.3981,-2.4818,-2.5324,-2.5451,-2.5506,-2.5883,-2.5961,-2.5987,-2.5987,-2.5987,-2.597,-2.5936,-2.5927,-2.5919,-2.5885,-2.6157,-2.6513,-2.6902,-2.7767,-2.8593,-2.9268,-3.0296,-3.115,-3.1838,-3.283,-3.3799,-3.4665,-3.5395,-3.6142,-3.6939,-3.7335,-3.7626,-3.7938,-3.8249,-3.844,-3.85,-3.85,-3.85,-3.85,-3.85,-3.85,-3.85,-3.85,-3.85,-3.85,-3.85,-3.844,-3.844,-3.844,-3.8249,-3.7938,-3.7566,-3.7264,-3.6982,-3.6606,-3.63,-3.5983,-3.5921,-3.5737,-3.5428,-3.5046,-3.4922,-3.4922,0.0,0.0,0.0,0.0,0.0,0.0,-2.4478,-2.4355,-2.3949,-2.2749,-2.2486,-2.237,-2.2324,-2.2182,-2.2243,-2.2617,0.0,0.0,0.0,0.0,0.0,0.0,0.0,0.0,0.0,0.0,-2.2511,-2.2555,-2.2394,0.0,0.0,0.0,0.0,0.0,0.0,-2.3345,-2.3549,-2.3543,0.0,0.0,0.0,0.0,0.0,0.0,0.0,0.0,0.0,0.0,-2.1986,-2.2131,-2.2339,-2.2677,-2.2972,-2.3582,-2.416,-2.4585,-2.5009,-2.5403,-2.5557,-2.5763,-2.5876,-2.5876,-2.5876,-2.5874,-2.5652,-2.56,-2.5532,-2.5309,-2.5314,-2.5657,-2.6394,-2.6846,-2.7555,-2.8799,-2.9719,-3.0499,-3.1159,-3.2112,-3.3025,-3.3772,-3.4536,-3.5367,-3.6075,-3.6556,-3.6839,-3.6972,-3.7093,-3.7214,-3.7214,-3.795,-3.838,-3.838,-3.838,-3.838,-3.838,-3.838,-3.838,-3.838,-3.838,-3.8309,-3.807,-3.7878,-3.7637,-3.7275,-3.6961,-3.6717,-3.6545,-3.6239,-3.6044,-3.586,-3.549,-3.5232,-3.5046,-3.4735,-3.461,-3.4548,0.0,0.0,0.0,0.0,0.0,-2.5723,-2.4676,-2.441,-2.3918,-2.2827,-2.2555,-2.2463,-2.2463,-2.2067,-2.1853,-2.2031,-2.2495,0.0,0.0,0.0,0.0,0.0,0.0,0.0,0.0,0.0,-2.2092,-2.1894,-2.1761,-2.158,0.0,0.0,-2.168,-2.1874,0.0,0.0,0.0,0.0,0.0,0.0,0.0,0.0,0.0,0.0,0.0,0.0,0.0,0.0,0.0,0.0,0.0,-2.2107,-2.274,-2.3203,-2.3597,-2.4093,-2.4701,-2.5206,-2.5206,-2.5403,-2.5551,-2.5551,-2.5551,-2.554,-2.5266,-2.5206,-2.5138,-2.4872,-2.4821,-2.5065,-2.5978,-2.6231,-2.6807,-2.8364,-2.9212,-2.9959,-3.0791,-3.1556,-3.2306,-3.3035,-3.3852,-3.4606,-3.5367,-3.6025,-3.6423,-3.6423,-3.6423,-3.6423,-3.6423,-3.7286,-3.7829,-3.7829,-3.7829,-3.7829,-3.7829,-3.7829,-3.7829,-3.7829,-3.7829,-3.7698,-3.7456,-3.7203,-3.6972,-3.6739,-3.6423,-3.6239,-3.6239,-3.5798,-3.5613,-3.5552,-3.4984,-3.4735,-3.4735,-3.436,-3.4235,-3.4173,0.0,0.0,0.0,0.0,0.0,0.0,-2.4714,-2.4202,-2.3673,-2.2975,-2.2729,-2.2615,-2.2615,-2.2114,-2.1688,-2.1423,-2.2254,0.0,0.0,0.0,0.0,0.0,0.0,0.0,0.0,0.0,-2.2092,-2.1894,-2.1761,-2.158,-2.1388,-2.1051,-2.1187,-2.1708,0.0,0.0,0.0,0.0,0.0,0.0,0.0,0.0,0.0,0.0,0.0,0.0,0.0,0.0,0.0,0.0,0.0,0.0,0.0,-2.286,-2.3263,-2.3962,-2.4513,-2.483,-2.483,-2.483,-2.483,-2.483,-2.483,-2.483,-2.483,-2.483,-2.483,-2.4821,-2.4821,-2.4987,-2.5578,-2.6054,-2.6727,-2.7994,-2.8841,-2.9651,-3.0723,-3.115,-3.161,-3.2401,-3.3141,-3.3949,-3.4714,-3.5781,-3.6423,-3.6423,-3.6423,-3.6423,-3.6423,-3.6423,-3.6423,-3.6423,-3.6423,-3.6423,-3.6423,-3.6423,-3.6423,-3.6423,-3.6423,-3.6423,-3.6423,-3.6423,-3.6423,-3.6361,-3.6044,-3.5921,-3.586,-3.517,-3.4922,-3.4859,-3.4548,-3.4423,-3.436,-3.4047,-3.3922,-3.3859,0.0,0.0,0.0,0.0,0.0,0.0,0.0,-2.4464,-2.3812,-2.311,-2.2872,-2.2712,-2.2615,-2.2208,-2.1793,-2.1423,-2.2254,0.0,0.0,0.0,0.0,0.0,0.0,0.0,0.0,0.0,-2.1906,-2.1761,-2.158,-2.1348,-2.1051,-2.0967,-2.0865,-2.084,-2.1449,-2.1577,0.0,0.0,0.0,0.0,0.0,0.0,-2.0899,0.0,0.0,0.0,0.0,0.0,0.0,0.0,0.0,0.0,0.0,0.0,0.0,-2.3033,-2.3761,-2.4424,-2.4744,-2.4821,-2.4821,-2.4821,-2.4821,-2.4821,-2.4821,-2.4821,-2.4821,-2.4821,-2.4821,-2.4979,-2.5578,-2.5785,-2.6357,-2.7711,-2.8274,-2.8945,-3.0052,-3.0675,-3.12,-3.163,-3.283,-3.3941,-3.4769,-3.5396,-3.5737,-3.5737,-3.5737,-3.5737,-3.5737,-3.5737,-3.5921,-3.6361,-3.6423,-3.6423,-3.6423,-3.6423,-3.6423,-3.6423,-3.6423,-3.6423,-3.6423,-3.6167,-3.6055,-3.6044,-3.5479,-3.5232,-3.517,-3.4735,-3.4548,-3.4548,-3.4173,-3.4047,-3.4047,-3.367,-3.3544,-3.3544,0.0,0.0,0.0,0.0,0.0,0.0,0.0,-2.4408,-2.3634,-2.3163,-2.2947,-2.2789,-2.2615,-2.2254,-2.1841,-2.1447,-2.2254,0.0,0.0,0.0,0.0,0.0,0.0,0.0,-2.2328,-2.2061,-2.1843,-2.1698,-2.1454,-2.1178,-2.0903,-2.0775,-2.065,-2.0567,-2.1083,-2.1211,0.0,0.0,0.0,0.0,0.0,0.0,-2.0479,0.0,0.0,0.0,0.0,0.0,0.0,0.0,0.0,0.0,0.0,0.0,0.0,0.0,-2.2978,-2.3663,-2.4398,-2.471,-2.4821,-2.4821,-2.4821,-2.4821,-2.4821,-2.4821,-2.4821,-2.4821,-2.4821,-2.4979,-2.5578,-2.5688,-2.6167,-2.7571,-2.8058,-2.8575,-2.9632,-3.0323,-3.0976,-3.1732,-3.2664,-3.3639,-3.4654,-3.4922,-3.5046,-3.5046,-3.5046,-3.5046,-3.5046,-3.5046,-3.5232,-3.5613,-3.586,-3.5983,-3.586,-3.586,-3.5798,-3.5675,-3.5675,-3.5675,-3.5613,-3.5418,-3.5356,-3.5294,-3.4922,-3.4735,0.0,-3.436,-3.4235,-3.4173,-3.3859,-3.3733,-3.367,-3.3355,-3.3228,-3.3165,0.0,0.0,0.0,0.0,0.0,0.0,0.0,-2.4146,-2.3275,-2.3149,-2.3008,-2.2836,-2.2646,-2.2278,-2.1864,-2.1471,0.0,0.0,0.0,0.0,0.0,0.0,0.0,0.0,-2.2185,-2.1999,-2.1812,-2.1667,-2.1328,-2.1094,-2.0871,-2.0529,-2.0523,-2.0782,-2.0912,-2.1009,0.0,0.0,0.0,0.0,-1.9457,-1.9774,0.0,0.0,0.0,0.0,0.0,0.0,0.0,0.0,0.0,0.0,0.0,0.0,0.0,0.0,0.0,0.0,0.0,-2.4424,-2.4731,-2.4812,-2.4821,-2.4821,-2.4821,-2.4821,0.0,-2.4821,-2.4821,-2.4979,-2.5578,-2.5688,-2.6167,-2.7571,-2.8002,-2.8451,-2.9387,-3.003,-3.0946,-3.2484,-3.2713,-3.3173,-3.428,-3.436,-3.4423,-3.4423,-3.4423,-3.4423,-3.4423,-3.4423,-3.4423,-3.4423,-3.4984,-3.517,-3.4859,-3.4859,-3.4735,-3.4423,-3.4423,-3.4423,-3.4423,-3.4423,-3.4423,-3.4423,-3.436,-3.436,-3.436,-3.3985,-3.3859,-3.3859,-3.3481,-3.3355,-3.3301,-3.2985,-3.2858,-3.2794,0.0,0.0,0.0,0.0,0.0,0.0,0.0,0.0,0.0,0.0,-2.3201,-2.3,-2.2859,-2.2518,-2.2137,0.0,0.0,0.0,0.0,0.0,0.0,0.0,0.0,0.0,-2.1968,-2.1812,-2.1655,-2.1463,-2.1126,-2.0903,-2.0733,-2.0345,-2.0248,-2.0431,-2.0505,-2.062,0.0,0.0,0.0,0.0,-1.9498,-1.9626,0.0,0.0,0.0,0.0,-2.0065,-1.9891,0.0,0.0,0.0,0.0,0.0,0.0,0.0,0.0,-2.1753,-2.2176,-2.2921,0.0,-2.4171,-2.4689,-2.4821,-2.4821,0.0,-2.4821,-2.4821,-2.4821,-2.4821,-2.4979,-2.5578,-2.5688,-2.6167,-2.7571,-2.7879,-2.8279,-2.9328,-3.003,-3.0887,-3.2182,-3.2532,-3.3051,-3.3895,-3.4235,-3.4423,-3.4423,-3.4423,-3.4423,-3.4423,-3.4423,-3.4423,-3.4423,-3.4548,-3.461,-3.4548,-3.4548,-3.4485,-3.4423,-3.4423,-3.4423,-3.4423,-3.4423,-3.4423,-3.436,-3.411,-3.4047,-3.3985,-3.367,-3.3544,-3.3481,-3.3175,-3.3048,-3.2985,-3.2613,-3.2549,-3.2485,0.0,0.0,0.0,0.0,0.0,0.0,0.0,0.0,0.0,0.0,0.0,0.0,0.0,0.0,0.0,0.0,0.0,0.0,0.0,0.0,0.0,0.0,0.0,-2.2235,-2.1894,-2.1761,-2.1561,-2.1305,-2.0967,-2.069,-2.0421,-2.015,-2.0134,-2.0345,-2.0471,-2.042,0.0,0.0,0.0,0.0,-1.924,0.0,0.0,0.0,0.0,0.0,-1.9754,-1.9617,0.0,-2.0222,-2.0265,-2.0191,0.0,0.0,0.0,0.0,-2.1266,-2.1635,-2.2401,-2.3133,-2.3787,-2.4441,-2.4599,-2.4654,-2.4765,-2.4821,-2.4821,-2.4821,-2.4821,-2.4979,-2.5578,-2.583,-2.6363,-2.7607,-2.793,-2.8385,-2.9356,-3.0083,-3.0871,-3.1847,-3.2405,-3.3013,-3.3611,-3.3859,-3.3922,-3.3922,-3.3922,-3.3922,-3.3922,-3.3922,-3.3922,-3.3922,-3.3922,-3.4047,-3.4173,-3.4173,-3.411,-3.3922,-3.3922,-3.3922,-3.3922,-3.3922,-3.3922,-3.3922,-3.3733,-3.367,-3.367,-3.3292,-3.3175,-3.3111,-3.2794,-3.2667,-3.2603,-3.2294,-3.2166,-3.2166,0.0,0.0,0.0,0.0,0.0,0.0,0.0,0.0,0.0,0.0,0.0,0.0,0.0,0.0,0.0,0.0,0.0,0.0,0.0,0.0,0.0,0.0,-2.2512,-2.2235,-2.1874,-2.1761,-2.1529,-2.1158,-2.0862,-2.0485,-2.0096,-1.9922,-2.0037,-2.0319,-2.0518,-2.0333,0.0,0.0,0.0,-1.8967,-1.8965,0.0,0.0,0.0,0.0,0.0,0.0,0.0,0.0,-1.9878,-1.9973,-1.9889,-2.0593,0.0,0.0,0.0,0.0,0.0,-2.198,-2.2668,-2.3338,-2.41,-2.4376,-2.4432,-2.471,-2.4765,-2.4821,-2.4821,-2.4821,-2.4996,-2.5648,-2.6089,-2.6632,-2.7726,-2.8214,-2.8716,-2.9394,-3.0103,-3.0898,-3.1632,-3.2354,-3.2959,-3.3379,-3.3418,-3.3418,-3.3418,-3.3418,-3.3418,-3.3418,-3.3418,-3.3418,-3.3418,-3.3418,-3.3544,-3.3796,-3.3796,-3.367,-3.3418,-3.3418,-3.3418,-3.3418,-3.3418,-3.3355,-3.3301,-3.3301,-3.3292,-3.3228,-3.2921,-3.2794,-3.2794,-3.2422,-3.2294,-3.2294,-3.1974,-3.1846,-3.1782,0.0,0.0,0.0,0.0,0.0,0.0,0.0,0.0,0.0,0.0,0.0,0.0,0.0,0.0,0.0,0.0,0.0,0.0,0.0,0.0,0.0,-2.3053,-2.2635,-2.2173,-2.173,-2.1698,-2.1466,-2.0935,-2.0786,-2.0485,-2.0107,-1.9791,-1.9732,-1.9897,-2.0404,-2.0333,-1.9863,0.0,-1.9073,-1.8794,-1.9213,0.0,0.0,0.0,0.0,0.0,0.0,0.0,0.0,-1.9397,-1.9437,-1.9364,-2.0025,0.0,0.0,0.0,0.0,0.0,-2.1454,-2.1789,-2.2204,-2.3636,-2.42,-2.4432,-2.4432,-2.4654,-2.4821,-2.4821,-2.4821,-2.5082,-2.6048,-2.6267,-2.6721,-2.812,-2.8636,-2.903,-2.9431,-3.0103,-3.0898,-3.1632,-3.2354,-3.2959,-3.3379,-3.3418,-3.3418,-3.3418,-3.3418,-3.3418,-3.3418,-3.3418,-3.3418,-3.3418,-3.3418,-3.3418,-3.3481,-3.3481,-3.3418,-3.3418,-3.3418,-3.3418,-3.3418,-3.3418,-3.3238,-3.2985,-3.2985,-3.2794,-3.2549,-3.2485,-3.2485,-3.2422,-3.2111,-3.1983,-3.1919,-3.158,-3.1515,-3.1442,0.0,0.0,0.0,0.0,0.0,0.0,0.0,0.0,0.0,0.0,0.0,0.0,0.0,0.0,0.0,0.0,0.0,0.0,0.0,0.0,-2.2862,-2.2883,-2.2747,-2.2389,-2.1812,-2.173,-2.1403,-2.0786,-2.0733,-2.0399,-1.9835,-1.9742,-1.9757,-1.9799,-2.0099,-2.0098,-1.9863,-1.924,-1.8851,-1.8722,0.0,0.0,0.0,0.0,0.0,0.0,0.0,0.0,0.0,0.0,-1.92,-1.9216,-1.9872,0.0,0.0,0.0,0.0,0.0,-2.1133,-2.148,-2.1861,-2.2959,-2.3585,-2.3985,-2.432,-2.4487,-2.4599,-2.4765,-2.4975,-2.5388,-2.6164,-2.6658,-2.7311,-2.8559,-2.8865,-2.9117,-2.9499,-3.02,-3.0926,-3.1651,-3.2445,-3.3024,-3.3335,-3.3418,-3.3418,-3.3418,-3.3418,-3.3418,-3.3418,-3.3418,-3.3418,-3.3418,-3.3238,-3.3111,-3.3111,-3.2921,-3.3048,-3.3418,-3.3238,-3.3111,-3.3111,-3.2921,-3.2794,-3.2603,-3.2603,-3.254,-3.2358,-3.2166,-3.2102,-3.2111,-3.1772,-3.1644,-3.158,-3.1258,-3.1129,-3.1129,0.0,0.0,0.0,0.0,0.0,0.0,0.0,0.0,0.0,0.0,0.0,0.0,0.0,0.0,0.0,0.0,0.0,0.0,0.0,-2.2693,-2.276,-2.2804,-2.2866,-2.2604,-2.1894,-2.1761,-2.1383,-2.0701,-2.0701,-2.0302,-1.9593,-1.9726,-1.9795,-1.9789,-1.987,-1.9902,-1.9863,-1.9051,-1.87,-1.8722,0.0,0.0,0.0,0.0,0.0,0.0,0.0,0.0,0.0,0.0,0.0,0.0,0.0,0.0,0.0,-1.9776,-1.988,-2.0076,-2.0833,-2.1271,-2.1697,-2.2422,-2.3022,-2.3649,-2.4097,-2.432,-2.4457,-2.4756,-2.5116,-2.5648,-2.6333,-2.7155,-2.8029,-2.887,-2.8984,-2.9122,-2.9516,-3.0235,-3.0953,-3.1596,-3.2337,-3.2858,-3.3111,-3.3238,-3.3292,-3.3292,-3.3364,-3.3355,-3.3301,-3.3292,-3.3238,-3.3175,-3.2921,-3.2794,-3.2794,-3.2549,-3.2676,-3.3165,-3.2921,-3.2794,-3.2794,-3.2549,-3.2358,-3.2294,-3.2294,-3.223,-3.2166,-3.191,-3.1782,-3.1782,-3.1515,-3.1377,-3.1249,-3.0879,-3.075,-3.075,0.0,0.0,0.0,0.0,0.0,0.0,0.0,0.0,0.0,0.0,0.0,0.0,0.0,0.0,0.0,0.0,0.0,0.0,0.0,-2.2913,-2.295,-2.3061,-2.2972,-2.2604,-2.1894,-2.1761,-2.1383,-2.0701,-2.0701,-2.0302,-1.9593,-1.9726,-1.9795,-1.9789,-1.987,-1.9902,-1.9863,-1.9051,-1.87,-1.8722,-1.8786,0.0,0.0,0.0,0.0,0.0,0.0,0.0,0.0,0.0,0.0,0.0,0.0,0.0,-1.8579,-1.8921,-1.9182,-1.9584,-2.0468,-2.0953,-2.1443,-2.2371,-2.3022,-2.3528,-2.3528,-2.3985,-2.4468,-2.4796,-2.5173,-2.5697,-2.6763,-2.7769,-2.854,-2.8916,-2.8984,-2.9122,-2.9516,-3.0235,-3.0829,-3.1292,-3.1966,-3.2422,-3.2485,-3.2731,-3.2921,-3.2921,-3.3238,-3.3228,-3.2921,-3.2921,-3.2794,-3.2485,-3.2422,-3.2422,-3.2422,-3.2422,-3.2422,-3.2485,-3.2422,-3.2422,-3.2422,-3.2422,-3.223,-3.1919,-3.1919,-3.1782,-3.1442,-3.1442,-3.1442,-3.1442,-3.1377,-3.1184,-3.0879,-3.0564,-3.0443,-3.0434,0.0,0.0,0.0,0.0,0.0,0.0,0.0,0.0,0.0,0.0,0.0,0.0,0.0,0.0,0.0,0.0,0.0,0.0,0.0,-2.3128,-2.3151,-2.2731,-2.3041,-2.2848,-2.2092,-2.1824,-2.1403,-2.0818,-2.0291,-1.9878,-1.9593,-1.9726,-1.9795,-1.9789,-1.987,-1.9902,-1.9863,-1.9051,-1.87,-1.8682,-1.86,-1.8508,0.0,0.0,0.0,0.0,0.0,0.0,0.0,0.0,-1.7802,-1.7739,-1.817,-1.8379,-1.8422,-1.8534,-1.8812,-1.923,-1.9917,-2.052,-2.1081,-2.1862,-2.2513,-2.3022,-2.3416,-2.3981,-2.4568,-2.4815,-2.5507,-2.6342,-2.7157,-2.7982,-2.8526,-2.8696,-2.8865,-2.9214,-2.9865,-3.0217,-3.0692,-3.1593,-3.1944,-3.2166,-3.2358,-3.2485,-3.2613,-3.2613,-3.274,-3.2731,-3.2613,-3.2613,-3.2549,-3.2422,-3.2166,-3.2111,-3.2111,-3.1901,-3.1772,-3.1772,-3.1974,-3.2111,-3.2111,-3.1901,-3.1708,-3.158,-3.158,-3.1515,-3.1377,-3.1377,-3.1249,-3.1064,-3.0879,-3.0685,-3.0564,-3.0157,-3.0018,-3.0026,0.0,0.0,0.0,0.0,0.0,0.0,0.0,0.0,0.0,0.0,0.0,0.0,0.0,0.0,0.0,0.0,0.0,0.0,-2.2737,-2.3276,-2.3319,-2.259,-2.31,-2.303,-2.2278,-2.1843,-2.136,-2.0839,-1.9998,-1.9605,-1.9593,-1.9726,-1.9795,-1.9789,-1.987,-1.9902,-1.9863,-1.9051,-1.87,-1.8682,-1.8465,-1.8413,0.0,0.0,0.0,0.0,0.0,0.0,0.0,0.0,-1.7351,-1.7412,-1.7775,-1.8022,-1.816,-1.8272,-1.8557,-1.9026,-1.9509,-2.0204,-2.0869,-2.138,-2.1945,-2.2487,-2.3222,-2.3886,-2.4515,-2.5035,-2.594,-2.6867,-2.7418,-2.7891,-2.8268,-2.8457,-2.8696,-2.9148,-3.0085,-3.0204,-3.056,-3.1625,-3.1717,-3.1846,-3.2029,-3.2166,-3.223,-3.223,-3.2358,-3.2358,-3.223,-3.223,-3.2166,-3.2093,-3.1846,-3.1717,-3.1717,-3.1506,-3.1377,-3.1377,-3.1525,-3.1653,-3.1717,-3.1515,-3.1377,-3.1377,-3.1377,-3.1313,-3.1249,-3.1249,-3.1064,-3.0685,-3.0361,-3.023,-3.0165,-2.9757,-2.9617,-2.9626,0.0,0.0,0.0,0.0,0.0,0.0,0.0,0.0,0.0,0.0,0.0,0.0,0.0,0.0,0.0,0.0,0.0,0.0,-2.2934,-2.3406,-2.3396,-2.2724,-2.3157,-2.309,-2.242,-2.1745,-2.1146,-2.0701,-1.9976,-1.9605,-1.9593,-1.9726,-1.9795,-1.9789,-1.987,-1.9902,-1.9863,-1.9051,-1.87,-1.8682,-1.8465,-1.8405,-1.8409,0.0,0.0,0.0,0.0,0.0,0.0,0.0,-1.7106,-1.7168,-1.7476,-1.7615,-1.7635,-1.7911,-1.8387,-1.8968,-1.9298,-2.0019,-2.078,-2.1089,-2.1439,-2.1922,-2.2898,-2.3562,-2.4341,-2.5415,-2.6395,-2.7185,-2.7461,-2.7521,-2.7702,-2.8397,-2.8517,-2.8917,-3.0023,-3.0195,-3.0497,-3.1277,-3.1377,-3.1377,-3.1368,-3.1708,-3.191,-3.191,-3.2157,-3.2221,-3.191,-3.191,-3.1717,-3.1377,-3.1377,-3.1377,-3.1377,-3.1377,-3.1377,-3.1377,-3.1064,-3.1064,-3.1377,-3.1377,-3.1377,-3.1377,-3.1377,-3.1193,-3.087,-3.087,-3.0685,-3.0369,-2.9952,-2.9813,-2.9748,-2.9438,-2.9307,-2.9242,0.0,0.0,0.0,0.0,0.0,0.0,0.0,0.0,0.0,0.0,0.0,0.0,0.0,0.0,0.0,0.0,0.0,0.0,-2.2934,-2.3406,-2.3396,-2.2724,-2.3157,-2.3042,-2.2278,-2.1221,-2.0625,-2.0475,-1.9878,-1.9605,-1.9593,-1.9726,-1.9795,-1.9789,-1.987,-1.9902,-1.9863,-1.9051,-1.87,-1.8664,-1.8396,-1.8311,-1.8376,0.0,0.0,0.0,0.0,0.0,0.0,0.0,0.0,0.0,-1.661,-1.6689,-1.6743,-1.6996,-1.7534,-1.8094,-1.8624,-1.9249,-1.9947,-2.0673,-2.1081,-2.158,-2.2598,-2.3493,-2.4515,-2.6019,-2.6564,-2.6822,-2.7185,-2.7349,-2.7581,-2.7762,-2.802,-2.8447,-2.9324,-2.9694,-3.0128,-3.0901,-3.1203,-3.1267,-3.0992,-3.1092,-3.0981,-3.0705,-3.0812,-3.0932,-3.1146,-3.1101,-3.1221,-3.1368,-3.1377,-3.1313,-3.1064,-3.1064,-3.0935,-3.0685,-3.0629,-3.0685,-3.1064,-3.0815,-3.0685,-3.0685,-3.0685,-3.0629,-3.0499,-3.0213,-3.0083,-2.9952,-2.9569,-2.9307,-2.9053,-2.8996,-2.8799,-2.8593,0.0,0.0,0.0,0.0,0.0,0.0,0.0,0.0,0.0,0.0,-2.4712,0.0,0.0,0.0,0.0,0.0,0.0,0.0,0.0,-2.3336,-2.3317,-2.2524,-2.3,-2.2732,-2.158,-2.0711,-2.0172,-1.9944,-1.9648,-1.944,-1.9395,-1.9656,-1.9713,-1.9571,-1.9793,-1.9863,-1.9754,-1.9091,-1.8772,-1.8696,-1.8451,-1.8397,-1.8368,0.0,0.0,0.0,0.0,0.0,0.0,0.0,0.0,0.0,-1.6227,-1.6311,-1.6374,-1.6594,-1.7041,-1.7546,-1.8004,-1.8684,-1.9376,-2.0014,-2.0558,-2.1307,-2.2423,-2.3613,-2.4836,-2.6001,-2.6327,-2.651,-2.6822,-2.7056,-2.7228,-2.7461,-2.7642,-2.8092,-2.8787,-2.9108,-2.9466,-3.0058,-3.0384,-3.0429,-3.0194,-3.0176,-3.0076,-2.984,-2.9822,-2.9922,-3.0166,-3.032,-3.0511,-3.0746,-3.0918,-3.0879,-3.0685,-3.0685,-3.0629,-3.0378,-3.023,-3.0287,-3.0473,-3.0434,-3.0378,-3.0369,-3.023,-3.0165,-3.0157,-2.9757,-2.9495,-2.9373,-2.9185,-2.893,-2.8601,-2.8601,-2.8469,-2.8263,0.0,0.0,0.0,0.0,0.0,0.0,0.0,0.0,0.0,0.0,-2.4835,-2.4389,0.0,0.0,0.0,0.0,0.0,0.0,0.0,-2.3195,-2.3149,-2.2291,-2.2669,-2.2194,-2.0603,-2.0237,-1.9781,-1.9285,-1.9285,-1.9229,-1.9158,-1.9535,-1.9588,-1.9282,-1.9697,-1.9754,-1.9557,-1.9161,-1.8891,-1.8687,-1.8599,-1.8507,-1.8403,-1.8306,0.0,0.0,0.0,0.0,0.0,0.0,0.0,0.0,-1.6138,-1.6221,-1.6232,-1.6504,-1.6842,-1.7188,-1.7506,-1.8222,-1.8945,-1.9214,-2.0023,-2.1126,-2.2372,-2.387,-2.5111,-2.548,-2.5839,-2.6136,-2.651,-2.6571,-2.6744,-2.734,-2.7401,-2.7643,-2.8429,-2.8508,-2.8729,-2.9101,-2.9172,-2.9181,-2.9146,-2.9146,-2.9128,-2.9093,-2.9093,-2.9101,-2.9137,-2.9509,-2.9731,-2.983,-3.0165,-3.0378,-3.0369,-3.0369,-3.0304,-3.0313,-2.9952,-2.9748,-2.9748,-3.01,-3.0313,-3.0304,-2.9887,-2.9748,-2.9691,-2.9373,-2.9053,-2.8741,-2.8741,-2.8535,-2.8263,-2.8263,-2.8196,-2.813,0.0,0.0,0.0,0.0,0.0,0.0,0.0,0.0,0.0,0.0,0.0,0.0,0.0,0.0,0.0,0.0,0.0,0.0,0.0,0.0,-2.2924,-2.2596,-2.1916,-2.1198,-2.0464,-1.9813,-1.9353,-1.9142,-1.9142,-1.9228,-1.9428,-1.9356,-1.949,-1.9757,-1.9675,-1.9636,-1.9557,-1.9161,-1.8891,-1.866,-1.8498,-1.8429,-1.8378,-1.8208,-1.8145,0.0,0.0,0.0,0.0,0.0,0.0,0.0,-1.5594,-1.5526,-1.5393,-1.5661,-1.6088,-1.6624,-1.7116,-1.7577,-1.8136,-1.9052,-2.0399,-2.1622,-2.2178,-2.3133,-2.417,-2.505,-2.548,-2.5786,-2.6136,-2.6197,-2.6319,-2.6753,-2.6805,-2.7021,-2.7635,-2.8036,-2.8325,-2.8711,-2.9004,-2.9075,-2.8747,-2.872,-2.8596,-2.8295,-2.8268,-2.8401,-2.8702,-2.9101,-2.9456,-2.9821,-3.0165,-3.023,-2.9952,-2.9952,-2.9831,-2.9513,-2.9438,-2.9438,-2.9438,-2.9513,-2.9513,-2.9504,-2.9438,-2.925,-2.8996,-2.893,-2.8733,-2.8403,-2.8403,-2.8188,-2.7849,-2.7849,-2.7658,-2.74,0.0,0.0,0.0,0.0,0.0,0.0,0.0,0.0,0.0,0.0,0.0,0.0,0.0,0.0,0.0,0.0,0.0,0.0,0.0,0.0,-2.2652,-2.2102,-2.1131,-2.0399,-1.9889,-1.9243,-1.8821,-1.8573,-1.8395,-1.8556,-1.9074,-1.9082,-1.9216,-1.9459,-1.945,-1.939,-1.928,-1.9011,-1.8732,-1.8571,-1.8442,-1.8485,-1.8559,-1.8335,-1.8252,-1.8218,-1.7667,0.0,0.0,0.0,0.0,0.0,0.0,0.0,-1.5161,-1.5421,-1.5791,-1.6196,-1.6661,-1.7092,-1.7722,-1.8981,-2.004,-2.1012,-2.1759,-2.2588,-2.3417,-2.4201,-2.4795,-2.5296,-2.5778,-2.5839,-2.5961,-2.6327,-2.6388,-2.6501,-2.6796,-2.7036,-2.7216,-2.7391,-2.7571,-2.7614,-2.7408,-2.7521,-2.7566,-2.7366,-2.7487,-2.7635,-2.7887,-2.8201,-2.856,-2.8761,-2.9337,-2.9513,-2.931,-2.9352,-2.925,-2.9053,-2.8922,-2.8689,-2.8521,-2.8903,-2.8988,-2.8782,-2.8589,-2.8557,-2.8527,-2.8335,-2.8163,-2.799,-2.799,-2.7791,-2.7451,-2.7451,-2.7259,-2.6934,0.0,0.0,0.0,0.0,0.0,0.0,0.0,0.0,0.0,0.0,0.0,0.0,0.0,0.0,0.0,0.0,0.0,0.0,0.0,0.0,0.0,-2.127,-2.042,-1.9704,-1.9166,-1.8633,-1.8216,-1.7906,-1.7476,-1.7653,-1.8466,-1.8686,-1.8864,-1.9007,-1.9125,-1.9112,-1.8922,-1.8772,-1.8571,-1.8402,-1.8472,-1.8595,-1.8792,-1.8582,-1.8523,-1.8496,-1.7947,-1.734,-1.6676,-1.6359,0.0,0.0,0.0,0.0,-1.5149,-1.5366,-1.5597,-1.5898,-1.6211,-1.679,-1.7554,-1.8757,-1.9462,-2.0098,-2.1114,-2.2004,-2.2772,-2.3346,-2.4008,-2.4672,-2.5296,-2.5426,-2.5541,-2.5961,-2.6014,-2.6014,-2.6067,-2.6075,-2.6075,-2.6075,-2.6075,-2.6075,-2.6075,-2.6319,-2.651,-2.651,-2.6761,-2.6952,-2.6952,-2.7231,-2.7418,-2.7418,-2.8116,-2.8554,-2.8554,-2.8528,-2.8548,-2.8548,-2.8212,-2.7916,-2.7554,-2.8137,-2.8352,-2.8064,-2.7751,-2.7792,-2.7991,-2.7743,-2.7548,-2.7561,-2.7618,-2.7392,-2.7134,-2.7134,-2.6867,-2.6599,0.0,0.0,0.0,0.0,0.0,0.0,0.0,0.0,0.0,0.0,-2.3605,-2.3704,0.0,0.0,0.0,0.0,0.0,0.0,0.0,0.0,0.0,-2.0549,-1.9792,-1.9166,-1.861,-1.807,-1.7706,-1.7486,-1.6959,-1.7133,-1.7907,-1.7924,-1.8314,-1.9,-1.8873,-1.878,-1.8732,-1.87,-1.8571,-1.8428,-1.8728,-1.8835,-1.8825,-1.8872,-1.8839,-1.8689,-1.8226,-1.766,-1.7145,-1.6676,-1.6015,0.0,0.0,0.0,-1.5113,-1.5149,-1.5361,-1.5642,-1.6157,-1.6925,-1.7678,-1.806,-1.8998,-1.9866,-2.0025,-2.1183,-2.2346,-2.275,-2.3533,-2.4293,-2.4672,-2.4734,-2.4919,-2.5541,-2.5672,-2.5786,-2.6075,-2.6075,-2.6075,-2.6075,-2.6075,-2.6075,-2.6075,-2.6136,-2.6197,-2.6197,-2.6197,-2.6258,-2.6258,-2.6545,-2.6744,-2.6744,-2.7167,-2.7391,-2.7391,-2.7441,-2.7394,-2.7394,-2.7394,-2.7177,-2.6864,-2.6913,-2.713,-2.733,-2.728,-2.7153,-2.6962,-2.7158,-2.7092,-2.6837,-2.7148,-2.7067,-2.6792,-2.6792,-2.6532,-2.6205,0.0,0.0,0.0,0.0,0.0,0.0,0.0,0.0,0.0,0.0,0.0,-2.2825,0.0,0.0,0.0,0.0,0.0,0.0,0.0,0.0,0.0,-1.9715,-1.9088,-1.8486,-1.791,-1.7476,-1.7132,-1.695,-1.6412,-1.6534,-1.7287,-1.7061,-1.763,-1.8812,-1.8612,-1.8531,-1.8523,-1.8371,-1.8403,-1.8521,-1.8694,-1.8956,-1.9294,-1.9093,-1.9023,-1.8958,-1.8319,-1.7753,-1.7232,-1.677,-1.6157,-1.554,-1.5226,0.0,0.0,0.0,-1.5172,-1.5341,-1.568,-1.6345,-1.6986,-1.7374,-1.8175,-1.8952,-1.9648,-2.0353,-2.1074,-2.1719,-2.2355,-2.3048,-2.4101,-2.4293,-2.4417,-2.4734,-2.4734,-2.4857,-2.5218,-2.528,-2.5341,-2.5533,-2.5533,-2.5533,-2.5533,-2.5717,-2.5847,-2.5847,-2.6014,-2.6075,-2.6075,-2.6224,-2.6315,-2.6315,-2.6678,-2.6868,-2.6868,-2.6884,-2.6863,-2.6663,-2.6663,-2.6431,-2.6056,-2.6056,-2.6287,-2.6655,-2.6398,-2.6358,-2.64,-2.6104,-2.619,-2.6349,-2.6316,-2.6303,-2.6331,-2.6331,-2.6138,-2.5801,0.0,0.0,0.0,0.0,0.0,0.0,0.0,0.0,0.0,0.0,0.0,0.0,0.0,0.0,0.0,0.0,0.0,0.0,0.0,0.0,0.0,-1.8798,-1.8303,-1.775,-1.7132,-1.683,-1.6586,-1.6324,-1.5859,-1.6037,-1.6729,-1.6433,-1.7058,-1.8371,-1.8282,-1.8233,-1.8193,-1.8072,-1.8213,-1.8596,-1.8691,-1.9144,-1.9664,-1.9312,-1.9196,-1.9196,-1.8458,-1.79,-1.7419,-1.6958,-1.6393,-1.5825,-1.541,-1.5219,0.0,0.0,0.0,-1.5135,-1.5324,-1.5716,-1.6222,-1.6837,-1.7359,-1.8052,-1.9089,-1.9509,-1.9913,-2.0674,-2.1198,-2.1879,-2.3145,-2.3617,-2.3885,-2.4092,-2.4108,-2.417,-2.4417,-2.4487,-2.4548,-2.4795,-2.4857,-2.4857,-2.4857,-2.5173,-2.5357,-2.5357,-2.5656,-2.5831,-2.5831,-2.5831,-2.5831,-2.5831,-2.6093,-2.624,-2.624,-2.6258,-2.6135,-2.5818,-2.5818,-2.562,-2.525,-2.525,-2.5384,-2.5668,-2.5423,-2.5518,-2.5739,-2.5194,-2.5293,-2.5693,-2.5623,-2.572,-2.5889,-2.5906,-2.5734,-2.5464,0.0,0.0,0.0,0.0,0.0,0.0,0.0,0.0,0.0,0.0,0.0,0.0,-2.0955,-2.1103,-2.1187,-2.1187,-2.1083,0.0,0.0,0.0,0.0,-1.7808,-1.7545,0.0,-1.6377,-1.6202,-1.5956,-1.5568,-1.5346,-1.562,-1.6319,-1.6319,-1.6698,-1.7473,-1.7668,-1.774,-1.774,-1.791,-1.8213,-1.8622,-1.9033,-1.9384,-1.9698,-1.9604,-1.9571,-1.9496,-1.8759,-1.8288,-1.7994,-1.7426,-1.6763,-1.6143,-1.5872,-1.5448,-1.5097,0.0,0.0,0.0,-1.5324,-1.5418,-1.566,-1.6498,-1.6926,-1.7298,-1.7929,-1.8775,-1.9496,-1.982,-2.04,-2.0974,-2.1296,-2.2319,-2.336,-2.3993,-2.4108,-2.4108,-2.4108,-2.4108,-2.4108,-2.417,-2.417,-2.417,-2.417,-2.4487,-2.4672,-2.4672,-2.498,-2.5165,-2.5165,-2.5165,-2.5165,-2.5165,-2.5189,-2.5197,-2.5197,-2.5151,-2.5035,-2.4665,-2.4665,-2.4525,-2.42,-2.42,-2.4208,-2.4223,-2.4518,-2.4641,-2.4688,-2.4623,-2.4642,-2.4734,-2.5382,-2.5444,-2.5166,-2.548,-2.539,-2.5127,0.0,0.0,0.0,0.0,0.0,0.0,0.0,0.0,0.0,0.0,0.0,0.0,0.0,-1.9868,-1.9998,-2.0118,-1.9889,0.0,0.0,0.0,0.0,-1.7019,-1.6786,-1.6412,-1.5815,-1.5744,-1.5568,-1.5311,-1.5106,-1.5373,-1.6119,-1.5996,-1.6299,-1.6984,-1.7351,-1.7505,-1.7522,-1.801,-1.8414,-1.8786,-1.9297,-1.9628,-1.9796,-1.9666,-1.9487,-1.9296,-1.8713,-1.8334,-1.804,-1.7466,-1.7052,-1.6588,-1.5974,-1.566,-1.5448,-1.4998,-1.4829,-1.4757,-1.4669,-1.489,-1.5226,-1.5518,-1.597,-1.6445,-1.7235,-1.7652,-1.8119,-1.877,-1.924,-1.972,-2.0211,-2.1152,-2.1929,-2.2226,-2.2605,-2.299,-2.3175,-2.3538,-2.386,-2.4046,-2.4108,-2.4108,-2.4108,-2.4232,-2.4293,-2.4293,-2.461,-2.4795,-2.4795,-2.4988,-2.5111,-2.5111,-2.5111,-2.4988,-2.4795,-2.4548,-2.4417,-2.4293,-2.4293,-2.4232,-2.4108,-2.4108,-2.4108,-2.4108,-2.3984,-2.4108,-2.4239,-2.405,-2.4099,-2.4254,-2.4309,-2.4529,-2.4782,-2.4901,-2.501,-2.5127,0.0,0.0,0.0,0.0,0.0,0.0,0.0,0.0,0.0,-1.7696,0.0,0.0,0.0,0.0,-1.8811,-1.8965,-1.8664,-1.8216,-1.756,-1.7329,-1.6915,-1.6263,-1.6096,-1.5815,-1.5328,-1.5292,-1.5213,-1.4991,-1.4856,-1.519,-1.5912,-1.5758,-1.6055,-1.6689,-1.7025,-1.7229,-1.7335,-1.7904,-1.8363,-1.8731,-1.9274,-1.9608,-1.977,-1.9665,-1.9521,-1.9336,-1.9051,-1.8808,-1.8517,-1.8035,-1.771,-1.7321,-1.6587,-1.6096,-1.5647,-1.5022,-1.4761,-1.459,-1.4303,-1.4465,-1.4739,-1.4877,-1.5248,-1.5721,-1.649,-1.6663,-1.6888,-1.7523,-1.8038,-1.8448,-1.8998,-1.9733,-2.0472,-2.1099,-2.1544,-2.1922,-2.2165,-2.253,-2.2951,-2.3247,-2.3385,-2.3492,-2.3604,-2.3798,-2.3922,-2.3922,-2.4232,-2.4425,-2.4425,-2.4672,-2.4734,-2.4734,-2.4734,-2.4672,-2.4425,-2.4232,-2.4046,-2.3922,-2.3922,-2.386,-2.3728,-2.3728,-2.3728,-2.3736,-2.3549,-2.3611,-2.3922,-2.3549,-2.3551,-2.3758,-2.3615,-2.3925,-2.4423,-2.4532,-2.4841,-2.5127,0.0,0.0,0.0,0.0,0.0,0.0,0.0,0.0,-1.6482,-1.7063,0.0,0.0,0.0,0.0,0.0,-1.7672,-1.7373,-1.6994,-1.6603,-1.6368,-1.6026,-1.5505,0.0,0.0,-1.49,-1.4872,-1.4792,-1.4605,-1.4605,-1.4962,-1.5682,-1.5712,-1.6055,-1.6689,-1.6689,-1.6853,-1.7123,-1.7671,-1.8117,-1.8506,-1.8886,-1.9257,-1.9583,-1.9694,-1.9683,-1.9723,-1.9838,-1.9722,-1.9486,-1.92,-1.875,-1.8198,-1.7586,-1.6656,-1.5708,-1.5248,-1.49,-1.462,0.0,0.0,0.0,-1.4582,-1.4821,-1.5116,-1.5642,-1.5761,-1.5885,-1.6183,-1.6729,-1.7132,-1.7475,-1.798,-1.892,-2.0794,-2.1099,-2.118,-2.118,-2.1187,-2.1299,-2.1668,-2.1956,-2.2262,-2.2563,-2.3168,-2.3549,-2.3549,-2.3922,-2.4108,-2.4108,-2.4108,-2.4108,-2.4108,-2.4108,-2.4108,-2.4108,-2.4108,-2.3922,-2.3611,-2.3611,-2.3417,-2.3106,-2.3106,-2.3106,-2.3106,-2.3106,-2.33,-2.3549,-2.3238,-2.3106,-2.3142,-2.3457,-2.3786,-2.4123,-2.4437,-2.4766,-2.5127,0.0,0.0,0.0,0.0,0.0,-1.5409,-1.5488,-1.5638,-1.578,0.0,0.0,0.0,-1.6682,-1.6968,-1.7003,-1.6716,-1.6621,-1.6342,-1.585,-1.5744,-1.5461,-1.4856,-1.4856,-1.4677,-1.431,-1.4317,-1.4281,-1.4238,-1.4389,-1.4822,-1.5505,-1.5643,-1.6055,-1.6689,-1.6689,-1.673,-1.6852,-1.773,-1.8183,-1.8374,-1.913,-1.9389,-1.9328,-1.9593,-1.9597,-1.9502,-1.9789,-1.9722,-1.9486,-1.9437,-1.9037,-1.8429,-1.7489,-1.6704,-1.6077,-1.5553,-1.5045,-1.4683,-1.4606,0.0,0.0,0.0,0.0,0.0,-1.4864,-1.5109,-1.5339,-1.5856,-1.6061,-1.6283,-1.6627,-1.6806,-1.7181,-1.8128,-1.9193,-1.9966,-2.0152,-2.0581,-2.1048,-2.1313,-2.1638,-2.1876,-2.1961,-2.2539,-2.2863,-2.2863,-2.3425,-2.3736,-2.3736,-2.3984,-2.4108,-2.4108,-2.386,-2.3736,-2.3736,-2.3487,-2.3362,-2.323,-2.323,-2.3168,-2.3106,-2.3106,-2.3106,-2.3106,-2.3106,-2.3168,-2.3238,-2.3168,-2.3106,-2.312,-2.3208,-2.3588,-2.4093,-2.4181,-2.4576,-2.5127,0.0,0.0,0.0,0.0,0.0,-1.507,-1.507,-1.5177,-1.5292,0.0,0.0,0.0,-1.5956,-1.6167,-1.6202,-1.5991,-1.5885,-1.5638,-1.5177,-1.5106,-1.4927,-1.4418,-1.4382,-1.431,-1.4093,-1.4093,-1.4093,-1.4093,-1.4429,-1.4889,-1.5397,-1.5763,-1.6198,-1.6689,-1.6689,-1.6776,-1.7,-1.7728,-1.8048,-1.8112,-1.892,-1.9247,-1.9323,-1.9669,-1.9806,-1.9844,-2.0186,-2.0205,-2.0064,-1.9964,-1.9464,-1.8736,-1.7738,-1.7058,-1.6504,-1.5817,-1.5287,-1.4844,-1.4588,-1.4293,-1.3987,-1.378,0.0,0.0,-1.4121,-1.4311,-1.4476,-1.4877,-1.5175,-1.5448,-1.5724,-1.5939,-1.6233,-1.657,-1.7355,-1.8171,-1.8946,-1.9502,-1.9907,-2.0207,-2.0624,-2.0963,-2.1087,-2.1802,-2.2295,-2.2412,-2.2908,-2.323,-2.3362,-2.3611,-2.3673,-2.3673,-2.3479,-2.3417,-2.3417,-2.3168,-2.3106,-2.3106,-2.3106,-2.3106,-2.3106,-2.3106,-2.3106,-2.3106,-2.3106,-2.3106,-2.3106,-2.3106,-2.3106,-2.3106,-2.3106,-2.3427,-2.3896,-2.4035,-2.4415,-2.4943,0.0,0.0,-1.5426,-1.5275,-1.5043,-1.4908,-1.4908,-1.494,-1.4992,0.0,-1.5259,-1.5364,-1.5587,-1.5554,-1.5528,-1.5484,-1.5265,-1.4991,-1.4605,-1.4569,-1.4389,-1.4101,-1.4057,-1.4065,-1.4021,-1.4021,-1.408,-1.4111,-1.4609,-1.507,-1.5459,-1.5984,-1.6397,-1.6689,-1.6689,-1.6937,-1.7302,-1.7679,-1.7838,-1.789,-1.8557,-1.9042,-1.9455,-1.9789,-2.0132,-2.044,-2.0798,-2.0925,-2.0865,-2.0565,-1.9946,-1.9121,-1.8224,-1.7576,-1.6988,-1.6116,-1.5553,-1.5077,-1.4544,-1.4333,-1.4167,-1.3617,-1.3663,0.0,-1.3539,-1.3459,-1.354,-1.3686,-1.4166,-1.4595,-1.4696,-1.5127,-1.5501,-1.5556,-1.5602,-1.6133,-1.7629,-1.8052,-1.8369,-1.8714,-1.9312,-1.9807,-2.016,-2.0998,-2.1668,-2.2029,-2.2384,-2.2695,-2.3106,-2.3106,-2.3106,-2.3106,-2.3106,-2.3106,-2.3106,-2.3106,-2.3106,-2.3106,-2.3106,-2.3106,-2.3106,-2.3106,-2.3106,-2.3106,-2.3106,-2.3106,-2.3106,-2.3106,-2.3106,-2.3106,-2.3106,-2.331,-2.364,-2.3962,-2.4291,-2.462,0.0,-1.5753,-1.5497,-1.5461,-1.515,-1.4908,-1.4908,-1.5041,-1.516,-1.5189,-1.5578,-1.5907,-1.6142,-1.586,-1.5613,-1.5503,-1.5017,-1.4641,-1.4461,-1.4281,-1.4101,-1.3863,-1.3863,-1.379,-1.3637,-1.3637,-1.3836,-1.4276,-1.453,-1.5065,-1.5826,-1.6095,-1.6397,-1.6689,-1.6689,-1.6937,-1.7302,-1.7679,-1.7982,-1.8232,-1.8653,-1.9042,-1.9455,-1.9789,-2.0132,-2.044,-2.0798,-2.0925,-2.0822,-2.0344,-2.0092,-1.9675,-1.8346,-1.7825,-1.752,-1.643,-1.5886,-1.5547,-1.5077,-1.4629,-1.4183,-1.3608,-1.355,0.0,-1.3229,-1.3335,-1.344,-1.3277,-1.3319,-1.3366,-1.32,-1.3242,-1.343,-1.3854,-1.4335,-1.5064,-1.642,-1.6859,-1.7213,-1.7784,-1.837,-1.8972,-1.9423,-2.0147,-2.0686,-2.0982,-2.181,-2.2533,-2.3091,-2.3106,-2.3106,-2.3106,-2.3106,-2.3106,-2.3106,-2.3106,-2.3106,-2.3106,-2.3106,-2.3106,-2.3106,-2.3106,-2.3106,-2.3106,-2.3106,-2.3106,-2.3106,-2.3106,-2.3106,-2.3106,-2.3106,-2.331,-2.364,-2.3962,-2.4291,-2.462,-1.6237,-1.5991,-1.5788,-1.5691,-1.5399,-1.5251,-1.5324,-1.5357,-1.5423,-1.5562,-1.5731,-1.5881,-1.5996,-1.5826,-1.5683,-1.5608,-1.5223,-1.495,-1.4755,-1.4531,-1.4313,-1.417,-1.414,-1.417,-1.4156,-1.4156,-1.4313,-1.4698,-1.5057,-1.5467,-1.592,-1.626,-1.6523,-1.6705,-1.6921,-1.7199,-1.7591,-1.789,-1.824,-1.8597,-1.8955,-1.9304,-1.9702,-1.9995,-2.0353,-2.0678,-2.0861,-2.0925,-2.0814,-2.0292,-2.0078,-1.9892,-1.8701,-1.8146,-1.7725,-1.7015,-1.6327,-1.5737,-1.5499,-1.4975,-1.4394,-1.4016,-1.3674,0.0,0.0,-1.3133,-1.3152,-1.3114,-1.2988,-1.2918,-1.2884,-1.2807,-1.2807,-1.3064,-1.3466,-1.3964,-1.4632,-1.5574,-1.6443,-1.6926,-1.7344,-1.7823,-1.8383,-1.9142,-1.9973,-2.0872,-2.1576,-2.2223,-2.2849,-2.2864,-2.2945,-2.3106,-2.3106,-2.3106,-2.3106,-2.3106,-2.3106,-2.3106,-2.3106,-2.3106,-2.3106,-2.3106,-2.3106,-2.3106,-2.3106,-2.3106,-2.3106,-2.3106,-2.3106,-2.3106,-2.3106,-2.3208,-2.3413,-2.3903,-2.4188,-2.4393,-1.6525,-1.6272,-1.6087,-1.5962,-1.5793,-1.5732,-1.5926,-1.5848,-1.587,-1.615,-1.6036,-1.588,-1.588,-1.5817,-1.5816,-1.5816,-1.5536,-1.5312,-1.5157,-1.4925,-1.4738,-1.4621,-1.4621,-1.4691,-1.4832,-1.4871,-1.4986,-1.5242,-1.57,-1.5951,-1.6061,-1.6514,-1.6689,-1.6713,-1.7111,-1.7504,-1.7838,-1.8152,-1.8541,-1.8962,-1.932,-1.9678,-1.9957,-2.0257,-2.0615,-2.0925,-2.0925,-2.0873,-2.0771,-2.0241,-2.0086,-1.987,-1.9044,-1.8419,-1.7902,-1.7489,-1.6738,-1.6021,-1.5832,-1.5356,-1.4831,-1.4394,-1.3962,-1.3588,0.0,0.0,0.0,-1.3001,-1.2835,-1.2683,-1.2784,-1.2649,-1.2506,-1.2516,-1.2735,-1.2945,-1.2997,-1.4362,-1.5526,-1.5914,-1.6247,-1.6702,-1.737,-1.8282,-1.9362,-2.0732,-2.1248,-2.1778,-2.2391,-2.2474,-2.2681,-2.3003,-2.3018,-2.3047,-2.3106,-2.3106,-2.3106,-2.3106,-2.3106,-2.3106,-2.3106,-2.3106,-2.3106,-2.3106,-2.3106,-2.3106,-2.3106,-2.3106,-2.3106,-2.3106,-2.3106,-2.3106,-2.3186,-2.3845,-2.4021,-2.4108,-1.6978,-1.6517,-1.6316,-1.6478,-1.6349,-1.6286,-1.648,-1.6624,-1.6807,-1.6968,-1.6733,-1.6578,-1.6578,-1.6333,-1.6142,-1.6142,-1.5678,-1.5389,-1.5351,-1.5157,-1.5041,-1.5033,-1.5033,-1.5033,-1.5072,-1.5072,-1.5295,-1.5818,-1.5856,-1.6156,-1.6593,-1.6673,-1.6689,-1.6713,-1.7111,-1.7504,-1.7838,-1.8152,-1.8692,-1.9344,-1.9726,-1.9885,-1.9957,-2.0257,-2.0615,-2.0925,-2.0925,-2.0771,-2.0514,-2.0189,-1.9931,-1.962,-1.8993,-1.8569,-1.8142,-1.7586,-1.7127,-1.6697,-1.5974,-1.573,-1.5445,-1.4538,-1.425,-1.4058,-1.3588,0.0,-1.3007,-1.2845,0.0,-1.2306,-1.1847,0.0,0.0,-1.1702,-1.2102,-1.2455,-1.2691,-1.3324,-1.4055,-1.4806,-1.5331,-1.5952,-1.6726,-1.7874,-1.8863,-1.9529,-2.0392,-2.1159,-2.1764,-2.21,-2.2374,-2.2667,-2.2681,-2.282,-2.3106,-2.3106,-2.3106,-2.3106,-2.3106,-2.3106,-2.3106,-2.3106,-2.3106,-2.3106,-2.3106,-2.3106,-2.3106,-2.3106,-2.3106,-2.3106,-2.3106,-2.3106,-2.3186,-2.3845,-2.3883,-2.3644,-1.7304,-1.7012,-1.6982,-1.6937,-1.6893,-1.694,-1.7261,-1.7316,-1.7331,-1.7286,-1.7244,-1.7199,-1.7199,-1.7163,-1.7111,-1.7111,-1.6596,-1.6277,-1.6277,-1.5888,-1.566,-1.566,-1.566,-1.574,-1.5853,-1.5853,-1.6003,-1.6346,-1.6346,-1.6465,-1.6697,-1.6953,-1.7048,-1.7072,-1.762,-1.7858,-1.7882,-1.8243,-1.8629,-1.8963,-1.9297,-1.9553,-1.9821,-2.0416,-2.0814,-2.0922,-2.0802,-2.0645,-2.0541,-2.0226,-1.9941,-1.9657,-1.9214,-1.8847,-1.8518,-1.8049,-1.7592,-1.7113,-1.6644,-1.6163,-1.5683,-1.5302,-1.4825,-1.4442,-1.4064,-1.3659,-1.3216,-1.2846,0.0,0.0,0.0,0.0,0.0,0.0,-1.1706,-1.1971,-1.2109,-1.2438,-1.3073,-1.4084,-1.4434,-1.5053,-1.6169,-1.7333,-1.8205,-1.8818,-1.9569,-2.034,-2.1168,-2.148,-2.1851,-2.2359,-2.2367,-2.2432,-2.2571,-2.274,-2.2828,-2.2828,-2.3018,-2.3106,-2.3106,-2.3106,-2.3106,-2.3106,-2.3106,-2.3106,-2.3106,-2.3106,-2.3106,-2.3106,-2.3106,-2.3106,-2.3123,-2.358,-2.3616,-2.3571,-1.8011,-1.7744,-1.7733,-1.7642,-1.7561,-1.7614,-1.7931,-1.7906,-1.7819,-1.7663,-1.777,-1.7865,-1.7865,-1.7887,-1.7909,-1.7909,-1.7454,-1.7134,-1.7134,-1.6788,-1.6572,-1.6572,-1.6572,-1.6648,-1.6758,-1.68,-1.6849,-1.7016,-1.7016,-1.7016,-1.7024,-1.7286,-1.7456,-1.7437,-1.7945,-1.8079,-1.7922,-1.8233,-1.8534,-1.875,-1.9002,-1.9353,-1.9816,-2.0464,-2.0776,-2.0869,-2.0643,-2.0537,-2.0431,-2.0279,-1.9904,-1.9576,-1.9376,-1.9052,-1.8745,-1.8503,-1.7998,-1.7443,-1.7165,-1.6611,-1.6069,-1.5879,-1.5404,-1.4927,-1.4592,-1.41,-1.3614,-1.318,-1.2642,0.0,0.0,0.0,-1.138,-1.1319,0.0,-1.1676,-1.1676,-1.1905,-1.2491,-1.3468,-1.3835,-1.4424,-1.5533,-1.6651,-1.7469,-1.8005,-1.8744,-1.954,-2.0359,-2.0758,-2.1248,-2.1911,-2.2045,-2.2096,-2.2184,-2.2396,-2.2506,-2.2506,-2.274,-2.2857,-2.2857,-2.2937,-2.2974,-2.2981,-2.3069,-2.3106,-2.3106,-2.3106,-2.3106,-2.3106,-2.2981,-2.2981,-2.2998,-2.3379,-2.3355,-2.3309,-1.9393,-1.8783,-1.8434,-1.8605,-1.8495,-1.8378,-1.8364,-1.8299,-1.8296,-1.8255,-1.8404,-1.8456,-1.8456,-1.8308,-1.8186,-1.8186,-1.7945,-1.7755,-1.7755,-1.7747,-1.7739,-1.7739,-1.7739,-1.7739,-1.7739,-1.7783,-1.7783,-1.7783,-1.7783,-1.7783,-1.7783,-1.779,-1.7798,-1.7771,-1.7877,-1.7906,-1.793,-1.8034,-1.8476,-1.9086,-1.9094,-1.9491,-2.0071,-2.013,-2.0344,-2.059,-2.059,-2.0431,-2.0226,-2.0173,-1.9799,-1.9324,-1.9279,-1.9052,-1.8789,-1.8774,-1.8321,-1.7719,-1.7479,-1.7161,-1.6791,-1.5974,-1.5784,-1.5642,-1.5172,-1.4682,-1.4214,-1.3913,-1.3297,-1.259,-1.2109,-1.1802,-1.1608,-1.1339,-1.1535,0.0,0.0,-1.1905,-1.2278,-1.2775,-1.3685,-1.4389,-1.4718,-1.5771,-1.6568,-1.6821,-1.7877,-1.8771,-1.9427,-2.0005,-2.0622,-2.1188,-2.1525,-2.1862,-2.2184,-2.2191,-2.2198,-2.2198,-2.2206,-2.2213,-2.2228,-2.2506,-2.2637,-2.2652,-2.2974,-2.3106,-2.3106,-2.3106,-2.3106,-2.3043,-2.2731,-2.2606,-2.2684,-2.325,-2.3093,-2.2592,-2.0677,-2.0175,-1.9659,-1.8992,-1.8964,-1.893,-1.8766,-1.8726,-1.8741,-1.8863,-1.9004,-1.91,-1.91,-1.9112,-1.9134,-1.9134,-1.8807,-1.8571,-1.8571,-1.8387,-1.8248,-1.8248,-1.8248,-1.8213,-1.8048,-1.8048,-1.7961,-1.7814,-1.7814,-1.7814,-1.7814,-1.8009,-1.812,-1.8136,-1.8237,-1.8202,-1.8034,-1.8144,-1.8297,-1.859,-1.9027,-1.9383,-1.9598,-2.0024,-2.037,-2.0632,-2.0639,-2.0611,-2.0527,-2.0251,-1.9964,-1.961,-1.9345,-1.9347,-1.9368,-1.9145,-1.8922,-1.8657,-1.8336,-1.7758,-1.7191,-1.6944,-1.6457,-1.5981,-1.5648,-1.5066,-1.4431,-1.3971,-1.3313,-1.271,-1.231,-1.1949,-1.1652,-1.157,-1.1493,-1.1453,0.0,-1.1675,-1.1876,-1.2038,-1.3098,-1.3895,-1.3944,-1.5059,-1.5911,-1.6202,-1.7085,-1.7908,-1.8529,-1.9064,-1.9752,-2.0558,-2.0694,-2.1024,-2.1533,-2.1752,-2.1862,-2.1862,-2.2081,-2.2184,-2.2184,-2.2286,-2.244,-2.263,-2.274,-2.2908,-2.3106,-2.3106,-2.2981,-2.2738,-2.2668,-2.2362,-2.1999,-2.2609,-2.27,-2.2527,-2.132,-2.1002,-2.0517,-1.9505,-1.9365,-1.9322,-1.9059,-1.9206,-1.9358,-1.9385,-1.9688,-1.9912,-1.9912,-2.0067,-2.0107,-2.0107,-1.979,-1.9604,-1.9604,-1.9381,-1.9294,-1.9294,-1.917,-1.9014,-1.8889,-1.8669,-1.8471,-1.8322,-1.8189,-1.8144,-1.8152,-1.8383,-1.8486,-1.8456,-1.841,-1.828,-1.8109,-1.8073,-1.8159,-1.8357,-1.9016,-1.9279,-1.9368,-1.9842,-2.0221,-2.0493,-2.0659,-2.072,-2.0676,-2.0292,-2.0025,-1.9757,-1.9434,-1.948,-1.9635,-1.9418,-1.9269,-1.9134,-1.8917,-1.8331,-1.7678,-1.7473,-1.6958,-1.6395,-1.6048,-1.545,-1.4812,-1.4297,-1.3634,-1.3075,-1.2626,-1.2239,-1.1886,-1.1716,-1.157,-1.1397,0.0,-1.1439,-1.1575,-1.1575,-1.2498,-1.3263,-1.3444,-1.4362,-1.517,-1.5554,-1.6291,-1.7036,-1.7742,-1.8333,-1.9002,-1.98,-2.0145,-2.0471,-2.0857,-2.1299,-2.1525,-2.1525,-2.1737,-2.184,-2.184,-2.1957,-2.2111,-2.2301,-2.2528,-2.274,-2.2945,-2.3062,-2.2918,-2.2606,-2.248,-2.2111,-2.1669,-2.2168,-2.2417,-2.2537,-2.1359,-2.1187,-2.0926,-2.0116,-1.9789,-1.9556,-1.9303,-1.9737,-2.0017,-1.9795,-2.0429,-2.0929,-2.09,-2.1026,-2.1094,-2.1094,-2.0853,-2.0709,-2.0709,-2.0709,-2.0709,-2.0709,-2.0369,-2.0171,-2.0171,-1.9554,-1.9282,-1.922,-1.8944,-1.8797,-1.8781,-1.8781,-1.8781,-1.8781,-1.8319,-1.8141,-1.8086,-1.7945,-1.8035,-1.8401,-1.9023,-1.9279,-1.9368,-1.9691,-1.9952,-2.0205,-2.0548,-2.0735,-2.0691,-2.0292,-2.0033,-1.9779,-1.9389,-1.948,-1.9732,-1.968,-1.9507,-1.9252,-1.9209,-1.877,-1.8205,-1.7615,-1.7265,-1.6925,-1.6402,-1.5845,-1.5367,-1.486,-1.4285,-1.3709,-1.2987,-1.2609,-1.2246,-1.1841,-1.171,-1.1613,-1.1354,-1.1305,-1.1305,-1.1305,-1.192,-1.2562,-1.3088,-1.3631,-1.428,-1.4998,-1.5563,-1.6215,-1.7101,-1.7733,-1.8276,-1.8851,-1.971,-2.0222,-2.0251,-2.085,-2.1139,-2.1211,-2.1211,-2.1211,-2.1218,-2.1533,-2.1679,-2.173,-2.2337,-2.2608,-2.2583,-2.2912,-2.2856,-2.2543,-2.2174,-2.1859,-2.1649,-2.1949,-2.218,-2.2458,-2.132,-2.0958,-2.0792,-2.0854,-2.0413,-2.0118,-2.0339,-2.034,-2.0421,-2.0772,-2.0847,-2.0977,-2.1242,-2.1314,-2.1318,-2.1318,-2.127,-2.1222,-2.1222,-2.1222,-2.1222,-2.1222,-2.1128,-2.0982,-2.0855,-2.0525,-2.0105,-1.9648,-1.9374,-1.9098,-1.8781,-1.8781,-1.8781,-1.8781,-1.852,-1.8426,-1.8483,-1.8488,-1.8668,-1.9038,-1.9206,-1.9279,-1.9368,-1.9691,-1.9813,-1.9959,-2.0523,-2.0874,-2.0998,-2.0428,-2.0124,-2.0018,-1.9455,-1.9628,-1.9983,-1.9783,-1.9767,-1.9854,-1.9648,-1.911,-1.8642,-1.8462,-1.7739,-1.7078,-1.6904,-1.6177,-1.5473,-1.5306,-1.4703,-1.4149,-1.3967,-1.3252,-1.2662,-1.2548,-1.2082,-1.1613,-1.1354,-1.1305,-1.1305,-1.1305,-1.1456,-1.1844,-1.2535,-1.3106,-1.3719,-1.4461,-1.4807,-1.538,-1.6196,-1.6794,-1.7501,-1.8302,-1.8705,-1.9298,-1.9914,-2.0336,-2.0607,-2.0838,-2.1089,-2.1211,-2.1211,-2.1298,-2.1467,-2.1723,-2.2125,-2.2297,-2.2277,-2.2601,-2.2362,-2.1859,-2.1734,-2.1544,-2.1269,-2.1571,-2.1983,-2.2432,-2.1857,-2.1338,-2.1107,-2.14,-2.1058,-2.0688,-2.062,-2.0811,-2.0968,-2.1046,-2.1251,-2.1439,-2.1645,-2.1807,-2.191,-2.191,-2.191,-2.191,-2.191,-2.191,-2.191,-2.191,-2.1756,-2.1622,-2.1485,-2.0985,-2.0521,-2.0172,-1.983,-1.9407,-1.9066,-1.9066,-1.8978,-1.8789,-1.8715,-1.8659,-1.8628,-1.8723,-1.897,-1.9279,-1.9279,-1.9279,0.0,-1.9529,-1.9691,-1.9867,-2.0172,-2.0508,-2.0728,-2.0307,-2.0142,-1.9945,-1.9433,-1.9583,-1.9879,-1.9732,-1.9835,-1.9879,-1.9732,-1.9398,-1.8964,-1.8825,-1.816,-1.7471,-1.7331,-1.6524,-1.5827,-1.5682,-1.5127,-1.4575,-1.4356,-1.3762,-1.3168,-1.2854,-1.2165,-1.1656,-1.1483,-1.1348,-1.1305,-1.1305,-1.1305,-1.1532,-1.215,-1.2611,-1.315,-1.3877,-1.4305,-1.4748,-1.5319,-1.6137,-1.6851,-1.7506,-1.8143,-1.8803,-1.9382,-1.985,-2.0246,-2.0551,-2.0737,-2.0802,-2.0802,-2.0802,-2.0895,-2.1089,-2.1464,-2.1654,-2.1711,-2.2091,-2.1992,-2.1614,-2.1418,-2.1299,-2.1129,-2.1296,-2.165,-2.2058,-2.2552,-2.1995,-2.1587,-2.1792,-2.1646,-2.1238,-2.0668,-2.1165,-2.1459,-2.1152,-2.1641,-2.2013,-2.2064,-2.2448,-2.2671,-2.2671,-2.2714,-2.274,-2.274,-2.274,-2.274,-2.274,-2.2338,-2.2141,-2.2141,-2.1285,-2.0833,-2.0783,-2.0232,-1.9813,-1.9487,-1.9487,-1.9264,-1.8932,-1.9044,-1.8922,-1.8669,-1.8799,-1.9016,-1.9279,-1.9279,-1.9279,-1.9279,-1.9324,-1.9552,-1.981,-1.9907,-2.0021,-2.0176,-2.0132,-1.9989,-1.9757,-1.9434,-1.948,-1.968,-1.968,-1.968,-1.968,-1.968,-1.948,-1.9206,-1.8869,-1.8411,-1.7897,-1.7581,-1.6936,-1.627,-1.5973,-1.5486,-1.5003,-1.4437,-1.4123,-1.3644,-1.2901,-1.2237,-1.1781,-1.1705,-1.1483,-1.1305,-1.1305,-1.1305,0.0,-1.1957,-1.2194,-1.2644,-1.3396,-1.3897,-1.4353,-1.462,-1.5652,-1.6346,-1.6742,-1.7794,-1.8462,-1.8803,-1.9375,-1.985,-2.0157,-2.0256,-2.027,-2.027,-2.027,-2.027,-2.0349,-2.0658,-2.0914,-2.1155,-2.153,-2.159,-2.1488,-2.1235,-2.1109,-2.1109,-2.1109,-2.1269,-2.1601,-2.2493,-2.2105,-2.1811,-2.2007,-2.1906,-2.1707,-2.1442,-2.1511,-2.169,-2.1995,-2.2008,-2.2115,-2.2465,-2.2783,-2.3014,-2.3014,-2.3297,-2.3521,-2.3521,-2.3521,-2.3521,-2.3521,-2.3117,-2.292,-2.292,-2.1979,-2.1387,-2.109,-2.0595,-2.0122,-1.9829,-1.9829,-1.9789,-1.9685,-1.9507,-1.9303,-1.9087,-1.9177,-1.9272,-1.9279,-1.9279,-1.9279,-1.9324,-1.9532,-1.9665,-1.9807,-2.028,-2.0329,-2.0194,-1.993,-1.9867,-1.9757,-1.9434,-1.948,-1.968,-1.9428,-1.9532,-1.9628,-1.9428,-1.9324,-1.9212,-1.8954,-1.8421,-1.7909,-1.7657,-1.7099,-1.651,-1.6012,-1.5641,-1.5289,-1.4717,-1.4245,-1.3644,-1.2901,-1.2513,-1.2146,-1.1727,-1.1483,-1.1305,-1.1305,-1.1305,-1.1483,-1.1957,-1.204,-1.2383,-1.3125,-1.348,-1.3838,-1.4341,-1.5171,-1.5849,-1.639,-1.7076,-1.7674,-1.8171,-1.8734,-1.9201,-1.9566,-2.0037,-2.027,-2.027,-2.027,-2.027,-2.0349,-2.0658,-2.0795,-2.0792,-2.1162,-2.1278,-2.1172,-2.1109,-2.1109,-2.1109,-2.1109,-2.1142,-2.1229,-2.25,-2.2191,-2.2017,-2.215,-2.2062,-2.191,-2.1951,-2.1965,-2.2001,-2.2132,-2.2257,-2.2474,-2.28,-2.3006,-2.3186,-2.3383,-2.3562,-2.3718,-2.3718,-2.3674,-2.3682,-2.3718,-2.3345,-2.3053,-2.291,-2.2165,-2.1636,-2.126,-2.0865,-2.0488,-2.0138,-2.0138,-1.9994,-1.9681,-1.9467,-1.9386,-1.9448,-1.9361,-1.9279,-1.9279,-1.9279,-1.9279,-1.9324,-1.9428,-1.948,-1.9554,-1.9807,-1.9865,-1.974,-1.9968,-1.991,-1.9687,-1.9375,-1.9376,-1.948,-1.9324,-1.9376,-1.9428,-1.9175,-1.9071,-1.9018,-1.8705,-1.8324,-1.7953,-1.7856,-1.7206,-1.6647,-1.6351,-1.5786,-1.5108,-1.4593,-1.4181,-1.3728,-1.3249,-1.2715,-1.228,-1.1899,-1.1516,-1.1305,-1.1305,-1.1305,-1.1483,-1.1957,-1.2,-1.2261,-1.2854,-1.3284,-1.3613,-1.3884,-1.4917,-1.5722,-1.6111,-1.6848,-1.7435,-1.7982,-1.8447,-1.8854,-1.9151,-1.9621,-1.9822,-1.9822,-1.9822,-1.9822,-1.9829,-1.998,-2.0235,-2.051,-2.0963,-2.1108,-2.1109,-2.1109,-2.1109,-2.1109,-2.1109,-2.1109,-2.1129,-2.2466,-2.2262,-2.2168,-2.2244,-2.2103,-2.2043,-2.2177,-2.2244,-2.2197,-2.2057,-2.2382,-2.2681,-2.2928,-2.3046,-2.3258,-2.36,-2.3702,-2.3744,-2.3744,-2.3761,-2.3716,-2.3744,-2.3409,-2.3073,-2.2833,-2.2212,-2.1731,-2.1447,-2.1059,-2.0731,-2.0411,-2.0411,-2.0111,-1.9563,-1.9373,-1.9433,-1.9576,-1.9376,-1.9279,-1.9279,-1.9279,-1.9279,-1.9331,-1.9376,-1.9376,-1.9376,-1.9428,-1.948,-1.9517,-1.9934,-1.9897,-1.9576,-1.9383,-1.9279,-1.9279,-1.9279,-1.9279,-1.9175,-1.8974,-1.8869,-1.8705,-1.8377,-1.8115,-1.7911,-1.7859,-1.7258,-1.6659,-1.6549,-1.5733,-1.4881,-1.4376,-1.4076,-1.3784,-1.3485,-1.2871,-1.2372,-1.2137,-1.1657,-1.1386,-1.1386,-1.1337,-1.1478,-1.1871,-1.1957,-1.2166,-1.2619,-1.3161,-1.3513,-1.3513,-1.4649,-1.5511,-1.5903,-1.6578,-1.7185,-1.7727,-1.8079,-1.837,-1.8605,-1.896,-1.9132,-1.9191,-1.9191,-1.9191,-1.9191,-1.9243,-1.9634,-2.0274,-2.0869,-2.1109,-2.1109,-2.1109,-2.1109,-2.1109,-2.1109,-2.1109,-2.1109,-2.2335,-2.2272,-2.2263,-2.2164,-2.2175,-2.2186,-2.197,-2.2062,-2.2123,-2.208,-2.246,-2.2609,-2.2391,-2.2918,-2.3315,-2.3348,-2.3671,-2.3869,-2.3869,-2.3869,-2.3869,-2.3869,-2.3483,-2.3285,-2.3252,-2.236,-2.186,-2.1828,-2.1238,-2.0755,-2.0467,-2.0467,-2.0187,-1.9693,-1.9672,-1.9554,0.0,-1.9324,-1.9279,-1.9279,-1.9279,-1.9279,-1.9331,-1.9583,-1.968,-1.968,-1.9931,-2.0034,-1.999,-1.9813,-1.9554,-1.9324,-1.9331,-1.9279,-1.9279,-1.9279,-1.913,-1.8921,-1.8928,-1.8698,-1.8377,-1.8122,-1.7852,-1.7582,-1.7331,-1.6988,-1.6575,-1.6075,-1.5285,-1.4659,-1.4327,-1.4066,-1.3718,-1.3232,-1.2935,-1.2689,-1.2409,-1.1946,-1.1666,-1.1666,-1.1434,-1.1397,-1.1699,-1.1871,-1.2123,-1.2406,-1.3073,-1.3513,-1.3513,-1.4327,-1.5015,-1.5525,-1.5878,-1.6266,-1.6821,-1.7162,-1.7457,-1.7751,-1.7969,-1.8237,-1.848,-1.848,-1.848,-1.8538,-1.8823,-1.9443,-2.0274,-2.0869,-2.1109,-2.1109,-2.1109,-2.1109,-2.1109,-2.1109,-2.1109,-2.1109,-2.22,-2.218,-2.2126,-2.1978,-2.2022,-2.2006,-2.1829,-2.2028,-2.2167,-2.2012,-2.2248,-2.2557,-2.2881,-2.3124,-2.3387,-2.3618,-2.383,-2.3921,-2.3921,-2.3921,-2.3921,-2.3921,-2.3605,-2.3314,-2.3086,-2.2328,-2.1754,-2.1381,-2.0885,-2.0514,-2.0248,-2.0248,-2.0042,-1.968,-1.9524,-1.9376,-1.9279,-1.9279,-1.9279,-1.9279,-1.9279,-1.9279,-1.9324,-1.9428,-1.948,-1.948,-1.9576,-1.9628,-1.9576,-1.948,-1.948,-1.9524,-1.9324,-1.9279,-1.9279,-1.913,-1.8974,-1.8817,-1.8443,-1.8115,-1.7845,-1.7595,-1.7272,-1.7047,-1.6895,-1.669,-1.634,-1.597,-1.5237,-1.453,-1.4117,-1.3978,-1.3725,-1.318,-1.2934,-1.2711,-1.242,-1.2151,-1.1954,-1.1954,-1.1873,-1.1858,-1.2081,-1.2171,-1.2388,-1.2788,-1.3258,-1.3513,-1.3513,-1.4249,-1.4861,-1.5239,-1.5664,-1.6094,-1.6482,-1.6927,-1.7357,-1.7601,-1.7874,-1.8154,-1.8421,-1.8421,-1.8421,-1.844,-1.8949,-1.9346,-1.9726,-2.0242,-2.0482,-2.0482,-2.0482,-2.0482,-2.0482,-2.0482,-2.0482,-2.0482,-2.2097,-2.2018,-2.1995,-2.1883,-2.1844,-2.1778,-2.1633,-2.1841,-2.1961,-2.1803,-2.1961,-2.2317,-2.2974,-2.3176,-2.3347,-2.3616,-2.3641,-2.3641,-2.3641,-2.3641,-2.3585,-2.352,-2.336,-2.3071,-2.2696,-2.2127,-2.1611,-2.1046,-2.0668,-2.0348,-1.9983,-1.9879,-1.9783,-1.9576,-1.9376,-1.9279,-1.9279,-1.9279,-1.9279,-1.9279,-1.9279,-1.9279,-1.9279,-1.9279,-1.9279,-1.9279,-1.9279,-1.9279,-1.9279,-1.9227,-1.9331,-1.9428,-1.9324,-1.9227,-1.913,-1.8974,-1.8764,-1.8548,-1.8016,-1.7694,-1.743,-1.7113,-1.6849,-1.6577,-1.6465,-1.6264,-1.5951,-1.5678,-1.5106,-1.4504,-1.41,-1.3807,-1.3501,-1.3084,-1.2764,-1.2517,-1.2326,-1.2072,-1.1966,-1.2058,-1.1999,-1.2089,-1.2277,-1.2363,-1.2546,-1.2871,-1.326,-1.3537,-1.3628,-1.4245,-1.4752,-1.5103,-1.5457,-1.5826,-1.6177,-1.6518,-1.6837,-1.7198,-1.7277,-1.7549,-1.8012,-1.8071,-1.8188,-1.8336,-1.8892,-1.9193,-1.936,-1.9871,-2.0106,-2.0106,-2.0106,-2.0106,-2.0106,-2.0106,-2.0106,-2.0106,-2.195,-2.1921,-2.1842,-2.171,-2.1717,-2.1615,-2.1377,-2.1374,-2.1409,-2.1526,-2.1548,-2.1819,-2.2427,-2.2799,-2.3006,-2.3014,-2.3014,-2.3014,-2.3014,-2.3014,-2.2901,-2.2626,-2.2626,-2.2456,-2.2108,-2.1773,-2.1437,-2.1093,-2.075,-2.0309,-1.968,0.0,-1.9331,-1.9279,-1.9279,-1.9279,-1.9279,-1.9279,-1.9279,-1.9279,-1.9279,-1.9279,-1.9279,-1.9279,-1.9279,-1.9279,-1.9279,-1.9279,-1.9279,-1.8974,-1.8928,-1.8974,-1.9227,-1.9123,-1.8921,-1.8921,-1.8496,-1.7964,-1.7687,-1.7437,-1.712,-1.6789,-1.6477,-1.6217,-1.5945,-1.5684,-1.5428,-1.5095,-1.4788,-1.456,-1.435,-1.3636,-1.3004,-1.2749,-1.2314,-1.2024,-1.2024,-1.1788,-1.1694,-1.1984,-1.1822,-1.1814,-1.2094,-1.2272,-1.2409,-1.2409,-1.3095,-1.3619,-1.39,-1.4153,-1.4545,-1.5083,-1.5107,0.0,-1.5879,-1.5636,-1.574,-1.6233,-1.5952,-1.6224,-1.7026,-1.7367,-1.7667,-1.8003,-1.8542,-1.9016,-1.936,-1.9871,-2.0106,-2.0106,-2.0106,-2.0106,-2.0106,-2.0106,-2.0106,-2.0106,-2.1779,-2.1753,-2.1686,-2.1454,-2.1275,-2.115,-2.1094,-2.1152,-2.1279,-2.1563,-2.179,-2.2004,-2.223,-2.233,-2.2392,-2.2392,-2.2392,-2.2392,-2.2392,-2.2392,-2.2335,-2.2279,-2.2286,-2.223,-2.2116,-2.178,-2.1334,-2.0837,-2.0498,-2.0009,-1.9428,-1.9175,-1.9026,-1.9026,-1.8795,-1.8691,-1.8691,-1.8691,-1.8812,-1.901,-1.901,-1.9138,-1.9323,-1.9323,-1.9323,-1.9323,-1.9323,-1.9323,-1.9269,-1.9222,-1.9168,-1.9168,-1.9269,-1.9127,-1.89,-1.8895,-1.8578,-1.8156,-1.7734,-1.7244,-1.6769,-1.6254,-1.5951,-1.569,-1.5363,-1.5089,-1.4821,-1.4493,-1.4223,-1.3859,-1.3477,-1.3044,-1.2689,-1.244,-1.2176,-1.198,-1.198,-1.192,-1.1923,-1.1971,-1.2097,-1.2199,-1.2294,-1.2533,-1.2723,-1.2866,-1.3082,-1.3334,-1.3631,-1.4058,-1.4364,0.0,-1.4708,0.0,-1.4995,-1.5115,-1.5315,-1.5643,-1.5754,-1.6103,-1.6661,-1.6773,-1.6891,-1.7032,-1.7619,-1.7991,-1.83,-1.8912,-1.9232,-1.9398,-1.9398,-1.9398,-1.9398,-1.9398,-1.9398,-1.9398,-2.1573,-2.1522,-2.142,-2.107,-2.0873,-2.0786,-2.0815,-2.0887,-2.1052,-2.1393,-2.1621,-2.1774,-2.1774,-2.1774,-2.1831,-2.2059,-2.2116,-2.2116,-2.2116,-2.2116,-2.2059,-2.1945,-2.1945,-2.1888,-2.1774,-2.1572,-2.113,-2.051,-1.9951,-1.9469,-1.8952,-1.8803,-1.8705,-1.8705,-1.8482,-1.8422,-1.8429,-1.8548,-1.8709,-1.8898,-1.901,-1.9171,-1.9284,-1.9284,-1.9284,-1.9284,-1.9284,-1.9284,-1.9284,-1.9181,-1.9071,-1.8981,-1.898,-1.8781,-1.8597,-1.8671,-1.8422,-1.7994,-1.7531,-1.6965,-1.6466,-1.6031,-1.56,-1.5208,-1.4767,-1.4444,-1.4175,-1.3905,-1.3694,-1.3437,-1.3021,-1.2641,-1.2243,-1.2008,-1.1636,-1.1438,-1.1541,-1.1536,-1.1634,-1.1829,-1.198,-1.2175,-1.237,-1.2565,-1.2759,-1.2953,-1.305,-1.3177,-1.3353,-1.3783,-1.4084,-1.4292,-1.4455,-1.4608,-1.4754,-1.4801,-1.4999,-1.5253,-1.5592,-1.597,-1.6366,-1.6478,-1.6478,-1.6549,-1.6985,-1.7367,-1.7622,-1.8134,-1.8457,-1.8682,-1.8682,-1.8682,-1.8682,-1.8682,-1.8682,-1.8682,-2.1326,-2.1275,-2.107,-2.0573,-2.047,-2.0475,-2.0536,-2.0557,-2.0669,-2.1004,-2.1112,-2.1153,-2.1153,-2.1153,-2.1375,-2.1945,-2.2002,-2.2059,-2.2059,-2.2059,-2.1945,-2.1668,-2.1611,-2.1497,-2.1153,-2.1153,-2.0832,-2.0128,-1.9283,-1.8705,-1.8422,-1.837,-1.837,-1.837,-1.837,-1.8325,-1.8366,-1.8712,-1.8805,-1.8867,-1.9098,-1.9223,-1.9244,-1.9244,-1.9244,-1.9244,-1.9244,-1.9244,-1.9181,-1.8974,-1.8648,-1.8417,-1.8392,-1.8198,-1.8039,-1.8338,-1.7981,-1.7471,-1.716,-1.6691,-1.6222,-1.5924,-1.5392,-1.4767,-1.4277,-1.3905,-1.3591,-1.3315,-1.3261,-1.3152,-1.2881,-1.2274,-1.1733,-1.1408,-1.0828,-1.0475,-1.0757,-1.0801,-1.0998,-1.1487,-1.159,-1.1785,-1.2322,-1.237,-1.2467,-1.2764,-1.2953,-1.3061,-1.3126,-1.332,-1.3686,-1.4265,-1.4299,-1.4492,-1.4928,-1.4659,-1.469,-1.4966,-1.5352,-1.5762,-1.6022,-1.6307,-1.6419,-1.6431,-1.6723,-1.6979,-1.732,-1.7554,-1.7799,-1.7969,-1.7969,-1.7969,-1.7969,-1.7969,-1.7969,-1.7969,-2.1027,-2.0822,-2.0676,-2.0522,-2.0153,-2.0,-2.0227,-2.0295,-2.0402,-2.0732,-2.0821,-2.0838,-2.0838,-2.0615,-2.0558,-2.073,-2.1139,-2.1439,-2.1439,-2.1439,-2.1253,-2.096,-2.0952,-2.0788,-2.0507,-2.0507,-2.0203,-1.9573,-1.889,-1.8475,-1.8422,-1.8167,-1.8069,-1.8069,-1.7905,-1.7928,-1.8104,-1.7949,-1.8119,-1.8529,-1.8377,-1.8426,-1.8621,-1.8621,-1.8621,-1.8621,-1.8621,-1.8621,-1.8621,-1.8564,-1.8448,-1.841,-1.841,-1.821,-1.8029,-1.8301,-1.8173,-1.7788,-1.7222,-1.6828,-1.6339,-1.541,-1.4636,-1.391,-1.3586,-1.3478,-1.3261,-1.2713,-1.2604,-1.2495,-1.2005,-1.1648,-1.1379,-1.1119,-1.0842,-1.0584,-1.0529,-1.0654,-1.0855,-1.0949,-1.134,-1.1639,-1.1785,-1.198,-1.2224,-1.2467,-1.2516,-1.2737,-1.3061,-1.2984,-1.3224,-1.3981,-1.4166,-1.4143,-1.4013,-1.3964,-1.4012,-1.4251,-1.4355,-1.4729,-1.5353,-1.5413,-1.5591,-1.5839,-1.6137,-1.6529,-1.6926,-1.7241,-1.7645,-1.7969,-1.7969,-1.7969,-1.7969,-1.7969,-1.7969,-1.7969,-2.0719,-2.0506,-2.0308,-2.0153,-1.9887,-1.9792,-1.9969,-2.0141,-2.03,-2.046,-2.0594,-2.0658,-2.0551,-2.0385,-2.027,-2.027,-2.0622,-2.0802,-2.0802,-2.0802,-2.0737,-2.0551,-2.0493,-2.0443,-2.027,-2.027,-1.9912,-1.9188,-1.8663,-1.8305,-1.8055,-1.7747,-1.7648,-1.7595,-1.7318,-1.7323,-1.7562,-1.7582,-1.783,-1.8236,-1.8199,-1.8288,-1.8421,-1.8421,-1.8421,-1.8421,-1.8421,-1.8421,-1.8421,-1.8421,-1.8305,-1.8194,-1.8012,-1.7784,-1.7556,-1.7543,-1.7543,-1.7467,-1.6961,-1.6484,-1.5926,-1.4877,-1.403,-1.3423,-1.3207,-1.2989,-1.2767,-1.2327,-1.2114,-1.1896,-1.1459,-1.1086,-1.0845,-1.0659,-1.0369,-1.0184,-1.0192,-1.0364,-1.0462,-1.0609,-1.0998,-1.1292,-1.1389,-1.1639,-1.1972,-1.233,-1.2335,-1.2532,-1.285,-1.2868,-1.309,-1.3631,-1.365,-1.3614,-1.3532,-1.3537,-1.3657,-1.3887,-1.3937,-1.428,-1.4724,-1.4831,-1.4942,-1.5186,-1.5483,-1.5866,-1.6217,-1.6696,-1.7092,-1.7432,-1.7543,-1.7518,-1.7518,-1.7518,-1.7518,-1.7518,-2.0411,-2.0197,-1.9983,-1.9732,-1.968,-1.9673,-1.9698,-1.9959,-2.0179,-2.0228,-2.0409,-2.0501,-2.0263,-2.022,-2.0162,-2.0162,-2.0162,-2.0213,-2.027,-2.027,-2.027,-2.0213,-2.0213,-2.022,-2.0162,-2.0113,-1.97,-1.8864,-1.851,-1.8097,-1.7529,-1.7279,-1.712,-1.712,-1.6887,-1.6905,-1.7197,-1.7482,-1.7761,-1.8033,-1.821,-1.8246,-1.8246,-1.8246,-1.8246,-1.8188,-1.8188,-1.8188,-1.8123,-1.8123,-1.796,-1.7732,-1.7426,-1.7132,-1.6844,-1.6543,-1.6661,-1.6785,-1.6543,-1.5976,-1.5257,-1.4239,-1.3617,-1.3152,-1.2827,-1.255,-1.2278,-1.1946,-1.1678,-1.135,-1.1021,-1.0616,-1.0285,-1.0088,-0.9721,-0.9556,-0.9801,-0.9871,-1.0019,-1.0265,-1.0556,-1.0864,-1.1142,-1.1393,-1.1727,-1.2254,-1.2274,-1.2415,-1.2631,-1.2818,-1.3039,-1.3234,-1.3128,-1.3118,-1.3261,-1.3152,-1.3262,-1.3593,-1.3707,-1.3926,-1.4258,-1.443,-1.4535,-1.459,-1.4883,-1.5191,-1.543,-1.5968,-1.6327,-1.6562,-1.6786,-1.6877,-1.6872,-1.6942,-1.6942,-1.6942,-2.0138,-1.9931,-1.9732,-1.9732,-1.9524,-1.9346,-1.9397,-1.963,-1.9844,-1.9897,-1.992,-1.9919,-1.9897,-1.9707,-1.954,-1.954,-1.954,-1.9764,-2.027,-2.027,-2.0155,-1.9866,-1.9873,-1.9758,-1.954,-1.929,-1.8937,-1.8546,-1.802,-1.7561,-1.7226,-1.6955,-1.6783,-1.6802,-1.6943,-1.7209,-1.755,-1.7528,-1.7695,-1.7969,-1.7766,-1.7655,-1.7655,-1.7655,-1.7485,-1.7197,-1.7197,-1.7015,-1.6773,-1.6773,-1.6773,-1.6714,-1.6655,-1.6596,-1.6543,-1.6253,-1.62,-1.6205,-1.62,-1.5453,-1.452,-1.3771,-1.3285,-1.2827,-1.2278,-1.2114,-1.1896,-1.1345,-1.1021,-1.0747,-1.0476,-1.0123,-0.9787,-0.9482,-0.9358,-0.9234,-0.9019,0.0,-0.9677,-0.9727,-1.0167,-1.0627,-1.1048,-1.1166,-1.1452,-1.2167,-1.2233,-1.243,-1.2906,-1.2697,-1.2588,-1.2547,-1.2989,-1.3171,-1.2935,-1.2441,-1.244,-1.2935,-1.2857,-1.3231,-1.3966,-1.4193,-1.4411,-1.4595,-1.465,-1.4836,-1.512,-1.534,-1.5632,-1.5862,-1.6082,-1.6164,-1.6169,-1.6494,-1.6564,-1.6629,-1.9901,-1.968,-1.948,-1.948,-1.9376,-1.9279,-1.9279,-1.9603,-1.9706,-1.9365,-1.9625,-1.9695,-1.9334,-1.9381,-1.9424,-1.9424,-1.9424,-1.954,-1.9822,-1.9822,-1.9764,-1.9591,-1.9591,-1.954,-1.9424,-1.9052,-1.8777,-1.843,-1.7864,-1.7415,-1.7139,-1.6712,-1.6477,-1.649,-1.6446,-1.6551,-1.6818,-1.6795,-1.6948,-1.7191,-1.7009,-1.695,-1.695,-1.695,-1.6897,-1.672,-1.672,-1.6655,-1.6478,-1.6478,-1.6478,-1.6478,-1.6307,-1.6253,-1.6194,-1.5715,-1.5537,-1.5537,-1.5537,-1.4782,-1.3863,-1.3583,-1.2976,-1.2332,-1.206,-1.1732,-1.1459,-1.1181,-1.0747,-1.0472,-1.0312,-0.9926,-0.9519,-0.9439,-0.9295,-0.9162,-0.9079,-0.9301,-0.9509,-0.9658,-1.0014,-1.0404,-1.0801,-1.0912,-1.1198,-1.1659,-1.173,-1.1866,-1.2227,-1.2084,-1.2018,-1.1946,-1.2223,-1.2332,-1.2223,-1.1896,-1.1891,-1.2151,-1.2183,-1.2495,-1.2917,-1.3311,-1.3644,-1.3868,-1.4232,-1.4471,-1.4585,-1.5098,-1.5362,-1.5499,-1.5837,-1.5974,-1.6039,-1.6169,-1.6234,-1.6234,-1.9464,-1.9376,-1.9279,-1.9279,-1.9279,-1.9279,-1.9279,-1.9536,-1.9515,-1.8985,-1.936,-1.9507,-1.8968,-1.9192,-1.9424,-1.9424,-1.9424,-1.9366,-1.9301,-1.9301,-1.9307,-1.9424,-1.9307,-1.9301,-1.9301,-1.8939,-1.8622,-1.8337,-1.7848,-1.7433,-1.71,-1.6555,-1.63,-1.6253,-1.5971,-1.5978,-1.6169,-1.6201,-1.6308,-1.6478,-1.6478,-1.6478,-1.6478,-1.6478,-1.6478,-1.6425,-1.6425,-1.6326,-1.6217,-1.6217,-1.6177,-1.6074,-1.5792,-1.5733,-1.5616,-1.5018,-1.4782,-1.4729,-1.4785,-1.4159,-1.3455,-1.3292,-1.2604,-1.1951,-1.1841,-1.1459,-1.1072,-1.0966,-1.0527,-1.0147,-1.0091,-0.9651,-0.927,-0.9323,0.0,-0.903,-0.9088,-0.9171,-0.9276,-0.9485,-0.9795,-1.0172,-1.0527,-1.0745,-1.1032,-1.134,-1.1353,-1.1419,-1.1614,-1.1623,-1.1514,-1.1404,-1.1514,-1.1568,-1.1459,-1.1459,-1.1459,-1.1514,-1.1715,-1.1907,-1.2091,-1.2588,-1.2963,-1.3204,-1.3748,-1.3992,-1.4146,-1.4812,-1.5052,-1.5097,-1.554,-1.5714,-1.5779,-1.5844,-1.5909,-1.5909,-1.892,-1.9118,-1.9279,-1.9279,-1.9279,-1.9279,-1.9279,-1.9294,-1.9208,-1.8963,-1.9171,-1.9209,-1.8948,-1.9192,-1.9424,-1.9424,-1.9424,-1.9243,-1.8939,-1.8939,-1.9062,-1.9366,-1.912,-1.8939,-1.8939,-1.859,-1.8281,-1.8008,-1.7754,-1.7428,-1.7098,-1.6466,-1.6236,-1.6186,-1.6115,-1.6063,-1.6097,-1.6347,-1.6461,-1.6478,-1.6478,-1.6478,-1.6478,-1.6478,-1.6371,-1.6146,-1.6146,-1.5761,-1.5278,-1.5278,-1.518,-1.4991,-1.4707,-1.4593,-1.4541,-1.4204,-1.3861,-1.3672,-1.3926,-1.3755,-1.3307,-1.2552,-1.2169,-1.1837,-1.1291,-1.1126,-1.0966,-1.0472,-1.0091,-0.9761,-0.9489,-0.9158,-0.8889,-0.8787,0.0,0.0,-0.8559,-0.8752,-0.8912,-0.8968,-0.9433,-0.9906,-1.0379,-1.0728,-1.108,-1.1533,-1.1601,-1.1555,-1.1623,-1.1623,-1.135,-1.0802,-1.1295,-1.1459,-1.1126,-1.1126,-1.1126,-1.1131,-1.1325,-1.1681,-1.2091,-1.2413,-1.2785,-1.3204,-1.3264,-1.3444,-1.3781,-1.4199,-1.4375,-1.4413,-1.4835,-1.4996,-1.4996,-1.5398,-1.5533,-1.5593,-1.9004,-1.9037,-1.9038,-1.9242,-1.9279,-1.9279,-1.9279,-1.9279,-1.9107,-1.8636,-1.8977,-1.9119,-1.8693,-1.9085,-1.9307,-1.912,-1.912,-1.8946,-1.859,-1.859,-1.8655,-1.8777,-1.8655,-1.859,-1.859,-1.8311,-1.8085,-1.7985,-1.7338,-1.6912,-1.6804,-1.614,-1.5902,-1.5913,-1.588,-1.5872,-1.5831,-1.5906,-1.5952,-1.5952,-1.5952,-1.5952,-1.5952,-1.5952,-1.5774,-1.5461,-1.5317,-1.503,-1.4639,-1.4505,-1.4401,-1.4323,-1.421,-1.421,-1.4096,-1.3583,-1.3179,-1.2879,-1.2723,-1.2711,-1.2636,-1.2165,-1.1718,-1.14,-1.1126,-1.0962,-1.0747,-1.0366,-1.0036,-0.9706,-0.9434,-0.8989,-0.8637,-0.8581,0.0,-0.8333,-0.8493,-0.8598,-0.8764,-0.915,-0.9363,-0.9706,-1.0256,-1.0431,-1.0677,-1.1017,-1.0911,-1.0802,-1.0802,-1.0582,-1.0363,-1.0143,-1.0363,-1.0417,-1.0308,-1.0308,-1.0308,-1.0308,-1.0599,-1.0948,-1.1282,-1.1818,-1.2194,-1.2599,-1.3024,-1.3264,-1.3407,-1.3882,-1.4199,-1.434,-1.4633,-1.4758,-1.4936,-1.5066,-1.5132,-1.5132,-1.884,-1.8851,-1.8855,-1.9081,-1.9206,-1.9279,-1.9279,-1.9279,-1.9063,-1.8475,-1.8877,-1.9022,-1.8532,-1.8931,-1.9143,-1.8926,-1.8874,-1.8706,-1.8305,-1.8188,-1.8188,-1.8421,-1.8305,-1.8246,-1.8246,-1.796,-1.779,-1.7673,-1.7065,-1.6686,-1.6559,-1.6051,-1.5811,-1.5811,-1.5627,-1.5524,-1.5476,-1.5349,-1.5304,-1.5304,-1.5304,-1.5304,-1.5304,-1.5304,-1.5121,-1.4911,-1.4743,-1.4445,-1.4174,-1.3952,-1.3831,-1.3775,-1.3663,-1.3494,-1.327,-1.2871,-1.2528,-1.2219,-1.175,-1.177,-1.1886,-1.1715,-1.1393,-1.1076,-1.0966,-1.0857,-1.0582,-1.0202,-0.9981,-0.9706,-0.9323,-0.8819,-0.8484,-0.8484,-0.8211,-0.81,-0.8322,-0.8429,-0.865,-0.9044,-0.9265,-0.9544,-0.9981,-1.0091,-1.0202,-1.0417,-1.0257,-1.0147,-1.0147,-0.9757,-0.9537,-0.9537,-0.9316,-0.9261,-0.9261,-0.9596,-0.9761,-0.9651,-0.9981,-1.038,-1.082,-1.1224,-1.1708,-1.2234,-1.2779,-1.3084,-1.3218,-1.3798,-1.4128,-1.4331,-1.4548,-1.4692,-1.4866,-1.4866,-1.4866,-1.4866,-1.827,-1.8498,-1.8782,-1.8789,-1.906,-1.9324,-1.9279,-1.9279,-1.9063,-1.8475,-1.8695,-1.8794,-1.8512,-1.8751,-1.8924,-1.8913,-1.8874,-1.8655,-1.8025,-1.7667,-1.7778,-1.8363,-1.8142,-1.7972,-1.7972,-1.7667,-1.7309,-1.7026,-1.7026,-1.6844,-1.6478,-1.62,-1.6087,-1.6087,-1.5418,-1.5116,-1.5056,-1.4769,-1.4595,-1.4595,-1.4595,-1.4595,-1.4595,-1.4595,-1.4595,-1.456,-1.4387,-1.4164,-1.3952,-1.3775,-1.3497,-1.3261,-1.2989,-1.2495,-1.2005,-1.2005,-1.1787,-1.1514,-1.1181,-1.1072,-1.1072,-1.1072,-1.1072,-1.1021,-1.0747,-1.0692,-1.0527,-0.9926,-0.9816,-0.9596,-0.8992,-0.8657,-0.8484,-0.8484,-0.8211,-0.7989,-0.7989,-0.8263,-0.8484,-0.8484,-0.9044,-0.9379,-0.9379,-0.9651,-0.9816,-0.9816,-0.9816,-0.9816,-0.9761,-0.9203,-0.8865,-0.8865,-0.8318,-0.7989,-0.7989,-0.9206,-0.9651,-0.9379,-0.9651,-1.0152,-1.0763,-1.082,-1.1302,-1.2238,-1.2539,-1.29,-1.3218,-1.3798,-1.4128,-1.4331,-1.4548,-1.4692,-1.4866,-1.4866,-1.4866,-1.4866,-1.8504,-1.8428,-1.8459,-1.8759,-1.8869,-1.9016,-1.9242,-1.9279,-1.9063,-1.8475,-1.8695,-1.8794,-1.8512,-1.8513,-1.8568,-1.8564,-1.8369,-1.8077,-1.7667,-1.7543,-1.7596,-1.7772,-1.7661,-1.7667,-1.7667,-1.7315,-1.7079,-1.7026,-1.6554,-1.6318,-1.6194,-1.5655,-1.5418,-1.5359,-1.4942,-1.4769,-1.4769,-1.465,-1.4595,-1.4595,-1.4595,-1.4595,-1.4595,-1.4595,-1.4376,-1.4089,-1.3813,-1.3482,-1.3109,-1.2882,-1.2711,-1.2604,-1.2332,-1.2114,-1.1896,-1.1509,-1.1291,-1.1181,-1.0911,-1.0802,-1.0802,-1.0802,-1.0802,-1.0802,-1.0692,-1.0527,-1.0308,-0.9871,-0.9651,-0.932,-0.8709,-0.8377,-0.81,-0.7881,-0.7601,-0.749,-0.7715,-0.7826,-0.7937,-0.81,-0.8543,-0.8816,-0.9037,-0.9316,-0.9596,-0.9761,-0.9423,-0.8982,-0.8543,-0.8374,-0.8263,-0.8263,-0.81,-0.7989,-0.7989,-0.8377,-0.8598,-0.8764,-0.9037,-0.9532,-1.0189,-1.059,-1.1067,-1.1571,-1.2118,-1.2539,-1.2909,-1.3273,-1.3807,-1.4317,-1.4383,-1.4624,-1.4866,-1.4866,-1.4866,-1.4866,-1.8401,-1.8268,-1.8245,-1.8385,-1.8621,-1.8855,-1.9052,-1.9147,-1.8959,-1.8475,-1.8485,-1.8555,-1.8499,-1.8351,-1.8267,-1.8383,-1.8018,-1.7726,-1.7485,-1.7485,-1.7426,-1.7315,-1.7309,-1.7309,-1.7309,-1.7079,-1.6908,-1.6613,-1.6259,-1.5963,-1.572,-1.5294,-1.5056,-1.4883,-1.459,-1.4416,-1.4411,-1.4291,-1.4232,-1.4232,-1.4232,-1.4232,-1.4232,-1.4232,-1.4035,-1.3645,-1.3432,-1.3107,-1.2734,-1.2512,-1.2332,-1.2223,-1.206,-1.1841,-1.1568,-1.1185,-1.1017,-1.0852,-1.0637,-1.0527,-1.0527,-1.0363,-1.0417,-1.0527,-1.0363,-1.0202,-1.0036,-0.9706,-0.9489,-0.921,-0.8598,-0.8208,-0.7934,-0.7662,-0.7379,-0.7265,-0.7438,-0.7549,-0.766,-0.7826,-0.81,-0.8374,-0.8537,-0.8709,-0.8933,-0.9096,-0.8761,-0.8374,-0.8045,-0.7881,-0.7826,-0.7826,-0.7712,-0.7712,-0.7712,-0.7712,-0.7931,-0.8484,-0.8647,-0.9139,-0.9903,-1.0362,-1.0832,-1.1333,-1.1937,-1.2419,-1.2719,-1.3084,-1.3624,-1.4312,-1.4312,-1.4563,-1.4866,-1.4866,-1.4866,-1.4866,-1.8179,-1.815,-1.813,-1.7856,-1.8328,-1.876,-1.8789,-1.8868,-1.8757,-1.8422,-1.8174,-1.8136,-1.8445,-1.8187,-1.808,-1.8339,-1.7818,-1.7485,-1.7485,-1.7485,-1.7309,-1.702,-1.6967,-1.6961,-1.6908,-1.6908,-1.6672,-1.6087,-1.6022,-1.572,-1.5116,-1.5056,-1.4883,-1.4535,-1.4291,-1.4172,-1.4112,-1.3808,-1.3688,-1.3629,-1.3629,-1.3629,-1.3629,-1.3629,-1.3492,-1.3276,-1.3078,-1.2871,-1.2706,-1.2452,-1.2223,-1.2005,-1.1946,-1.1564,-1.1072,-1.1072,-1.0857,-1.0637,-1.0366,-1.0257,-1.0202,-0.9871,-0.9981,-1.0147,-0.9871,-0.9761,-0.9706,-0.9434,-0.9379,-0.9154,-0.8543,-0.8208,-0.7881,-0.7607,-0.7379,-0.721,-0.721,-0.7438,-0.7551,-0.7551,-0.7826,-0.7989,-0.7989,-0.7989,-0.7989,-0.7989,-0.7989,-0.7934,-0.7934,-0.7715,-0.7551,-0.7551,-0.7324,-0.721,-0.721,-0.721,-0.7598,-0.8429,-0.8429,-0.8917,-0.9845,-1.0131,-1.0656,-1.1273,-1.1877,-1.2359,-1.2659,-1.3024,-1.3563,-1.4249,-1.4312,-1.4563,-1.4866,-1.4866,-1.4866,-1.4866,-1.8179,-1.8101,-1.8042,-1.782,-1.8145,-1.8496,-1.8752,-1.8868,-1.8757,-1.8422,-1.8174,-1.8054,-1.8103,-1.7793,-1.7722,-1.8065,-1.7713,-1.7485,-1.7485,-1.7256,-1.7079,-1.7026,-1.672,-1.649,-1.6318,-1.6318,-1.6205,-1.6087,-1.5601,-1.5235,-1.511,-1.4644,-1.4351,-1.4291,-1.3933,-1.3808,-1.3808,-1.3444,-1.3324,-1.3264,-1.3024,-1.2904,-1.2904,-1.2904,-1.2686,-1.2374,-1.2329,-1.2262,-1.2174,-1.2128,-1.206,-1.1896,-1.1455,-1.1185,-1.1072,-1.0857,-1.0582,-1.0366,-1.0312,-1.0091,-0.9816,-0.9544,-0.9544,-0.9655,-0.9761,-0.9651,-0.9489,-0.9434,-0.9044,-0.8598,-0.8156,-0.7881,-0.7604,-0.7324,-0.721,-0.721,-0.721,-0.7265,-0.7268,-0.7268,-0.7549,-0.7662,-0.7662,-0.7881,-0.7934,-0.7715,-0.7662,-0.7604,-0.7376,-0.7321,-0.7268,-0.7268,-0.721,-0.721,-0.721,-0.721,-0.7379,-0.7771,-0.7989,-0.847,-0.9149,-0.9957,-1.0538,-1.097,-1.1583,-1.2066,-1.2354,-1.2659,-1.3258,-1.3931,-1.4182,-1.4563,-1.4866,-1.4866,-1.4866,-1.4866,-1.8226,-1.8087,-1.8,-1.76,-1.7984,-1.8357,-1.8525,-1.8605,-1.8593,-1.8422,-1.8062,-1.7868,-1.8016,-1.7582,-1.739,-1.7571,-1.7386,-1.7346,-1.7473,-1.7197,-1.6903,-1.6785,-1.6484,-1.6194,-1.5844,-1.5844,-1.5844,-1.5844,-1.5359,-1.4997,-1.4823,-1.4411,-1.4112,-1.3933,-1.3629,-1.3449,-1.3444,-1.3084,-1.2964,-1.296,-1.2779,-1.2719,-1.2719,-1.2719,-1.2478,-1.2082,-1.2082,-1.195,-1.1787,-1.1787,-1.1678,-1.1514,-1.1181,-1.1017,-1.0852,-1.0747,-1.0527,-1.0257,-1.0091,-0.9816,-0.9541,-0.9213,-0.9158,-0.9213,-0.932,-0.9268,-0.9103,-0.8989,-0.8709,-0.8374,-0.7881,-0.7718,-0.7493,-0.7265,-0.721,-0.721,-0.721,-0.721,-0.7154,-0.6988,-0.7104,-0.7104,-0.6996,-0.7104,-0.7107,-0.6996,-0.6998,-0.694,-0.6771,-0.6771,-0.6771,-0.6771,-0.6879,-0.6935,-0.6935,-0.7099,-0.7268,-0.7438,-0.7823,-0.8301,-0.8916,-0.9726,-1.0362,-1.0849,-1.1341,-1.182,-1.2238,-1.2419,-1.2887,-1.3613,-1.3931,-1.4308,-1.467,-1.4866,-1.4866,-1.4866,-1.8319,-1.8133,-1.7947,-1.7473,-1.7823,-1.824,-1.8249,-1.8288,-1.8314,-1.8311,-1.7898,-1.7682,-1.7889,-1.7414,-1.7103,-1.7041,-1.7026,-1.7135,-1.74,-1.7067,-1.6738,-1.6537,-1.6194,-1.5903,-1.5601,-1.5601,-1.5601,-1.5537,-1.518,-1.4823,-1.4535,-1.4237,-1.3933,-1.3629,-1.3324,-1.3144,-1.3084,-1.2779,-1.2599,-1.2599,-1.2539,-1.2543,-1.2543,-1.2543,-1.2327,-1.2015,-1.198,-1.1781,-1.1514,-1.1514,-1.1345,-1.1072,-1.1072,-1.0857,-1.0692,-1.0692,-1.0476,-1.0147,-0.9871,-0.9544,-0.9268,-0.8995,-0.8881,-0.8826,-0.8826,-0.8826,-0.8768,-0.8484,-0.8377,-0.8211,-0.7718,-0.7551,-0.7438,-0.721,-0.7154,-0.7099,-0.7099,-0.7102,-0.6935,-0.6659,-0.6659,-0.655,-0.633,-0.6274,-0.6274,-0.6274,-0.6274,-0.6274,-0.6274,-0.6274,-0.6274,-0.6274,-0.6548,-0.6715,-0.6715,-0.7043,-0.721,-0.721,-0.7788,-0.8323,-0.8858,-0.9583,-1.0273,-1.0849,-1.1152,-1.1635,-1.2118,-1.2178,-1.2576,-1.3236,-1.3551,-1.3984,-1.4338,-1.4604,-1.4735,-1.4735,-1.8566,-1.828,-1.7994,-1.7721,-1.779,-1.7887,-1.7973,-1.8016,-1.8077,-1.8035,-1.7799,-1.7595,-1.7642,-1.7346,-1.7028,-1.6786,-1.6754,-1.6863,-1.7129,-1.6564,-1.6315,-1.6467,-1.5952,-1.5661,-1.5601,-1.5601,-1.5477,-1.5175,-1.4823,-1.453,-1.4237,-1.3933,-1.3569,-1.3264,-1.3204,-1.3024,-1.2719,-1.2419,-1.2298,-1.2238,-1.201,-1.1893,-1.1893,-1.1893,-1.1762,-1.1557,-1.1392,-1.1274,-1.1185,-1.1185,-1.1126,-1.1072,-1.0857,-1.0747,-1.0692,-1.0692,-1.0308,-0.9871,-0.9816,-0.9375,-0.894,-0.8885,-0.8712,-0.8543,-0.8543,-0.8543,-0.8488,-0.8156,-0.7881,-0.7718,-0.7607,-0.7438,-0.7265,-0.721,-0.6935,-0.6771,-0.6771,-0.655,-0.6386,-0.6386,-0.633,-0.633,-0.633,-0.6274,-0.6274,-0.6274,-0.6274,-0.6274,-0.6274,-0.6274,-0.6274,-0.6274,-0.6548,-0.6715,-0.6715,-0.7043,-0.721,-0.7213,-0.7942,-0.8359,-0.8564,-0.9631,-1.0323,-1.0849,-1.1152,-1.1522,-1.1893,-1.2122,-1.2454,-1.2918,-1.3236,-1.3601,-1.3945,-1.401,-1.4006,-1.4006,-1.862,-1.828,-1.804,-1.7768,-1.7753,-1.777,-1.7631,-1.7817,-1.7972,-1.7808,-1.7646,-1.7582,-1.7582,-1.7171,-1.6771,-1.6496,-1.6465,-1.6579,-1.6857,-1.6379,-1.616,-1.6268,-1.5821,-1.5601,-1.5601,-1.5601,-1.5359,-1.4823,-1.465,-1.4471,-1.4172,-1.3873,-1.3509,-1.3204,-1.3024,-1.2719,-1.2419,-1.2126,-1.201,-1.1949,-1.1837,-1.1776,-1.1776,-1.1776,-1.1663,-1.1464,-1.1179,-1.1023,-1.0857,-1.0857,-1.0857,-1.0857,-1.0747,-1.0692,-1.0692,-1.0692,-1.0253,-0.9816,-0.9816,-0.9379,-0.8881,-0.8712,-0.8598,-0.8429,-0.81,-0.7989,-0.7937,-0.7826,-0.7662,-0.7551,-0.7382,-0.7102,-0.6935,-0.6935,-0.6659,-0.6495,-0.6495,-0.6386,-0.6219,-0.6049,-0.5882,-0.5772,-0.5772,-0.5772,-0.5772,-0.5772,-0.5772,-0.5772,-0.5772,-0.5772,-0.5772,-0.5772,-0.6216,-0.6495,-0.6495,-0.6935,-0.721,-0.7213,-0.8031,-0.8448,-0.8506,-0.9419,-1.0165,-1.0789,-1.097,-1.1341,-1.1837,-1.1949,-1.216,-1.2548,-1.2859,-1.3409,-1.3875,-1.3875,-1.3875,-1.3875]},{"header":{"parameterUnit":"m.s-1","parameterCategory":1,"la1":30.6,"la2":28.766,"lo1":-90.7593,"lo2":-88.6598,"dy":0.0162,"dx":0.0183,"nx":116,"ny":114,"refTime":"2023-06-05T00:00:00:Z","depth":0,"parameterNumber":3,"parameterNumberName":"V-component_of_WINDS"},"data":[0.0,0.0,0.0,0.0,0.0,0.0,0.0,0.0,0.0,0.0,0.0,0.0,0.0,0.0,0.0,0.0,0.0,0.0,0.0,0.0,0.0,0.0,0.0,0.0,0.0,0.0,0.0,0.0,0.0,0.0,0.0,0.0,0.0,0.0,0.0,0.0,0.0,0.0,0.0,0.0,0.0,0.0,0.0,0.0,0.0,0.0,0.0,0.0,0.0,0.0,0.0,0.0,0.0,0.0,0.0,0.0,0.0,0.0,0.0,0.0,0.0,0.0,0.0,0.0,0.0,0.0,0.0,0.0,0.0,0.0,0.0,0.0,0.0,0.0,0.0,0.0,0.0,0.0,0.0,0.0,0.0,0.0,0.0,0.0,0.0,0.0,0.0,0.0,0.0,0.0,0.0,0.0,0.0,0.0,0.0,0.0,0.0,0.0,0.0,0.0,0.0,0.0,0.0,0.0,0.0,0.0,0.0,0.0,0.0,0.0,0.0,0.0,0.0,0.0,0.0,0.0,0.0,0.0,0.0,0.0,0.0,0.0,0.0,0.0,0.0,0.0,0.0,0.0,0.0,0.0,0.0,0.0,0.0,0.0,0.0,0.0,0.0,0.0,0.0,0.0,0.0,0.0,0.0,0.0,0.0,0.0,0.0,0.0,0.0,0.0,0.0,0.0,0.0,0.0,0.0,0.0,0.0,0.0,0.0,0.0,0.0,0.0,0.0,0.0,0.0,0.0,0.0,0.0,0.0,0.0,0.0,0.0,0.0,0.0,0.0,0.0,0.0,0.0,0.0,0.0,0.0,0.0,0.0,0.0,0.0,0.0,0.0,0.0,0.0,0.0,0.0,0.0,0.0,0.0,0.0,0.0,0.0,0.0,0.0,0.0,0.0,0.0,0.0,0.0,0.0,0.0,0.0,0.0,0.0,0.0,0.0,0.0,0.0,0.0,0.0,0.0,0.0,0.0,0.0,0.0,0.0,0.0,0.0,0.0,0.0,0.0,0.0,0.0,0.0,0.0,0.0,0.0,0.0,0.0,0.0,0.0,0.0,0.0,0.0,0.0,0.0,0.0,0.0,0.0,0.0,0.0,0.0,0.0,0.0,0.0,0.0,0.0,0.0,0.0,0.0,0.0,0.0,0.0,0.0,0.0,0.0,0.0,0.0,0.0,0.0,0.0,0.0,0.0,0.0,0.0,0.0,0.0,0.0,0.0,0.0,0.0,0.0,0.0,0.0,0.0,0.0,0.0,0.0,0.0,0.0,0.0,0.0,0.0,0.0,0.0,0.0,0.0,0.0,0.0,0.0,0.0,0.0,0.0,0.0,0.0,0.0,0.0,0.0,0.0,0.0,0.0,0.0,0.0,0.0,0.0,0.0,0.0,0.0,0.0,0.0,0.0,0.0,0.0,0.0,0.0,0.0,0.0,0.0,0.0,0.0,0.0,0.0,0.0,0.0,0.0,0.0,0.0,0.0,0.0,0.0,0.0,0.0,0.0,0.0,0.0,0.0,0.0,0.0,0.0,0.0,0.0,0.0,0.0,0.0,0.0,0.0,0.0,0.0,0.0,0.0,0.0,0.0,0.0,0.0,0.0,0.0,0.0,0.0,0.0,0.0,0.0,0.0,0.0,0.0,0.0,0.0,0.0,0.0,0.0,0.0,0.0,0.0,0.0,0.0,0.0,0.0,0.0,0.0,0.0,0.0,0.0,0.0,0.0,0.0,0.0,0.0,0.0,0.0,0.0,0.0,0.0,0.0,0.0,0.0,0.0,0.0,0.0,0.0,0.0,0.0,0.0,0.0,0.0,0.0,0.0,0.0,0.0,0.0,0.0,0.0,0.0,0.0,0.0,0.0,0.0,0.0,0.0,0.0,0.0,0.0,0.0,0.0,0.0,0.0,0.0,0.0,0.0,0.0,0.0,0.0,0.0,0.0,0.0,0.0,0.0,0.0,0.0,0.0,0.0,0.0,0.0,0.0,0.0,0.0,0.0,0.0,0.0,0.0,0.0,0.0,0.0,0.0,0.0,0.0,0.0,0.0,0.0,0.0,0.0,0.0,0.0,0.0,0.0,0.0,0.0,0.0,0.0,0.0,0.0,0.0,0.0,0.0,0.0,0.0,0.0,0.0,0.0,0.0,0.0,0.0,0.0,0.0,0.0,0.0,0.0,0.0,0.0,0.0,0.0,0.0,0.0,0.0,0.0,0.0,0.0,0.0,0.0,0.0,0.0,0.0,0.0,0.0,0.0,0.0,0.0,0.0,0.0,0.0,0.0,0.0,0.0,0.0,0.0,0.0,0.0,0.0,0.0,0.0,0.0,0.0,0.0,0.0,0.0,0.0,0.0,0.0,0.0,0.0,0.0,0.0,0.0,0.0,0.0,0.0,0.0,0.0,0.0,0.0,0.0,0.0,0.0,0.0,0.0,0.0,0.0,0.0,0.0,0.0,0.0,0.0,0.0,0.0,0.0,0.0,0.0,0.0,0.0,0.0,0.0,0.0,0.0,0.0,0.0,0.0,0.0,0.0,0.0,0.0,0.0,0.0,0.0,0.0,0.0,0.0,0.0,0.0,0.0,0.0,0.0,0.0,0.0,0.0,0.0,0.0,0.0,0.0,0.0,0.0,0.0,0.0,0.0,0.0,0.0,0.0,0.0,0.0,0.0,0.0,0.0,0.0,0.0,0.0,0.0,0.0,0.0,0.0,0.0,0.0,0.0,0.0,0.0,0.0,0.0,0.0,0.0,0.0,0.0,0.0,0.0,0.0,0.0,0.0,0.0,0.0,0.0,0.0,0.0,0.0,0.0,0.0,0.0,0.0,0.0,0.0,0.0,0.0,0.0,0.0,0.0,0.0,0.0,0.0,0.0,0.0,0.0,0.0,0.0,0.0,0.0,0.0,0.0,0.0,0.0,0.0,0.0,0.0,0.0,0.0,0.0,0.0,0.0,0.0,0.0,0.0,0.0,0.0,0.0,0.0,0.0,0.0,0.0,0.0,0.0,0.0,0.0,0.0,0.0,0.0,0.0,0.0,0.0,0.0,0.0,0.0,0.0,0.0,0.0,0.0,0.0,0.0,0.0,0.0,0.0,0.0,0.0,0.0,0.0,0.0,0.0,0.0,0.0,0.0,0.0,0.0,0.0,0.0,0.0,0.0,0.0,0.0,0.0,0.0,0.0,0.0,0.0,0.0,0.0,0.0,0.0,0.0,0.0,0.0,0.0,0.0,0.0,0.0,0.0,0.0,0.0,0.0,0.0,0.0,0.0,0.0,0.0,0.0,0.0,0.0,0.0,0.0,0.0,0.0,0.0,0.0,0.0,0.0,0.0,0.0,0.0,0.0,0.0,0.0,0.0,0.0,0.0,0.0,0.0,0.0,0.0,0.0,0.0,0.0,0.0,0.0,0.0,0.0,0.0,0.0,0.0,0.0,0.0,0.0,0.0,0.0,0.0,0.0,0.0,0.0,0.0,0.0,0.0,0.0,0.0,0.0,0.0,0.0,0.0,0.0,0.0,0.0,0.0,0.0,0.0,0.0,0.0,0.0,0.0,0.0,0.0,0.0,0.0,0.0,0.0,0.0,0.0,0.0,0.0,0.0,0.0,0.0,0.0,0.0,0.0,0.0,0.0,0.0,0.0,0.0,0.0,0.0,0.0,0.0,0.0,0.0,0.0,0.0,0.0,0.0,0.0,0.0,0.0,0.0,0.0,0.0,0.0,0.0,0.0,0.0,0.0,0.0,0.0,0.0,0.0,0.0,0.0,0.0,0.0,0.0,0.0,0.0,0.0,0.0,0.0,0.0,0.0,0.0,0.0,0.0,0.0,0.0,0.0,0.0,0.0,0.0,0.0,0.0,0.0,0.0,0.0,0.0,0.0,0.0,0.0,0.0,0.0,0.0,0.0,0.0,0.0,0.0,0.0,0.0,0.0,0.0,0.0,0.0,0.0,0.0,0.0,0.0,0.0,0.0,0.0,0.0,0.0,0.0,0.0,0.0,0.0,0.0,0.0,0.0,0.0,0.0,0.0,0.0,0.0,0.0,0.0,0.0,0.0,0.0,0.0,0.0,0.0,0.0,0.0,0.0,0.0,0.0,0.0,0.0,0.0,0.0,0.0,0.0,0.0,0.0,0.0,0.0,0.0,0.0,0.0,0.0,0.0,0.0,0.0,0.0,0.0,0.0,0.0,0.0,0.0,0.0,0.0,0.0,0.0,0.0,0.0,0.0,0.0,0.0,0.0,0.0,0.0,0.0,0.0,0.0,0.0,0.0,0.0,0.0,0.0,0.0,0.0,0.0,0.0,0.0,0.0,0.0,0.0,0.0,0.0,0.0,0.0,0.0,0.0,0.0,0.0,0.0,0.0,0.0,0.0,0.0,0.0,0.0,0.0,0.0,0.0,0.0,0.0,0.0,0.0,0.0,0.0,0.0,0.0,0.0,0.0,0.0,0.0,0.0,0.0,0.0,0.0,0.0,0.0,0.0,0.0,0.0,0.0,0.0,0.0,0.0,0.0,0.0,0.0,0.0,0.0,0.0,0.0,0.0,0.0,0.0,0.0,0.0,0.0,0.0,0.0,0.0,0.0,0.0,0.0,0.0,0.0,0.0,0.0,0.0,0.0,0.0,0.0,0.0,0.0,0.0,0.0,0.0,0.0,0.0,0.0,0.0,0.0,0.0,0.0,0.0,0.0,0.0,0.0,0.0,0.0,0.0,0.0,0.0,0.0,0.0,0.0,0.0,0.0,0.0,0.0,0.0,0.0,0.0,0.0,0.0,0.0,0.0,0.0,0.0,0.0,0.0,0.0,0.0,0.0,0.0,0.0,0.0,0.0,0.0,0.0,0.0,0.0,0.0,0.0,0.0,0.0,0.0,0.0,0.0,0.0,0.0,0.0,0.0,0.0,0.0,0.0,0.0,0.0,0.0,0.0,0.0,0.0,0.0,0.0,0.0,0.0,0.0,0.0,0.0,0.0,0.0,0.0,0.0,0.0,0.0,0.0,0.0,0.0,0.0,0.0,0.0,0.0,0.0,0.0,0.0,0.0,0.0,0.0,0.0,0.0,0.0,0.0,0.0,0.0,0.0,0.0,0.0,0.0,0.0,0.0,0.0,0.0,0.0,0.0,0.0,0.0,0.0,0.0,0.0,0.0,0.0,0.0,0.0,0.0,0.0,0.0,0.0,0.0,0.0,0.0,0.0,0.0,0.0,0.0,0.0,0.0,0.0,0.0,0.0,0.0,0.0,0.0,0.0,0.0,0.0,0.0,0.0,0.0,0.0,0.0,0.0,0.0,0.0,0.0,0.0,0.0,0.0,0.0,0.0,0.0,0.0,0.0,0.0,0.0,0.0,0.0,0.0,0.0,0.0,0.0,0.0,0.0,0.0,0.0,0.0,0.0,0.0,0.0,0.0,0.0,0.0,0.0,0.0,0.0,0.0,0.0,0.0,0.0,0.0,0.0,0.0,0.0,0.0,0.0,0.0,0.0,0.0,0.0,0.0,0.0,0.0,0.0,0.0,0.0,0.0,0.0,0.0,0.0,0.0,0.0,0.0,0.0,0.0,0.0,0.0,0.0,0.0,0.0,0.0,0.0,0.0,0.0,0.0,0.0,0.0,0.0,0.0,0.0,0.0,0.0,0.0,0.0,0.0,0.0,0.0,0.0,0.0,0.0,0.0,0.0,0.0,0.0,0.0,0.0,0.0,0.0,0.0,0.0,0.0,0.0,0.0,0.0,0.0,0.0,0.0,0.0,0.0,0.0,0.0,0.0,0.0,0.0,0.0,0.0,0.0,0.0,0.0,0.0,0.0,0.0,0.0,0.0,0.0,0.0,0.0,0.0,0.0,0.0,0.0,0.0,0.0,0.0,0.0,0.0,0.0,0.0,0.0,0.0,0.0,0.0,0.0,0.0,0.0,0.0,0.0,0.0,0.0,0.0,0.0,0.0,0.0,0.0,0.0,0.0,0.0,0.0,0.0,0.0,0.0,0.0,0.0,0.0,0.0,0.0,0.0,0.0,0.0,0.0,0.0,0.0,0.0,0.0,0.0,0.0,0.0,0.0,0.0,0.0,0.0,0.0,0.0,0.0,0.0,0.0,0.0,0.0,3.2889,3.2335,0.0,0.0,0.0,0.0,0.0,0.0,0.0,0.0,0.0,0.0,0.0,0.0,0.0,0.0,0.0,0.0,0.0,0.0,0.0,0.0,0.0,0.0,0.0,0.0,0.0,0.0,0.0,0.0,0.0,0.0,0.0,0.0,0.0,0.0,0.0,0.0,0.0,2.9117,2.9962,3.0844,3.1669,3.1288,3.0282,2.8737,0.0,0.0,0.0,0.0,0.0,0.0,0.0,0.0,0.0,0.0,0.0,0.0,0.0,0.0,0.0,0.0,0.0,0.0,0.0,0.0,0.0,0.0,0.0,0.0,0.0,0.0,0.0,0.0,0.0,0.0,0.0,0.0,0.0,0.0,0.0,0.0,0.0,0.0,0.0,0.0,0.0,0.0,0.0,0.0,0.0,0.0,0.0,0.0,0.0,0.0,0.0,0.0,0.0,0.0,0.0,0.0,0.0,0.0,0.0,0.0,0.0,0.0,0.0,0.0,0.0,0.0,0.0,0.0,0.0,0.0,3.5085,3.4215,0.0,0.0,0.0,0.0,0.0,0.0,0.0,0.0,0.0,0.0,0.0,0.0,0.0,0.0,0.0,0.0,0.0,0.0,0.0,0.0,0.0,0.0,0.0,2.8756,2.9001,2.9484,2.9492,2.9579,0.0,0.0,0.0,0.0,0.0,0.0,2.9295,2.9872,3.029,3.0572,3.1892,3.3201,3.4499,3.4724,3.3537,3.1233,3.107,0.0,0.0,0.0,0.0,0.0,0.0,0.0,0.0,0.0,0.0,0.0,0.0,0.0,0.0,0.0,0.0,0.0,0.0,0.0,0.0,0.0,0.0,0.0,0.0,0.0,0.0,0.0,0.0,0.0,0.0,0.0,0.0,0.0,0.0,0.0,0.0,0.0,0.0,0.0,0.0,0.0,0.0,0.0,0.0,0.0,0.0,0.0,0.0,0.0,0.0,0.0,0.0,0.0,0.0,0.0,0.0,0.0,0.0,0.0,0.0,0.0,0.0,0.0,3.9168,3.9171,3.9171,3.9275,3.9277,3.9138,3.7055,3.6031,3.5825,3.565,0.0,0.0,0.0,0.0,0.0,0.0,0.0,0.0,0.0,0.0,0.0,0.0,0.0,0.0,0.0,0.0,0.0,0.0,0.0,0.0,0.0,2.975,3.028,3.0802,3.1297,3.1543,3.1419,0.0,0.0,0.0,0.0,0.0,3.048,3.0999,3.1664,3.242,3.4195,3.5125,3.5368,3.5551,3.5429,3.504,3.4176,3.3531,3.3055,0.0,0.0,0.0,0.0,0.0,0.0,0.0,0.0,0.0,0.0,0.0,0.0,0.0,0.0,0.0,0.0,0.0,0.0,0.0,0.0,0.0,0.0,0.0,0.0,0.0,0.0,0.0,0.0,0.0,0.0,0.0,0.0,0.0,0.0,0.0,0.0,0.0,0.0,0.0,0.0,0.0,3.6691,3.6714,0.0,0.0,0.0,0.0,0.0,0.0,0.0,0.0,0.0,0.0,0.0,0.0,0.0,4.0192,4.0192,4.0192,4.0192,4.0192,4.0648,4.0742,4.0548,4.1074,4.1212,4.0948,4.0314,0.0,3.8344,3.8543,0.0,0.0,0.0,0.0,0.0,0.0,0.0,0.0,0.0,0.0,0.0,0.0,0.0,0.0,0.0,0.0,0.0,0.0,0.0,0.0,0.0,3.1403,3.1915,3.2159,3.2246,3.2245,3.2163,3.1936,0.0,0.0,0.0,3.1805,3.186,3.256,3.3587,3.4998,3.6114,3.6903,3.7383,3.8186,3.8339,3.7992,3.7938,3.6713,3.4673,3.4297,0.0,0.0,0.0,0.0,0.0,0.0,0.0,0.0,0.0,0.0,0.0,0.0,0.0,0.0,0.0,0.0,0.0,0.0,0.0,0.0,0.0,0.0,0.0,0.0,0.0,0.0,0.0,0.0,0.0,0.0,0.0,0.0,0.0,0.0,0.0,0.0,0.0,0.0,0.0,3.7695,3.7896,3.8287,3.8594,3.8861,0.0,0.0,0.0,0.0,0.0,0.0,0.0,0.0,0.0,4.0827,4.1194,4.1576,4.2056,4.207,4.2328,4.2797,4.3053,4.3125,4.2977,4.3245,4.3316,4.3189,4.3084,4.2667,4.1987,4.0469,3.9749,3.9512,0.0,0.0,0.0,0.0,3.8938,3.8983,0.0,0.0,0.0,0.0,0.0,0.0,0.0,0.0,0.0,0.0,0.0,0.0,3.204,3.2796,3.3256,3.3256,3.315,3.3092,3.2995,3.2749,3.2525,3.2348,3.278,3.3192,3.3561,3.4416,3.5543,3.695,3.7872,3.8685,3.9379,4.0549,4.09,4.0532,4.1039,3.9486,3.6446,3.6106,3.5494,3.4699,0.0,0.0,0.0,0.0,0.0,0.0,0.0,0.0,0.0,0.0,0.0,0.0,0.0,0.0,0.0,0.0,0.0,0.0,0.0,0.0,0.0,0.0,0.0,0.0,0.0,0.0,0.0,0.0,0.0,0.0,0.0,0.0,0.0,0.0,0.0,0.0,0.0,3.9046,3.9295,4.0035,4.011,4.0285,0.0,0.0,0.0,0.0,0.0,0.0,4.1032,4.1685,4.2089,4.2089,4.2668,4.3292,4.395,4.395,4.4266,4.4902,4.4902,4.4902,4.4902,4.4902,4.4902,4.4902,4.4902,4.4902,4.4702,4.232,4.1382,4.1368,4.1106,4.1032,4.1019,4.1044,4.1082,4.1129,0.0,0.0,0.0,0.0,0.0,0.0,0.0,0.0,0.0,0.0,0.0,3.2193,3.2873,3.3551,3.395,3.395,3.4445,3.4633,3.4312,3.4279,3.4403,3.4596,3.4668,3.4996,3.5653,3.662,3.7274,3.7565,3.9357,4.0497,4.0921,4.1788,4.2421,4.2736,4.2767,4.1428,3.9062,3.8353,3.7678,3.7092,3.6489,0.0,0.0,0.0,0.0,0.0,0.0,0.0,0.0,0.0,0.0,0.0,0.0,0.0,0.0,0.0,0.0,0.0,0.0,0.0,0.0,0.0,0.0,0.0,0.0,0.0,0.0,0.0,0.0,0.0,0.0,0.0,0.0,0.0,0.0,0.0,0.0,0.0,0.0,4.1676,4.1759,0.0,0.0,0.0,0.0,4.1801,4.2385,4.2656,4.2656,4.3773,4.4408,4.4408,4.4987,4.5368,4.5396,4.5409,4.5423,4.5451,4.5451,4.5451,4.5451,4.5451,4.5451,4.5451,4.5451,4.5451,4.5396,4.4412,4.4026,4.3916,4.3003,4.2656,4.2633,4.2053,4.1846,4.1846,0.0,0.0,0.0,0.0,0.0,0.0,0.0,0.0,3.0439,3.153,3.2344,3.3118,3.3882,3.5038,3.5794,3.5939,3.6324,3.651,3.6408,3.6153,3.593,3.5775,3.579,3.6093,3.6729,3.7904,3.8816,3.9408,4.0768,4.1626,4.2057,4.3309,4.3744,4.3446,4.4008,4.3521,4.2252,4.0892,3.9915,3.9143,3.8096,3.7128,0.0,0.0,0.0,0.0,0.0,0.0,0.0,0.0,0.0,0.0,0.0,0.0,0.0,0.0,0.0,0.0,0.0,0.0,0.0,0.0,0.0,0.0,0.0,0.0,0.0,0.0,0.0,0.0,0.0,0.0,0.0,0.0,0.0,0.0,0.0,0.0,0.0,4.2606,4.2551,0.0,4.2937,4.2979,4.3191,4.3606,4.3841,4.4132,4.4519,4.4947,4.5182,4.5182,4.539,4.5779,4.6331,4.6331,4.664,4.7145,4.7145,4.7145,4.7145,4.7145,4.7145,4.7195,4.7381,4.7417,4.7375,4.6855,4.6021,4.4993,4.465,4.4533,4.4553,4.4682,4.4741,4.4788,0.0,0.0,0.0,0.0,0.0,0.0,0.0,0.0,3.1012,3.2406,3.3108,3.3844,3.4901,3.6099,3.6862,3.7008,3.7397,3.762,3.7499,3.7243,3.7004,3.685,3.7054,3.7361,3.7784,3.8986,3.9905,4.0514,4.1884,4.2784,4.3252,4.4531,4.5001,4.4804,4.5387,4.5442,4.4996,4.3633,4.2388,4.1264,4.0438,3.9458,3.8512,0.0,0.0,0.0,0.0,0.0,0.0,0.0,0.0,0.0,0.0,0.0,0.0,0.0,0.0,0.0,0.0,0.0,0.0,0.0,0.0,0.0,0.0,0.0,0.0,0.0,0.0,0.0,0.0,0.0,0.0,0.0,0.0,0.0,0.0,4.297,4.3285,4.3726,4.3868,4.4022,4.4414,4.4637,4.4979,4.5412,4.544,4.5622,4.6028,4.6238,4.635,4.635,4.6546,4.6903,4.7509,4.7523,4.7785,4.8373,4.8373,4.8373,4.8373,4.8373,4.8373,4.8358,4.8545,4.8645,4.8617,4.8403,4.7631,4.6615,4.621,4.6042,4.6091,4.6446,4.6591,4.6639,0.0,0.0,0.0,0.0,0.0,0.0,0.0,3.0474,3.1915,3.3593,3.3804,3.4363,3.5821,3.6628,3.7038,3.7038,3.7661,3.7937,3.7593,3.7558,3.767,3.7919,3.8509,3.8833,3.8848,3.9891,4.0559,4.0773,4.272,4.395,4.4578,4.5419,4.6207,4.6876,4.6927,4.703,4.7168,4.6451,4.515,4.3551,4.3469,4.2341,4.0727,0.0,0.0,0.0,0.0,0.0,0.0,0.0,0.0,0.0,0.0,0.0,0.0,0.0,0.0,0.0,0.0,0.0,0.0,0.0,0.0,0.0,0.0,0.0,0.0,0.0,0.0,0.0,0.0,0.0,0.0,0.0,0.0,0.0,4.4274,4.4269,4.4526,4.5081,4.5738,4.6138,4.6138,4.6728,4.71,4.7114,4.7114,4.7129,4.7143,4.7715,4.8044,4.8044,4.8595,4.8895,4.8895,4.8895,4.8895,4.8895,4.8895,4.8895,4.8895,4.8895,4.8895,4.8895,4.8895,4.8895,4.8895,4.8895,4.8895,4.883,4.7615,4.7143,4.7143,4.7143,4.7191,4.7239,0.0,0.0,0.0,0.0,0.0,0.0,0.0,3.063,3.2003,3.3593,3.3804,3.4394,3.5964,3.7201,3.7969,3.8067,3.9072,3.9608,3.9554,3.9259,3.8981,3.8765,3.8928,3.9312,3.9957,4.0853,4.1797,4.2781,4.3991,4.4871,4.5451,4.5949,4.6439,4.6927,4.7064,4.7217,4.742,4.7291,4.6978,4.6383,4.4826,4.3882,4.3397,0.0,0.0,0.0,0.0,0.0,0.0,0.0,0.0,0.0,0.0,0.0,0.0,0.0,0.0,0.0,0.0,0.0,0.0,0.0,0.0,0.0,0.0,0.0,0.0,0.0,0.0,0.0,0.0,0.0,0.0,0.0,4.5126,4.5285,4.5215,4.5706,4.6145,4.6304,4.663,4.6828,4.6828,4.6986,4.7272,4.7729,4.7758,4.7958,4.8366,4.8552,4.8638,4.8638,4.8809,4.8895,4.8895,4.8895,4.8895,4.8895,4.8895,4.8895,4.8895,4.8895,4.8895,4.8895,4.9108,4.9207,4.9207,4.9389,4.9488,4.9395,4.8671,4.8395,4.8444,4.864,4.8933,4.932,0.0,0.0,0.0,0.0,0.0,0.0,0.0,3.0687,3.2062,3.3668,3.388,3.4501,3.6136,3.7318,3.7995,3.806,3.9238,3.9937,3.9818,3.9829,3.9732,3.9481,3.9481,3.9854,4.0609,4.1583,4.2585,4.3608,4.4734,4.5484,4.5936,4.6349,4.6754,4.7183,4.7336,4.7554,4.7787,4.7869,4.7968,4.7917,4.6684,4.5865,4.5358,4.5144,4.4783,4.4311,4.3792,4.3243,4.2696,4.2282,0.0,0.0,0.0,0.0,0.0,0.0,0.0,0.0,0.0,0.0,0.0,0.0,0.0,0.0,0.0,0.0,0.0,0.0,0.0,0.0,0.0,0.0,0.0,0.0,4.6277,4.6528,4.681,4.7021,4.7247,4.7524,4.789,4.8126,4.8126,4.834,4.8658,4.9021,4.8953,4.9014,4.9375,4.9291,4.9242,4.9242,4.9242,4.9242,4.9242,4.9242,4.9242,4.9242,4.9242,4.9242,4.9242,4.9242,4.9242,4.9242,4.9389,4.9551,4.9649,4.9781,4.9926,4.999,0.0,0.0,0.0,0.0,5.0004,5.0294,0.0,0.0,0.0,0.0,0.0,0.0,0.0,3.0687,3.2061,3.3682,3.3969,3.4622,3.6199,3.7046,3.7507,3.7507,3.8677,3.9315,3.9207,3.9706,4.0031,4.0011,4.0046,4.0416,4.1161,4.2155,4.3034,4.3828,4.5165,4.59,4.6156,4.6684,4.7098,4.752,4.7654,4.7902,4.8195,4.826,4.8388,4.8547,4.8578,4.7875,4.6844,4.6812,4.6352,4.5664,4.555,4.5454,4.5325,4.5243,0.0,0.0,0.0,0.0,0.0,0.0,0.0,0.0,0.0,0.0,0.0,0.0,0.0,0.0,0.0,0.0,0.0,0.0,0.0,0.0,0.0,0.0,0.0,0.0,4.7474,4.797,4.8633,4.8313,4.8176,4.8707,4.925,4.9601,4.9601,5.0147,5.0501,5.0501,5.0294,5.0135,5.0135,4.9926,0.0,0.0,0.0,4.9732,4.9717,4.9717,4.9717,4.9717,4.9717,4.9732,4.9732,4.9732,4.9781,4.9781,4.9781,4.9926,5.0135,5.0135,5.0294,5.0486,5.0246,5.0135,5.0183,5.0486,5.0596,5.0596,0.0,0.0,0.0,0.0,0.0,0.0,0.0,3.0687,3.1911,3.3045,3.3651,3.4439,3.5553,3.6769,3.7507,3.7507,3.8246,3.8824,3.9176,3.9845,4.0172,4.0011,4.0261,4.1003,4.2268,4.2767,4.3774,4.5384,4.5672,4.6044,4.6528,4.6772,4.7098,4.7504,4.7803,4.8049,4.8227,4.8549,4.8769,4.8909,4.9015,4.8759,4.8295,4.8186,4.8102,4.7948,4.7268,4.6878,4.6621,4.6105,4.5765,4.5559,4.5379,4.5247,0.0,0.0,0.0,0.0,0.0,0.0,0.0,0.0,0.0,0.0,0.0,0.0,0.0,0.0,0.0,0.0,0.0,0.0,0.0,4.7466,4.8191,4.8968,4.9622,5.0093,5.0155,4.9679,5.0053,5.0309,5.0309,5.0427,5.0501,5.0501,5.0453,5.0405,5.0405,5.0342,5.0246,5.0038,5.0038,4.9926,4.9717,4.9717,4.9717,4.9717,4.9717,0.0,5.0038,5.0038,5.0135,5.0342,5.0342,5.0342,5.0405,5.0405,5.0567,5.0728,5.0534,5.0405,5.0486,5.0899,5.1073,5.1135,0.0,0.0,0.0,0.0,0.0,0.0,0.0,3.0402,3.1461,3.2716,3.3257,3.3831,3.4756,3.5845,3.6492,3.6492,3.7415,3.8398,3.9296,3.9695,4.0048,4.0385,4.0558,4.133,4.2813,4.322,4.4193,4.5807,4.6064,4.6404,4.6772,4.7064,4.7352,4.7621,4.7951,4.8195,4.8356,4.8675,4.8925,4.9124,4.9168,4.9182,4.9182,4.9046,4.9046,4.904,4.8623,4.8318,4.8096,4.7774,4.7533,4.7326,4.6957,4.684,4.672,0.0,0.0,0.0,0.0,0.0,0.0,0.0,0.0,0.0,0.0,0.0,0.0,0.0,0.0,4.8213,4.8113,0.0,4.8908,4.88,4.9662,5.0441,5.0601,5.1151,5.1303,5.0828,5.0926,5.0994,5.0852,5.0867,5.0867,5.0867,5.071,5.0647,5.0647,5.0534,5.0453,5.0294,5.0294,5.0246,5.0086,5.0086,5.0086,5.0086,5.0086,5.0183,5.0294,5.0294,5.0342,5.0501,5.0501,5.0581,5.0662,5.0947,5.112,5.1199,5.1244,5.115,5.1088,5.1463,5.1602,5.1664,0.0,0.0,0.0,0.0,0.0,0.0,0.0,3.0028,3.0953,3.2236,3.2715,3.3225,3.389,3.4711,3.5277,3.543,3.6568,3.7798,3.9013,3.937,3.9822,4.0582,4.0771,4.1526,4.2931,4.3331,4.4171,4.5504,4.6131,4.6562,4.675,4.7287,4.7604,4.7704,4.8098,4.8356,4.8515,4.8738,4.897,4.9199,4.9229,4.9441,4.9679,4.9637,4.9607,4.9637,4.9637,4.95,4.935,4.935,4.9229,4.8992,4.8412,4.8209,4.8073,4.7339,4.6942,0.0,0.0,0.0,0.0,0.0,0.0,0.0,0.0,4.8936,4.9188,4.9095,4.9213,4.9358,4.9346,4.996,5.0393,5.0341,5.1141,5.1682,5.1475,5.1819,5.2033,5.1772,5.1726,5.1587,5.1369,5.1308,5.1261,5.1261,5.1011,5.0855,5.0855,5.071,5.0629,5.0581,5.0581,5.0534,5.0501,5.0501,5.0501,5.0501,5.0501,5.0501,5.0581,5.0581,5.0581,5.0629,5.0677,5.0805,5.0996,5.1494,5.168,5.1726,5.2033,5.2017,5.1818,5.2078,5.2139,5.2124,0.0,0.0,0.0,0.0,0.0,0.0,0.0,0.0,3.0623,3.0983,3.2054,3.2912,3.3119,3.3756,3.4455,3.5187,3.5983,3.6812,3.7677,3.8846,3.9622,3.9885,4.0658,4.1494,4.2466,4.2792,4.3443,4.4359,4.5377,4.6004,4.6222,4.7209,4.7671,4.7737,4.8227,4.8483,4.8515,4.8846,4.9063,4.9229,4.9381,4.956,4.9708,4.986,5.0005,5.0132,5.0132,4.9999,4.9808,4.9808,4.9649,4.9441,4.9355,4.9321,4.9185,4.845,4.8182,4.8123,4.7942,4.8669,4.9399,4.9305,4.9709,5.0074,0.0,5.0272,5.0585,5.0058,5.0477,5.0944,5.1025,5.0944,5.1058,5.1466,5.1779,5.1958,5.1915,5.2312,5.2518,5.2261,5.2048,5.1941,5.1895,5.1695,5.1541,5.1541,5.1308,5.1167,5.1167,5.112,5.1026,5.076,5.0775,5.0695,5.0501,5.0501,5.0501,5.0501,5.0501,5.0567,5.0775,5.0775,5.087,5.112,5.1354,5.1494,5.1541,5.1834,5.1941,5.1987,5.2443,5.2624,5.2578,5.2624,5.2624,5.2669,0.0,0.0,0.0,0.0,0.0,0.0,0.0,0.0,0.0,3.0033,3.0988,3.166,3.1702,3.2742,3.3696,3.4455,3.514,3.592,3.6766,3.7671,3.871,3.9942,4.032,4.1209,4.2665,4.2933,4.3484,4.4372,4.5013,4.5424,4.5653,4.6158,4.65,4.6613,4.693,4.7104,4.7135,4.7426,4.7622,4.7819,4.8068,4.8259,4.8421,4.8609,4.8733,4.8987,4.9888,5.0217,0.0,5.02,5.0114,5.0028,5.0028,5.0028,4.9976,4.9665,4.9522,4.9493,4.9641,5.0042,5.0453,5.0642,5.1139,5.148,5.1245,5.1573,5.194,5.201,5.2081,5.2221,5.2432,5.2501,5.2543,5.2455,5.2777,5.2928,5.2681,5.2796,5.2848,5.2548,5.2473,5.2307,5.2048,5.1895,5.1834,5.1834,5.1587,5.1448,5.1448,5.1261,5.1167,5.1058,5.1011,5.0979,5.0899,5.0914,5.0914,5.0914,5.0914,5.0932,5.1011,5.1011,5.1167,5.1448,5.1541,5.168,5.1834,5.2063,5.2246,5.2443,5.2803,5.3011,5.3084,5.3084,5.3084,5.3129,0.0,0.0,0.0,0.0,0.0,0.0,0.0,0.0,0.0,0.0,2.9973,3.0536,3.0702,3.1675,3.2684,3.3591,3.4091,3.4866,3.592,3.6609,3.7706,3.9399,3.9698,4.0568,4.2164,4.2459,4.3007,4.386,4.4464,4.4852,4.4997,4.5399,4.5656,4.5829,4.6001,4.611,4.611,4.6351,4.6561,4.6739,4.7003,4.7204,4.7381,4.7578,4.7727,4.8013,4.9149,4.9771,5.0046,5.0046,5.0185,5.0341,5.0341,5.0387,5.0415,5.0415,5.0487,5.0651,5.0954,5.1283,5.164,5.1945,5.2437,5.2769,5.2588,5.2707,5.2966,5.3468,5.3254,5.3126,5.3675,5.3841,5.3814,5.3518,5.3713,5.373,5.3352,5.3175,5.3026,5.2848,5.2758,5.2578,5.2216,5.2124,5.2063,5.2063,5.1834,5.1726,5.1726,5.1509,5.1369,5.1308,5.1308,5.1261,5.1214,5.1214,5.1214,5.1214,5.1214,5.1214,5.1308,5.1369,5.1509,5.1726,5.1772,5.1972,5.2216,5.2412,5.2683,5.2922,5.3204,5.3424,5.3596,5.364,5.364,5.3596,0.0,0.0,0.0,0.0,0.0,0.0,0.0,0.0,0.0,0.0,0.0,0.0,0.0,3.0537,3.1191,3.2688,3.2854,3.3531,3.511,3.5936,3.6783,3.7809,3.862,3.9467,4.0367,4.0896,4.1501,4.2173,4.3538,4.4227,4.4243,4.5294,4.5781,4.5829,4.6001,4.611,4.611,4.6246,4.6364,4.6544,4.6727,4.6903,4.7031,4.7381,4.7589,4.7738,4.7909,4.8484,4.9143,4.9143,4.9611,5.0217,5.0217,5.0302,5.0415,5.0415,5.0954,5.1563,5.1569,5.2513,5.3489,5.3387,5.3734,5.4074,5.3732,5.3517,5.35,5.3894,5.3654,5.37,5.4771,5.4652,5.4455,5.4704,5.437,5.4033,5.3789,5.3396,5.3071,5.3071,5.2848,5.2713,5.2669,5.2457,5.2306,5.2306,5.2109,5.2002,5.2002,5.1987,5.1849,5.1587,5.1587,5.1448,5.1214,5.1214,5.1214,5.1214,5.1214,5.1354,5.1587,5.1849,5.1987,5.1987,5.2185,5.2412,5.2713,5.2982,5.3188,5.3437,5.3687,5.3903,5.4087,5.4285,5.4242,5.4087,0.0,0.0,0.0,0.0,0.0,0.0,0.0,0.0,0.0,0.0,0.0,0.0,0.0,0.0,0.0,0.0,3.1643,3.2419,3.3516,3.4775,3.589,3.6894,3.7826,3.8811,3.9819,4.018,4.0555,4.0905,4.1606,4.1948,4.1948,4.2416,4.2621,4.2637,4.3191,4.3452,4.3498,4.4218,4.4537,4.461,4.4992,4.5223,4.5377,4.5608,4.5857,4.6057,0.0,4.7111,4.8447,4.8447,4.8968,4.9611,4.9704,5.009,5.0547,5.0692,5.1252,5.1941,5.2345,5.3177,5.4012,5.4365,5.4506,5.4491,5.4271,5.4093,5.402,5.426,5.4204,5.4391,5.5225,5.5027,5.4823,5.5133,5.4707,5.4215,5.4017,5.373,5.344,5.3131,5.3026,5.2893,5.2713,5.2608,5.2563,5.2563,5.2322,5.2185,5.2185,5.2078,5.1941,5.1895,5.1895,5.1849,5.1756,5.1756,5.1756,5.1756,5.1756,5.1803,5.1895,5.1941,5.2078,5.2231,5.2473,5.2698,5.2982,5.3188,5.3452,5.3687,5.3903,5.413,5.4327,5.4555,5.4697,5.4739,0.0,0.0,0.0,0.0,0.0,0.0,0.0,0.0,0.0,0.0,0.0,0.0,0.0,0.0,0.0,0.0,0.0,3.1436,3.2314,3.3517,3.4653,3.5646,3.6615,3.7592,3.8637,3.9198,3.9697,4.0182,4.0529,4.0723,4.0798,4.0942,4.0983,4.1,4.1491,4.1717,4.175,4.2387,4.2686,4.2774,4.3168,4.3378,4.353,4.3796,4.4167,0.0,4.4755,4.5776,4.7105,4.7453,4.8305,4.9229,4.9321,4.9936,5.0682,5.1179,5.1839,5.2565,5.3234,5.4011,5.4669,5.4974,5.4957,5.4834,5.4714,5.4477,5.4428,5.4803,5.4686,5.4731,5.5489,5.513,5.4863,5.5149,5.4736,5.432,5.421,5.4017,5.3773,5.3396,5.3292,5.3144,5.2966,5.2893,5.2803,5.2713,5.2563,5.2457,5.2457,5.2337,5.2216,5.2109,5.2109,5.2078,5.2002,5.2002,5.2002,5.2002,5.2078,5.2109,5.2109,5.2216,5.2382,5.2593,5.2758,5.3042,5.3396,5.3584,5.3785,5.4017,5.4274,5.447,5.4665,5.4822,5.5088,5.5335,0.0,0.0,0.0,0.0,0.0,0.0,0.0,0.0,0.0,0.0,0.0,0.0,0.0,0.0,0.0,0.0,0.0,0.0,3.1463,3.2299,3.3153,3.4087,3.497,3.5904,3.6873,3.7849,3.8817,3.9774,4.0091,4.0345,4.0541,4.0655,4.0758,4.0791,4.0823,4.0872,4.0905,4.0954,4.1025,4.1181,4.1373,4.1559,4.1722,4.2115,4.2726,4.3417,4.3913,4.4524,4.5272,4.6215,4.7654,4.9056,4.9143,4.9823,5.077,5.1713,5.2576,5.3348,5.4103,5.4893,5.5431,5.5259,5.5229,5.5169,5.5035,5.4745,5.4733,5.5408,5.4972,5.4736,5.5513,5.4991,5.4543,5.4831,5.4547,5.4325,5.4379,5.4226,5.4017,5.3833,5.3584,5.3421,5.3377,5.3233,5.3026,5.2743,5.2713,5.2713,5.2713,5.2713,5.2563,5.2352,5.2306,5.2231,5.2048,5.2048,5.2048,5.2048,5.2231,5.2306,5.2352,5.2608,5.2848,5.3071,5.3131,5.3396,5.3833,5.4017,5.4258,5.4454,5.4713,5.4922,5.5113,5.5113,5.5401,5.5742,0.0,0.0,0.0,0.0,0.0,0.0,0.0,0.0,0.0,0.0,0.0,0.0,0.0,0.0,0.0,0.0,0.0,0.0,3.0547,3.142,3.2312,3.3269,3.425,3.4976,3.5424,3.593,3.6378,3.6708,3.6918,3.7014,3.7086,3.7113,3.7431,3.7967,3.8466,3.8998,3.9562,4.0181,4.0556,4.0704,4.0896,4.1202,4.1559,4.1794,4.2152,4.2695,4.361,4.4137,4.4499,4.5422,4.6825,4.8414,4.967,5.0307,5.077,5.1713,5.2576,5.3348,5.4103,5.4893,5.5478,5.5431,5.5431,5.5371,5.5169,5.5079,5.4996,5.4799,5.4628,5.4541,5.4753,5.4384,5.417,5.4547,5.4418,5.4325,5.4325,5.4313,5.4242,5.406,5.3817,5.3627,5.3421,5.3349,5.3305,5.3217,5.2877,5.2713,5.2713,5.2713,5.2669,5.2608,5.2608,5.2563,5.2533,5.2533,5.2533,5.2533,5.2563,5.2608,5.2608,5.2893,5.3042,5.3115,5.3484,5.3773,5.4017,5.4258,5.447,5.4713,5.4964,5.5155,5.5344,5.5523,5.5766,5.6006,0.0,0.0,0.0,0.0,0.0,0.0,0.0,0.0,0.0,0.0,0.0,0.0,0.0,0.0,0.0,0.0,0.0,0.0,0.0,3.0131,3.1027,3.1917,3.2871,3.3677,3.4257,3.4883,3.5294,3.5518,3.5641,3.5735,3.5801,3.5801,3.6025,3.6442,3.681,3.721,3.7642,3.8126,3.8402,0.0,0.0,3.9502,3.9946,4.0519,4.1117,4.1731,4.2576,4.346,4.438,4.5535,4.6771,4.808,4.9788,5.0397,5.0774,5.2004,5.2765,5.3418,5.4542,5.5174,5.5507,5.5507,5.5507,5.5478,5.5354,5.5259,5.5139,5.4852,5.4652,5.4505,5.451,5.4042,5.3794,5.4189,5.4046,5.4003,5.4244,5.4341,5.4313,5.4253,5.413,5.3974,5.3742,5.3627,5.3584,5.3584,5.3233,5.3011,5.3011,5.3011,5.3011,5.3011,5.3011,5.3011,5.3011,5.3011,5.3011,5.3011,5.3011,5.3011,5.2995,5.3144,5.3292,5.344,5.3773,5.406,5.4258,5.4581,5.4822,5.4964,5.5278,5.5483,5.5588,5.5846,5.6046,5.6228,0.0,0.0,0.0,0.0,0.0,0.0,0.0,0.0,0.0,0.0,0.0,0.0,0.0,0.0,0.0,0.0,0.0,0.0,0.0,0.0,2.962,3.043,3.128,3.2211,3.3195,3.4022,3.4664,3.5082,3.5221,3.5343,3.5475,3.5475,3.5523,3.5575,3.5603,3.5667,3.5719,3.5746,3.5828,3.6039,3.6804,3.7373,3.7919,0.0,3.988,4.0745,4.1486,4.2859,4.4552,4.6105,4.7096,4.7986,4.9572,5.0215,5.0739,5.2444,5.307,5.3524,5.5086,5.5507,5.5507,5.5507,5.5507,5.5507,5.5507,5.5354,5.5229,5.5199,5.4852,5.4557,5.4512,5.3931,5.3534,5.3777,5.3587,5.3589,5.4108,5.4251,5.4309,5.4399,5.4433,5.437,5.4231,5.399,5.3876,5.3876,5.3612,5.3481,5.3377,5.3377,5.3377,5.3377,5.3377,5.3377,5.3377,5.3377,5.3377,5.3377,5.3377,5.3377,5.3377,5.3437,5.3584,5.3876,5.406,5.4285,5.4523,5.4931,5.5155,5.5237,5.5661,5.5823,5.5903,5.6086,5.6284,5.6424,0.0,0.0,0.0,0.0,0.0,0.0,0.0,0.0,0.0,0.0,2.4213,2.4715,0.0,0.0,0.0,0.0,0.0,0.0,0.0,0.0,0.0,2.9729,3.012,3.078,3.1747,3.2037,3.2609,3.3484,3.3511,3.3619,3.3736,3.3736,3.3968,3.4396,3.4505,3.4837,3.531,3.5407,3.5629,3.5849,3.5989,3.6761,3.7843,3.8275,0.0,0.0,4.1929,4.334,4.4535,4.6212,4.7178,4.79,4.9087,4.9882,5.0767,5.2604,5.3173,5.3524,5.5086,5.5507,5.5507,5.5507,5.5507,5.5507,5.5507,5.5478,5.5401,5.5229,5.5066,5.4838,5.4543,5.4028,5.3618,5.3484,5.3449,5.3427,5.3527,5.3987,5.4293,5.4301,5.4537,5.4713,5.4671,5.4444,5.4285,5.4285,5.4087,5.3829,5.3421,5.3377,5.3377,5.3377,5.3377,5.3377,5.3377,5.3377,5.3377,5.3377,5.3377,5.3377,5.3421,5.3643,5.386,5.406,5.4242,5.4581,5.4973,5.5072,5.5319,5.5702,5.5782,5.6006,5.6307,5.6346,5.6463,5.6658,0.0,0.0,0.0,0.0,0.0,0.0,0.0,2.4371,2.3886,2.2561,2.2804,2.3234,2.3632,2.4017,2.4557,0.0,0.0,0.0,0.0,0.0,0.0,2.8839,2.9267,2.9833,3.0662,3.0942,3.1321,3.1805,0.0,3.2049,3.21,3.2556,3.2919,3.3182,3.3598,3.3945,3.4238,3.4277,3.4451,3.475,3.5198,3.5898,3.6776,0.0,0.0,0.0,4.1673,4.2893,4.4023,4.5217,4.6377,4.7582,4.8864,4.9844,5.0746,5.2085,5.28,5.3464,5.4577,5.5191,5.5507,5.5507,5.5507,5.5402,5.4981,5.4893,5.4741,5.4262,5.4011,5.3943,5.41,5.3779,5.3502,5.3533,5.3396,5.3309,5.3404,5.3567,5.3828,5.4244,5.4446,5.4629,5.4765,5.4671,5.4613,5.4613,5.4528,5.4274,5.3785,5.3785,5.3785,5.3785,5.3785,5.3785,5.3785,5.3785,5.3785,5.3785,5.3785,5.3813,5.3927,5.4044,5.4231,5.4502,5.4681,5.489,5.5113,5.536,5.5621,5.5823,5.6006,5.6228,5.6424,5.6541,5.6619,5.6719,0.0,0.0,0.0,0.0,0.0,0.0,0.0,2.3499,2.3022,2.1791,2.1664,2.1914,2.2505,2.292,2.3625,0.0,0.0,0.0,0.0,0.0,0.0,0.0,0.0,0.0,2.978,0.0,0.0,3.0603,3.0842,0.0,0.0,0.0,0.0,0.0,3.2835,3.3166,3.3309,3.3319,3.3503,0.0,0.0,3.5168,3.5893,0.0,0.0,0.0,0.0,4.2418,4.3534,4.4262,4.5665,4.7265,4.8494,4.9587,5.0577,5.1567,5.2369,5.3102,5.3857,5.4524,5.5016,5.5016,5.5016,5.484,5.4208,5.4068,5.3892,5.3313,5.3041,5.3044,5.3478,5.342,5.3341,5.3491,5.3365,5.3243,5.3282,5.3208,5.3452,5.4189,5.4363,5.4592,5.4982,5.4964,5.4922,5.4854,5.4813,5.4645,5.4274,5.4231,5.4231,5.4231,5.4231,5.4231,5.4231,5.4231,5.4231,5.4231,5.4231,5.4343,5.4497,5.4497,5.4597,5.4896,5.5072,5.5196,5.5278,5.5685,5.5903,5.5966,5.6284,5.6424,5.6502,5.668,5.6757,5.6796,0.0,0.0,0.0,0.0,0.0,0.0,0.0,2.3188,2.2586,2.1242,2.118,2.1315,2.1515,2.2373,2.328,0.0,0.0,0.0,0.0,0.0,0.0,0.0,0.0,0.0,0.0,0.0,0.0,3.0603,3.0756,0.0,0.0,0.0,0.0,0.0,0.0,3.2734,3.3309,3.3424,0.0,0.0,0.0,0.0,0.0,0.0,0.0,0.0,0.0,4.2467,4.3516,4.4386,4.58,4.7211,4.7479,4.8496,4.9913,5.1493,5.2039,5.2295,5.3067,5.3377,5.3429,5.3429,5.3429,5.3394,5.3324,5.3306,5.3289,5.3218,5.3041,5.2887,5.2799,5.3056,5.3215,5.2936,5.3142,5.3281,5.2987,5.3183,5.3568,5.4152,5.4634,5.5126,5.5677,5.5483,5.5262,5.5072,5.488,5.4771,5.4729,5.4729,5.4729,5.4729,5.4729,5.4729,5.4729,5.4729,5.4729,5.4729,5.4729,5.4771,5.4771,5.4771,5.488,5.5072,5.5303,5.5507,5.5742,5.5966,5.6165,5.6346,5.6385,5.6502,5.6697,5.6911,5.6987,5.6987,0.0,0.0,0.0,0.0,0.0,0.0,2.3178,2.2911,2.243,2.1168,2.1106,2.1229,2.1277,2.1845,2.2585,2.3421,0.0,0.0,0.0,0.0,0.0,0.0,0.0,0.0,0.0,0.0,2.9009,2.9394,2.9517,0.0,0.0,0.0,0.0,0.0,0.0,3.2577,3.2863,3.3467,0.0,0.0,0.0,0.0,0.0,0.0,0.0,0.0,0.0,0.0,4.2919,4.3788,4.4928,4.6112,4.7099,4.8083,4.9127,5.0267,5.1277,5.2084,5.24,5.2822,5.3201,5.3201,5.3201,5.305,5.2593,5.2488,5.2348,5.1891,5.1758,5.1742,5.194,5.2125,5.2373,5.2903,5.2931,5.2959,5.3163,5.3049,5.3108,5.3655,5.4211,5.4722,5.5287,5.5625,5.579,5.5726,5.5645,5.5564,5.5564,5.5088,5.4813,5.4813,5.4813,5.4813,5.4813,5.4813,5.4813,5.4813,5.4813,5.4838,5.5005,5.5113,5.5278,5.5523,5.5709,5.587,5.6006,5.6205,5.6307,5.6424,5.6658,5.6796,5.6911,5.7101,5.7176,5.7214,0.0,0.0,0.0,0.0,0.0,2.3935,2.291,2.2565,2.2061,2.1055,2.1033,2.1131,2.1131,2.1544,2.2092,2.2764,2.3861,0.0,0.0,0.0,0.0,0.0,0.0,0.0,0.0,0.0,2.8468,2.8597,2.8747,2.8834,0.0,0.0,3.0046,3.0315,0.0,0.0,0.0,0.0,0.0,0.0,0.0,0.0,0.0,0.0,0.0,0.0,0.0,0.0,0.0,0.0,0.0,4.5326,4.6625,4.7573,4.838,4.9398,5.0645,5.1681,5.1681,5.2084,5.2534,5.2534,5.2534,5.2365,5.1803,5.1681,5.154,5.0996,5.0891,5.0967,5.1122,5.1343,5.1772,5.265,5.2699,5.2818,5.3331,5.3041,5.2977,5.3515,5.4043,5.4583,5.5117,5.5739,5.6086,5.6086,5.6086,5.6086,5.6086,5.5539,5.5171,5.5171,5.5171,5.5171,5.5171,5.5171,5.5171,5.5171,5.5171,5.5237,5.5401,5.5548,5.5726,5.5903,5.6086,5.6205,5.6205,5.6463,5.658,5.6619,5.6949,5.7101,5.7101,5.7327,5.7402,5.7439,0.0,0.0,0.0,0.0,0.0,0.0,2.2696,2.1983,2.1315,2.0777,2.0873,2.0997,2.0997,2.1496,2.1926,2.2184,2.3605,0.0,0.0,0.0,0.0,0.0,0.0,0.0,0.0,0.0,2.8468,2.8597,2.8747,2.8834,2.8904,2.9175,2.9702,3.0434,0.0,0.0,0.0,0.0,0.0,0.0,0.0,0.0,0.0,0.0,0.0,0.0,0.0,0.0,0.0,0.0,0.0,0.0,0.0,4.674,4.7696,4.9267,5.0259,5.0908,5.0908,5.0908,5.0908,5.0908,5.0908,5.0908,5.0908,5.0908,5.0908,5.0891,5.0891,5.0809,5.0471,5.0996,5.1616,5.1963,5.2435,5.2946,5.3348,5.3281,5.3396,5.3924,5.4481,5.4994,5.5554,5.5895,5.6086,5.6086,5.6086,5.6086,5.6086,5.6086,5.6086,5.6086,5.6086,5.6086,5.6086,5.6086,5.6086,5.6086,5.6086,5.6086,5.6086,5.6086,5.6086,5.6126,5.6307,5.6385,5.6424,5.6834,5.6987,5.7025,5.7214,5.7289,5.7327,5.7514,5.7588,5.7625,0.0,0.0,0.0,0.0,0.0,0.0,0.0,2.1691,2.116,2.0627,2.0775,2.0949,2.0997,2.1399,2.1793,2.2184,2.3605,0.0,0.0,0.0,0.0,0.0,0.0,0.0,0.0,0.0,2.8612,2.8747,2.8834,2.8982,2.9175,2.9259,2.9523,2.9971,3.1282,3.214,0.0,0.0,0.0,0.0,0.0,0.0,3.8391,0.0,0.0,0.0,0.0,0.0,0.0,0.0,0.0,0.0,0.0,0.0,0.0,4.8154,4.9125,5.0215,5.0733,5.0891,5.0891,5.0891,5.0891,5.0891,5.0891,5.0891,5.0891,5.0891,5.0891,5.0792,5.0471,5.0606,5.1038,5.1981,5.2211,5.2623,5.3662,5.3534,5.3365,5.3429,5.4236,5.5251,5.6462,5.6509,5.6502,5.6502,5.6502,5.6502,5.6502,5.6502,5.6385,5.6126,5.6086,5.6086,5.6086,5.6086,5.6086,5.6086,5.6086,5.6086,5.6086,5.6228,5.6323,5.6307,5.6641,5.6796,5.6834,5.7101,5.7214,5.7214,5.7439,5.7514,5.7514,5.7735,5.7808,5.7808,0.0,0.0,0.0,0.0,0.0,0.0,0.0,2.1311,2.0772,2.0538,2.0662,2.0837,2.0997,2.135,2.1746,2.2161,2.3605,0.0,0.0,0.0,0.0,0.0,0.0,0.0,2.8259,2.8493,2.866,2.8794,2.8928,2.9082,2.9305,2.9396,2.9698,3.0206,3.1554,3.2429,0.0,0.0,0.0,0.0,0.0,0.0,3.8617,0.0,0.0,0.0,0.0,0.0,0.0,0.0,0.0,0.0,0.0,0.0,0.0,0.0,4.831,4.9195,5.0162,5.0662,5.0891,5.0891,5.0891,5.0891,5.0891,5.0891,5.0891,5.0891,5.0891,5.0792,5.0471,5.0415,5.0806,5.1989,5.2083,5.2492,5.3873,5.3733,5.3653,5.4004,5.4632,5.5572,5.6967,5.6987,5.6911,5.6911,5.6911,5.6911,5.6911,5.6911,5.6796,5.658,5.6424,5.6346,5.6424,5.6424,5.6463,5.6541,5.6541,5.6541,5.658,5.668,5.6719,5.6757,5.6987,5.7101,0.0,5.7327,5.7402,5.7439,5.7625,5.7698,5.7735,5.7918,5.7991,5.8027,0.0,0.0,0.0,0.0,0.0,0.0,0.0,2.0898,2.0233,2.0436,2.0536,2.0698,2.0934,2.1326,2.1722,2.2137,0.0,0.0,0.0,0.0,0.0,0.0,0.0,0.0,2.8396,2.8541,2.8684,2.8818,2.9021,2.9167,2.9328,2.9592,3.0141,3.0956,3.1972,3.2978,0.0,0.0,0.0,0.0,3.6306,3.7288,0.0,0.0,0.0,0.0,0.0,0.0,0.0,0.0,0.0,0.0,0.0,0.0,0.0,0.0,0.0,0.0,0.0,5.0215,5.0847,5.0873,5.0891,5.0891,5.0891,5.0891,0.0,5.0891,5.0891,5.0792,5.0471,5.0415,5.0806,5.1989,5.2114,5.2537,5.3984,5.3898,5.4144,5.5284,5.5398,5.5898,5.7193,5.7327,5.7289,5.7289,5.7289,5.7289,5.7289,5.7289,5.7289,5.7289,5.6949,5.6834,5.7025,5.7025,5.7101,5.7289,5.7289,5.7289,5.7289,5.7289,5.7289,5.7289,5.7327,5.7327,5.7327,5.7551,5.7625,5.7625,5.7845,5.7918,5.7971,5.8152,5.8224,5.826,0.0,0.0,0.0,0.0,0.0,0.0,0.0,0.0,0.0,0.0,2.0347,2.0574,2.0673,2.1044,2.1471,0.0,0.0,0.0,0.0,0.0,0.0,0.0,0.0,0.0,2.8565,2.8684,2.8803,2.8873,2.9144,2.9305,2.9473,2.9671,3.0303,3.1236,3.2187,3.3567,0.0,0.0,0.0,0.0,3.7059,3.8005,0.0,0.0,0.0,0.0,4.1714,4.1819,0.0,0.0,0.0,0.0,0.0,0.0,0.0,0.0,4.7459,4.8103,4.8876,0.0,5.0251,5.076,5.0891,5.0891,0.0,5.0891,5.0891,5.0891,5.0891,5.0792,5.0471,5.0415,5.0806,5.1989,5.2157,5.263,5.4016,5.3898,5.4177,5.546,5.5505,5.597,5.7399,5.7402,5.7289,5.7289,5.7289,5.7289,5.7289,5.7289,5.7289,5.7289,5.7214,5.7176,5.7214,5.7214,5.7252,5.7289,5.7289,5.7289,5.7289,5.7289,5.7289,5.7327,5.7476,5.7514,5.7551,5.7735,5.7808,5.7845,5.8044,5.8116,5.8152,5.8384,5.8419,5.8455,0.0,0.0,0.0,0.0,0.0,0.0,0.0,0.0,0.0,0.0,0.0,0.0,0.0,0.0,0.0,0.0,0.0,0.0,0.0,0.0,0.0,0.0,0.0,2.8332,2.8597,2.8747,2.8873,2.899,2.9259,2.948,2.9643,2.9804,3.0636,3.2012,3.3406,3.4667,0.0,0.0,0.0,0.0,3.7457,0.0,0.0,0.0,0.0,0.0,4.1884,4.1948,0.0,4.3864,4.4467,4.4822,0.0,0.0,0.0,0.0,4.7209,4.7749,4.8731,4.9468,5.0152,5.0814,5.0998,5.0972,5.0918,5.0891,5.0891,5.0891,5.0891,5.0792,5.0471,5.0693,5.1188,5.2058,5.2528,5.3105,5.4068,5.4271,5.4703,5.5721,5.5986,5.6468,5.7634,5.7625,5.7588,5.7588,5.7588,5.7588,5.7588,5.7588,5.7588,5.7588,5.7588,5.7514,5.7439,5.7439,5.7476,5.7588,5.7588,5.7588,5.7588,5.7588,5.7588,5.7588,5.7698,5.7735,5.7735,5.7954,5.8044,5.808,5.826,5.8331,5.8367,5.8561,5.8631,5.8631,0.0,0.0,0.0,0.0,0.0,0.0,0.0,0.0,0.0,0.0,0.0,0.0,0.0,0.0,0.0,0.0,0.0,0.0,0.0,0.0,0.0,0.0,2.8113,2.8332,2.8636,2.8747,2.8897,2.9121,2.9382,2.9598,2.9793,2.9957,3.1002,3.2835,3.4746,3.5756,0.0,0.0,0.0,3.6631,3.7728,0.0,0.0,0.0,0.0,0.0,0.0,0.0,0.0,4.3999,4.4599,4.4936,4.6525,0.0,0.0,0.0,0.0,0.0,4.8793,4.9597,5.0191,5.0955,5.1105,5.1079,5.0945,5.0918,5.0891,5.0891,5.0891,5.0827,5.061,5.1065,5.1709,5.2283,5.3063,5.3725,5.4136,5.4728,5.5314,5.591,5.6465,5.7087,5.7814,5.7881,5.7881,5.7881,5.7881,5.7881,5.7881,5.7881,5.7881,5.7881,5.7881,5.7808,5.7662,5.7662,5.7735,5.7881,5.7881,5.7881,5.7881,5.7881,5.7918,5.7971,5.7971,5.7954,5.7991,5.8188,5.826,5.826,5.849,5.8561,5.8561,5.8736,5.8806,5.884,0.0,0.0,0.0,0.0,0.0,0.0,0.0,0.0,0.0,0.0,0.0,0.0,0.0,0.0,0.0,0.0,0.0,0.0,0.0,0.0,0.0,2.7595,2.8014,2.8381,2.8771,2.8794,2.8944,2.9282,2.9412,2.9598,2.981,3.0044,3.1198,3.3115,3.4813,3.5756,3.6019,0.0,3.6444,3.6786,3.8325,0.0,0.0,0.0,0.0,0.0,0.0,0.0,0.0,4.4213,4.4835,4.5207,4.6751,0.0,0.0,0.0,0.0,0.0,4.9048,4.952,4.987,5.0978,5.1167,5.1079,5.1079,5.0972,5.0891,5.0891,5.0891,5.1002,5.1261,5.1413,5.1882,5.3025,5.3856,5.431,5.4205,5.4728,5.5314,5.591,5.6465,5.7087,5.7814,5.7881,5.7881,5.7881,5.7881,5.7881,5.7881,5.7881,5.7881,5.7881,5.7881,5.7881,5.7845,5.7845,5.7881,5.7881,5.7881,5.7881,5.7881,5.7881,5.8007,5.8152,5.8152,5.826,5.8419,5.8455,5.8455,5.849,5.8683,5.8753,5.8788,5.8927,5.8961,5.8978,0.0,0.0,0.0,0.0,0.0,0.0,0.0,0.0,0.0,0.0,0.0,0.0,0.0,0.0,0.0,0.0,0.0,0.0,0.0,0.0,2.5671,2.6792,2.7595,2.821,2.8684,2.8771,2.899,2.9412,2.9473,2.9681,3.0038,3.1214,3.224,3.3196,3.4989,3.5888,3.6019,3.6377,3.6602,3.6844,0.0,0.0,0.0,0.0,0.0,0.0,0.0,0.0,0.0,0.0,4.4959,4.527,4.6816,0.0,0.0,0.0,0.0,0.0,4.9188,4.9548,4.983,5.1265,5.1454,5.129,5.1132,5.1052,5.0998,5.0918,5.1207,5.1482,5.1488,5.2178,5.3028,5.3853,5.4287,5.4618,5.4901,5.5477,5.6081,5.6661,5.7201,5.7635,5.7884,5.7881,5.7881,5.7881,5.7881,5.7881,5.7881,5.7881,5.7881,5.7881,5.8007,5.808,5.808,5.8188,5.8116,5.7881,5.8007,5.808,5.808,5.8188,5.826,5.8367,5.8367,5.8402,5.8525,5.8631,5.8666,5.8683,5.8823,5.8892,5.8927,5.9098,5.9166,5.9166,0.0,0.0,0.0,0.0,0.0,0.0,0.0,0.0,0.0,0.0,0.0,0.0,0.0,0.0,0.0,0.0,0.0,0.0,0.0,2.3862,2.4947,2.606,2.7191,2.8039,2.8597,2.8747,2.9029,2.9496,2.9496,2.9748,3.0243,3.219,3.3108,3.318,3.512,3.5997,3.6019,3.6499,3.6702,3.6844,0.0,0.0,0.0,0.0,0.0,0.0,0.0,0.0,0.0,0.0,0.0,0.0,0.0,0.0,0.0,4.745,4.7555,4.8023,4.9379,4.9808,5.0199,5.1567,5.1708,5.1446,5.1237,5.1132,5.1131,5.1183,5.1638,5.2008,5.2102,5.3152,5.4131,5.444,5.4512,5.477,5.5512,5.6124,5.6712,5.7295,5.7889,5.8224,5.808,5.8007,5.7954,5.7954,5.7935,5.7918,5.7971,5.7954,5.8007,5.8044,5.8188,5.826,5.826,5.8419,5.8348,5.8027,5.8188,5.826,5.826,5.8419,5.8525,5.8561,5.8561,5.8596,5.8631,5.8771,5.884,5.884,5.8961,5.9012,5.9081,5.9319,5.9386,5.9386,0.0,0.0,0.0,0.0,0.0,0.0,0.0,0.0,0.0,0.0,0.0,0.0,0.0,0.0,0.0,0.0,0.0,0.0,0.0,2.3624,2.4773,2.5781,2.7076,2.8039,2.8597,2.8747,2.9029,2.9496,2.9496,2.9748,3.0243,3.219,3.3108,3.318,3.512,3.5997,3.6019,3.6499,3.6702,3.6844,3.8731,0.0,0.0,0.0,0.0,0.0,0.0,0.0,0.0,0.0,0.0,0.0,0.0,0.0,4.7931,4.7881,4.8387,4.9089,4.9721,5.043,5.1135,5.1759,5.1708,5.1479,5.1479,5.129,5.1299,5.1987,5.2044,5.2397,5.3678,5.4352,5.4679,5.4526,5.4512,5.477,5.5512,5.6124,5.678,5.7484,5.8117,5.849,5.8455,5.8295,5.8188,5.8188,5.8007,5.7991,5.8188,5.8188,5.826,5.8455,5.849,5.849,5.849,5.849,5.849,5.8455,5.849,5.849,5.849,5.849,5.8596,5.8788,5.8788,5.884,5.8978,5.8978,5.8978,5.8978,5.9012,5.9115,5.9319,5.9504,5.9588,5.957,0.0,0.0,0.0,0.0,0.0,0.0,0.0,0.0,0.0,0.0,0.0,0.0,0.0,0.0,0.0,0.0,0.0,0.0,0.0,2.3027,2.4289,2.5079,2.6682,2.784,2.8468,2.87,2.899,2.9389,2.9732,3.0033,3.0243,3.219,3.3108,3.318,3.512,3.5997,3.6019,3.6499,3.6702,3.6864,3.8778,3.9578,0.0,0.0,0.0,0.0,0.0,0.0,0.0,0.0,4.5048,4.5764,4.6875,4.7569,4.7992,4.797,4.8532,4.9292,4.9923,5.0629,5.137,5.1976,5.1932,5.1708,5.1531,5.1722,5.1944,5.2172,5.2881,5.3712,5.4617,5.477,5.4797,5.4686,5.4575,5.4943,5.6167,5.6532,5.712,5.8187,5.853,5.8631,5.8525,5.8455,5.8384,5.8384,5.8312,5.8295,5.8384,5.8384,5.8419,5.849,5.8631,5.8683,5.8683,5.8754,5.8823,5.8823,5.8736,5.8683,5.8683,5.8754,5.8858,5.8927,5.8927,5.8961,5.9012,5.9012,5.9081,5.92,5.9319,5.9419,5.9504,5.9668,5.9716,5.9733,0.0,0.0,0.0,0.0,0.0,0.0,0.0,0.0,0.0,0.0,0.0,0.0,0.0,0.0,0.0,0.0,0.0,0.0,2.0835,2.2626,2.3937,2.4599,2.6398,2.769,2.8323,2.866,2.8998,2.935,2.993,3.0189,3.0243,3.219,3.3108,3.318,3.512,3.5997,3.6019,3.6499,3.6702,3.6864,3.8821,3.96,0.0,0.0,0.0,0.0,0.0,0.0,0.0,0.0,4.4909,4.5806,4.6608,4.7413,4.8092,4.807,4.8819,4.9727,5.0168,5.0965,5.1815,5.226,5.2174,5.2028,5.2004,5.2261,5.2573,5.2933,5.3929,5.4782,5.5142,5.5035,5.4886,5.4811,5.4686,5.511,5.6581,5.6805,5.7324,5.8703,5.8875,5.8806,5.8684,5.8631,5.8596,5.8596,5.8525,5.8525,5.8596,5.8596,5.8631,5.8649,5.8806,5.8875,5.8875,5.8944,5.9012,5.9012,5.8978,5.8909,5.8875,5.8961,5.9012,5.9012,5.9012,5.9047,5.9081,5.9081,5.92,5.9419,5.9586,5.9652,5.9685,5.9846,5.9893,5.9911,0.0,0.0,0.0,0.0,0.0,0.0,0.0,0.0,0.0,0.0,0.0,0.0,0.0,0.0,0.0,0.0,0.0,0.0,2.056,2.2407,2.3807,2.4476,2.6348,2.764,2.8186,2.8661,2.9106,2.9496,2.9968,3.0189,3.0243,3.219,3.3108,3.318,3.512,3.5997,3.6019,3.6499,3.6702,3.6864,3.8821,3.9582,3.9818,0.0,0.0,0.0,0.0,0.0,0.0,0.0,4.5003,4.5919,4.6742,4.7587,4.8287,4.8226,4.9342,5.0563,5.0438,5.1479,5.2586,5.2526,5.2405,5.2438,5.2978,5.2921,5.3105,5.4502,5.5184,5.5431,5.5229,5.5199,5.5109,5.4842,5.478,5.5254,5.6614,5.6788,5.7357,5.8823,5.9012,5.9012,5.8995,5.8858,5.8771,5.8771,5.8614,5.8579,5.8771,5.8771,5.8875,5.9012,5.9012,5.9012,5.9012,5.9012,5.9012,5.9012,5.92,5.92,5.9012,5.9012,5.9012,5.9012,5.9012,5.9132,5.9301,5.9301,5.9419,5.9603,5.9748,5.9796,5.9829,6.0025,6.0089,6.0121,0.0,0.0,0.0,0.0,0.0,0.0,0.0,0.0,0.0,0.0,0.0,0.0,0.0,0.0,0.0,0.0,0.0,0.0,2.056,2.2407,2.3807,2.4476,2.6348,2.7705,2.8323,2.9075,2.9525,2.9653,3.0033,3.0189,3.0243,3.219,3.3108,3.318,3.512,3.5997,3.6019,3.6499,3.6702,3.683,3.8139,3.9045,3.9747,0.0,0.0,0.0,0.0,0.0,0.0,0.0,0.0,0.0,4.6103,4.6967,4.7776,4.8329,4.9174,5.0052,5.0483,5.1313,5.2134,5.2481,5.2508,5.2748,5.3891,5.3869,5.3949,5.5168,5.5536,5.5607,5.5431,5.5306,5.5169,5.5079,5.4992,5.5234,5.6033,5.6589,5.7265,5.8116,5.8685,5.8806,5.8288,5.8169,5.7962,5.7445,5.7344,5.7567,5.8118,5.8186,5.841,5.8995,5.9012,5.9047,5.92,5.92,5.9268,5.9419,5.947,5.9419,5.92,5.9352,5.9419,5.9419,5.9419,5.947,5.9537,5.9617,5.9683,5.9748,5.9961,6.0089,6.0234,6.0283,6.0378,6.0454,0.0,0.0,0.0,0.0,0.0,0.0,0.0,0.0,0.0,0.0,2.1199,0.0,0.0,0.0,0.0,0.0,0.0,0.0,0.0,2.2536,2.3884,2.4634,2.6459,2.7885,2.8834,2.9441,2.9836,2.9989,3.0184,3.0295,3.0371,3.2233,3.3134,3.3308,3.5163,3.6019,3.6101,3.6478,3.6643,3.6792,3.783,3.8788,3.9729,0.0,0.0,0.0,0.0,0.0,0.0,0.0,0.0,0.0,4.5825,4.6706,4.7553,4.8365,4.9141,4.9895,5.0666,5.1334,5.1995,5.2652,5.2694,5.2902,5.4302,5.4797,5.5133,5.5759,5.5822,5.5735,5.5607,5.5472,5.5366,5.5229,5.5139,5.5283,5.5893,5.6365,5.6906,5.7588,5.8057,5.8144,5.7694,5.7659,5.7469,5.7019,5.6984,5.7175,5.7642,5.7936,5.8299,5.8749,5.9078,5.9319,5.9419,5.9419,5.947,5.9621,5.9652,5.9602,5.9485,5.957,5.9621,5.9603,5.9652,5.9685,5.9668,5.9846,5.9975,6.0057,6.0171,6.0315,6.0472,6.0472,6.0534,6.0609,0.0,0.0,0.0,0.0,0.0,0.0,0.0,0.0,0.0,0.0,2.2214,2.1154,0.0,0.0,0.0,0.0,0.0,0.0,0.0,2.2793,2.4129,2.4975,2.6718,2.8216,2.9493,2.9722,3.0027,3.0417,3.0417,3.0476,3.0659,3.2352,3.3253,3.3567,3.5262,3.6101,3.6208,3.6419,3.6582,3.6774,3.7714,3.8692,3.9691,4.0637,0.0,0.0,0.0,0.0,0.0,0.0,0.0,0.0,4.5732,4.6614,4.7478,4.8272,4.9086,4.9917,5.084,5.1459,5.205,5.297,5.3025,5.3121,5.4345,5.5558,5.6401,5.6235,5.6049,5.589,5.5735,5.5706,5.5601,5.5289,5.5259,5.5444,5.5945,5.6102,5.6384,5.7115,5.7254,5.7271,5.7202,5.7202,5.7167,5.7097,5.7097,5.7115,5.7184,5.7915,5.835,5.8387,5.9203,5.9621,5.9603,5.9603,5.9636,5.9654,5.9748,5.9829,5.9829,5.9718,5.9654,5.9636,5.9781,5.9829,5.9879,6.0057,6.0234,6.0427,6.0427,6.0503,6.0609,6.0609,6.064,6.0671,0.0,0.0,0.0,0.0,0.0,0.0,0.0,0.0,0.0,0.0,0.0,0.0,0.0,0.0,0.0,0.0,0.0,0.0,0.0,0.0,2.469,2.5879,2.7738,2.9044,2.9637,3.0006,3.0305,3.0485,3.0485,3.0845,3.1549,3.2778,3.3672,3.4307,3.5587,3.6165,3.6208,3.6419,3.6582,3.6722,3.7001,3.8101,3.9638,3.9953,4.1116,0.0,0.0,0.0,0.0,0.0,0.0,0.0,4.497,4.5902,4.6852,4.7669,4.8433,4.9325,5.0787,5.1229,5.1572,5.2884,5.3843,5.4542,5.4719,5.5848,5.6768,5.6428,5.6235,5.6095,5.589,5.5861,5.5804,5.5619,5.5572,5.5554,5.5426,5.5925,5.6348,5.6349,5.6923,5.7063,5.6419,5.6366,5.6123,5.5531,5.5479,5.574,5.6332,5.7115,5.7811,5.837,5.9203,5.9652,5.9748,5.9748,5.9831,6.001,6.0025,6.0025,6.0025,6.001,6.001,5.9993,6.0025,6.0139,6.0283,6.0315,6.0409,6.0565,6.0565,6.0622,6.0757,6.0757,6.0866,6.1004,0.0,0.0,0.0,0.0,0.0,0.0,0.0,0.0,0.0,0.0,0.0,0.0,0.0,0.0,0.0,0.0,0.0,0.0,0.0,0.0,2.583,2.7415,2.8754,2.9611,2.9979,3.0351,3.0638,3.0834,3.0918,3.1345,3.206,3.3051,3.3964,3.4836,3.5822,3.6276,3.6356,3.652,3.6664,3.6745,3.6788,3.79,3.9575,3.9658,4.0875,4.2532,4.2785,0.0,0.0,0.0,0.0,0.0,0.0,0.0,4.6661,4.746,4.8243,4.9117,5.0342,5.0898,5.1468,5.2867,5.3957,5.4738,5.4887,5.5733,5.6533,5.667,5.6519,5.6318,5.6077,5.6049,5.5993,5.5822,5.5793,5.5718,5.5555,5.5895,5.6111,5.6004,5.6373,5.646,5.6039,5.5962,5.5744,5.5341,5.5282,5.5426,5.5781,5.6563,5.7126,5.7527,5.868,5.9356,5.9435,5.985,6.0139,6.0234,6.0297,6.0149,5.9796,6.009,6.0266,6.0343,5.9937,6.0039,6.0485,6.0079,6.0224,6.0714,6.0714,6.0805,6.0938,6.0938,6.1046,6.1211,0.0,0.0,0.0,0.0,0.0,0.0,0.0,0.0,0.0,0.0,0.0,0.0,0.0,0.0,0.0,0.0,0.0,0.0,0.0,0.0,0.0,2.8943,2.9572,3.0054,3.0377,3.0707,3.1001,3.1249,3.1447,3.1929,3.2638,3.3366,3.4295,3.5373,3.6063,3.6423,3.6544,3.6643,3.6745,3.6809,3.6948,3.802,3.9509,3.9737,4.0882,4.2412,4.2668,4.2918,4.316,4.3323,0.0,0.0,0.0,0.0,4.6624,4.7293,4.8183,4.9112,4.9893,5.0731,5.1711,5.2968,5.3836,5.4477,5.4825,5.5504,5.6186,5.6711,5.6731,5.6573,5.6318,5.6281,5.6207,5.5993,5.5947,5.5947,5.5901,5.5918,5.5918,5.5918,5.5918,5.5918,5.5918,5.5804,5.5735,5.5735,5.5637,5.5566,5.5566,5.6299,5.6686,5.6686,5.8128,5.887,5.887,5.9642,6.0021,6.0021,6.0158,5.9866,5.9259,5.9827,6.0114,6.0184,5.9512,5.96,6.0197,5.9666,5.9928,6.0653,6.0777,6.0986,6.1123,6.1123,6.1241,6.1357,0.0,0.0,0.0,0.0,0.0,0.0,0.0,0.0,0.0,0.0,2.6916,2.6384,0.0,0.0,0.0,0.0,0.0,0.0,0.0,0.0,0.0,2.9483,2.9973,3.0377,3.0744,3.1064,3.1295,3.1464,3.1728,3.2565,3.3945,3.4068,3.4901,3.6305,3.6547,3.6661,3.6664,3.6702,3.6745,3.6861,3.7563,3.8512,3.9579,4.0356,4.1339,4.2348,4.255,4.2767,4.2975,4.316,4.341,0.0,0.0,0.0,4.6513,4.6624,4.7808,4.9235,4.9911,5.1139,5.2453,5.3395,5.4022,5.4396,5.4463,5.5363,5.6188,5.6131,5.6464,5.6715,5.6573,5.6546,5.6465,5.6207,5.6169,5.6095,5.5918,5.5918,5.5918,5.5918,5.5918,5.5918,5.5918,5.589,5.5861,5.5861,5.5861,5.5833,5.5833,5.6604,5.7028,5.7028,5.793,5.8408,5.8408,5.8514,5.8579,5.8579,5.8579,5.8615,5.8609,5.8716,5.868,5.8609,5.8503,5.8562,5.8822,5.942,5.9793,6.01,6.0796,6.1152,6.1252,6.1252,6.1386,6.1548,0.0,0.0,0.0,0.0,0.0,0.0,0.0,0.0,0.0,0.0,0.0,2.7505,0.0,0.0,0.0,0.0,0.0,0.0,0.0,0.0,0.0,3.007,3.0472,3.0841,3.1179,3.1447,3.1635,3.1711,3.2037,3.2982,3.4484,3.4596,3.536,3.6623,3.6725,3.6766,3.6748,3.6846,3.7114,3.7556,3.7907,3.8866,4.0113,4.0598,4.1384,4.2207,4.251,4.2728,4.292,4.3123,4.3357,4.3582,4.3754,0.0,0.0,0.0,4.7396,4.8654,4.992,5.1061,5.2085,5.2883,5.3542,5.408,5.435,5.4799,5.5259,5.5491,5.568,5.5988,5.6606,5.6715,5.6662,5.6546,5.6546,5.6492,5.631,5.6282,5.6255,5.6189,5.6189,5.6189,5.6189,5.6106,5.6067,5.6067,5.5947,5.5918,5.5918,5.6237,5.6432,5.6432,5.7211,5.7618,5.7618,5.8148,5.8438,5.8508,5.8508,5.8334,5.8011,5.8011,5.8185,5.849,5.8092,5.8174,5.8606,5.8631,5.917,6.006,6.0522,6.1039,6.1473,6.1473,6.1577,6.1718,0.0,0.0,0.0,0.0,0.0,0.0,0.0,0.0,0.0,0.0,0.0,0.0,0.0,0.0,0.0,0.0,0.0,0.0,0.0,0.0,0.0,3.0675,3.0995,3.1293,3.1635,3.1819,3.1947,3.2038,3.2336,3.3248,3.478,3.4942,3.5662,3.6846,3.6869,3.6871,3.6891,3.695,3.7446,3.8128,3.8322,3.9252,4.0541,4.0948,4.1519,4.2121,4.245,4.2688,4.2844,4.305,4.3268,4.3479,4.3669,4.4356,0.0,0.0,0.0,4.8187,4.9928,5.0808,5.1448,5.2401,5.3032,5.3563,5.4094,5.4338,5.4524,5.493,5.5043,5.5365,5.6223,5.6492,5.6613,5.6758,5.6794,5.6768,5.6662,5.6653,5.6626,5.6519,5.6492,5.6492,5.6492,5.6373,5.629,5.629,5.6134,5.6032,5.6032,5.6032,5.6032,5.6032,5.6599,5.6918,5.6918,5.7619,5.8018,5.816,5.816,5.7884,5.7386,5.7386,5.769,5.8162,5.7608,5.7652,5.8152,5.7943,5.8518,5.9622,6.0182,6.0778,6.1364,6.159,6.1746,6.1858,0.0,0.0,0.0,0.0,0.0,0.0,0.0,0.0,0.0,0.0,0.0,0.0,2.9243,2.9113,2.9028,2.9028,2.9152,0.0,0.0,0.0,0.0,3.1237,3.1408,0.0,3.2055,3.2144,3.2266,3.2456,3.2539,3.3403,3.4995,3.4995,3.581,3.7259,3.7145,3.7089,3.7089,3.7029,3.7446,3.8181,3.8915,3.9743,4.0612,4.1566,4.197,4.2048,4.2382,4.2566,4.2649,4.2862,4.3105,4.332,4.3462,4.4236,4.5119,0.0,0.0,0.0,4.9928,5.043,5.0826,5.2324,5.2679,5.2846,5.3584,5.4142,5.4488,5.4454,5.4928,5.5359,5.5299,5.5589,5.6049,5.6695,5.6794,5.6794,5.6794,5.6794,5.6794,5.6768,5.6768,5.6768,5.6768,5.6653,5.6573,5.6573,5.6437,5.6355,5.6355,5.6355,5.6355,5.6355,5.6409,5.6427,5.6427,5.649,5.6562,5.6725,5.6725,5.6743,5.684,5.684,5.6858,5.6894,5.6725,5.6671,5.6779,5.7658,5.8053,5.8269,5.9797,6.0492,6.0756,6.1514,6.1868,6.1996,0.0,0.0,0.0,0.0,0.0,0.0,0.0,0.0,0.0,0.0,0.0,0.0,0.0,2.9946,2.9859,2.9826,2.9979,0.0,0.0,0.0,0.0,3.1674,3.182,3.2037,3.2336,3.237,3.2456,3.2556,3.2673,3.3539,3.5066,3.5101,3.5972,3.7484,3.7316,3.7222,3.7257,3.7653,3.8282,3.9057,3.9786,4.058,4.1388,4.1817,4.203,4.2097,4.2402,4.2546,4.2629,4.2825,4.3013,4.3214,4.3445,4.3767,4.4236,4.4988,4.6501,4.8079,4.8739,4.9671,5.059,5.1155,5.1629,5.2156,5.2846,5.3141,5.3376,5.375,5.3957,5.4179,5.4602,5.5103,5.5492,5.571,5.6126,5.6371,5.6295,5.6652,5.6899,5.6821,5.6794,5.6794,5.6794,5.6742,5.6715,5.6715,5.66,5.6519,5.6519,5.6455,5.6401,5.6401,5.6401,5.6455,5.6519,5.6626,5.6662,5.6715,5.6715,5.6742,5.6794,5.6794,5.6794,5.6794,5.6847,5.6794,5.676,5.7179,5.7646,5.8195,5.887,5.9772,6.0766,6.1055,6.1516,6.1996,0.0,0.0,0.0,0.0,0.0,0.0,0.0,0.0,0.0,3.1278,0.0,0.0,0.0,0.0,3.0621,3.0572,3.0757,3.1001,3.1355,3.1506,3.173,3.2091,3.2197,3.2336,3.2591,3.2608,3.2623,3.2705,3.2787,3.3622,3.5118,3.5187,3.606,3.7595,3.7466,3.7372,3.7388,3.807,3.8826,3.9602,4.0296,4.111,4.1919,4.2292,4.2466,4.2551,4.3042,4.3256,4.336,4.3541,4.3696,4.3831,4.378,4.3629,4.373,4.4897,4.6113,4.717,4.7523,4.8637,4.9757,5.0022,5.0665,5.142,5.2101,5.2251,5.2364,5.2752,5.2949,5.3201,5.3649,5.4216,5.4755,5.5144,5.558,5.5831,5.5735,5.6115,5.645,5.6646,5.6631,5.6714,5.6984,5.6925,5.6873,5.6873,5.6742,5.668,5.668,5.6573,5.6546,5.6546,5.6546,5.6573,5.668,5.6742,5.6821,5.6873,5.6873,5.6899,5.6933,5.6933,5.6933,5.6951,5.7028,5.7003,5.6873,5.7028,5.7387,5.7893,5.8267,5.9216,6.0448,6.072,6.129,6.1996,0.0,0.0,0.0,0.0,0.0,0.0,0.0,0.0,3.2001,3.1673,0.0,0.0,0.0,0.0,0.0,3.1315,3.1504,3.171,3.1894,3.2037,3.2232,3.2507,0.0,0.0,3.2789,3.2823,3.2838,3.29,3.29,3.3703,3.5221,3.5186,3.606,3.7595,3.7595,3.7522,3.7464,3.8222,3.8963,3.9686,4.0501,4.1297,4.2115,4.2967,4.3316,4.3405,4.4296,4.4689,4.4814,4.4959,4.5127,4.5184,4.4503,4.3962,4.375,4.4759,4.5185,4.5502,0.0,0.0,0.0,4.903,4.9835,5.0623,5.1362,5.1551,5.1554,5.1522,5.2066,5.2531,5.2418,5.2969,5.3801,5.4884,5.5144,5.5176,5.5176,5.5194,5.5486,5.6265,5.6279,5.6515,5.7279,5.7163,5.7028,5.7028,5.6873,5.6794,5.6794,5.6794,5.6794,5.6794,5.6794,5.6794,5.6794,5.6794,5.6873,5.7003,5.7003,5.7061,5.7188,5.7188,5.7188,5.7188,5.7188,5.713,5.7028,5.7156,5.7188,5.7279,5.8058,5.8872,5.9705,6.0484,6.1299,6.1996,0.0,0.0,0.0,0.0,0.0,3.2488,3.2472,3.2422,3.2353,0.0,0.0,0.0,3.1875,3.1746,3.1727,3.1857,3.1929,3.2073,3.2318,3.237,3.2506,3.2787,3.2787,3.2868,3.3008,3.3026,3.3042,3.3039,3.2995,3.3786,3.5342,3.5238,3.606,3.7595,3.7595,3.7577,3.7629,3.8904,3.9556,3.9855,4.1141,4.1817,4.2168,4.2992,4.3376,4.3547,4.4317,4.4689,4.4814,4.4835,4.4985,4.5048,4.4541,4.4382,4.4322,4.4074,4.4642,4.5358,4.5629,0.0,0.0,0.0,0.0,0.0,4.9781,5.0401,5.0964,5.146,5.1724,5.1839,5.175,5.1918,5.2103,5.2278,5.3642,5.4671,5.4624,5.5048,5.5373,5.5522,5.6004,5.6436,5.6654,5.7036,5.7307,5.7307,5.7079,5.6951,5.6951,5.6847,5.6794,5.6794,5.6899,5.6951,5.6951,5.7054,5.7105,5.7138,5.7138,5.7163,5.7188,5.7188,5.7188,5.7188,5.7188,5.7163,5.7156,5.7163,5.7188,5.7224,5.7442,5.8383,5.9633,5.985,6.0828,6.1996,0.0,0.0,0.0,0.0,0.0,3.269,3.269,3.264,3.2608,0.0,0.0,0.0,3.2266,3.2161,3.2144,3.2249,3.2301,3.2422,3.264,3.2673,3.2755,3.2961,3.2977,3.3008,3.3101,3.3101,3.3101,3.3101,3.3382,3.4141,3.5411,3.5613,3.6381,3.7595,3.7595,3.7791,3.8183,3.9355,3.9832,3.9975,4.1517,4.2355,4.2771,4.3536,4.4096,4.4571,4.5338,4.565,4.5734,4.5777,4.5716,4.5513,4.5031,4.4729,4.4436,4.3752,4.4085,4.4689,4.4732,4.5503,4.6292,4.6334,0.0,0.0,4.825,4.8703,4.9265,5.0022,5.0422,5.0727,5.1031,5.1332,5.1486,5.1378,5.2437,5.3337,5.3502,5.4133,5.4693,5.4957,5.5345,5.5697,5.6026,5.6611,5.6964,5.6897,5.7057,5.7138,5.7105,5.7003,5.6977,5.6977,5.7036,5.7061,5.7061,5.7163,5.7188,5.7188,5.7188,5.7188,5.7188,5.7188,5.7188,5.7188,5.7188,5.7188,5.7188,5.7188,5.7188,5.7188,5.7188,5.7985,5.9144,5.9488,6.043,6.1543,0.0,0.0,3.2523,3.2573,3.2724,3.2807,3.2807,3.2878,3.2897,0.0,3.2817,3.2855,3.2771,3.27,3.2647,3.2647,3.2642,3.2705,3.29,3.2916,3.2995,3.3119,3.3117,3.3135,3.3132,3.3132,3.317,3.3242,3.39,3.4658,3.5554,3.6113,3.6827,3.7595,3.7595,3.8041,3.8861,3.9591,3.9948,4.0182,4.168,4.2769,4.3568,4.4317,4.5084,4.5909,4.6712,4.6998,4.7002,4.7156,4.6848,4.6305,4.5678,4.5052,4.44,4.3684,4.3618,4.3786,4.3945,4.4609,4.5277,4.5425,4.6124,0.0,4.6832,4.6936,4.7218,4.7928,4.8602,4.927,5.0014,5.0661,5.1099,5.1082,5.1232,5.1558,5.2119,5.28,5.3538,5.4349,5.4346,5.4604,5.539,5.5976,5.6265,5.6103,5.6824,5.7247,5.7188,5.7188,5.7188,5.7188,5.7188,5.7188,5.7188,5.7188,5.7188,5.7188,5.7188,5.7188,5.7188,5.7188,5.7188,5.7188,5.7188,5.7188,5.7188,5.7188,5.7188,5.7188,5.7188,5.7695,5.851,5.9307,6.0122,6.0937,0.0,3.2388,3.2489,3.2506,3.2674,3.2807,3.2807,3.339,3.385,3.3816,3.4283,3.4605,3.4518,3.3916,3.3579,3.363,3.3143,3.2884,3.2963,3.3042,3.3119,3.3262,3.3262,3.3292,3.3334,3.3334,3.3611,3.4148,3.4231,3.4959,3.6289,3.6363,3.6827,3.7595,3.7595,3.8041,3.8861,3.9591,4.0269,4.0949,4.1895,4.2769,4.3568,4.4317,4.5084,4.5909,4.6712,4.6998,4.7043,4.7209,4.719,4.692,4.584,4.5395,4.5053,4.3797,4.3498,4.36,4.3786,4.404,4.4309,4.4509,4.52,0.0,4.5946,4.6505,4.7064,4.7272,4.7423,4.7592,4.7801,4.7951,4.802,4.792,4.8981,5.0251,5.1488,5.1695,5.2011,5.2767,5.3351,5.3949,5.4659,5.5354,5.5697,5.5565,5.6084,5.666,5.7152,5.7188,5.7188,5.7188,5.7188,5.7188,5.7188,5.7188,5.7188,5.7188,5.7188,5.7188,5.7188,5.7188,5.7188,5.7188,5.7188,5.7188,5.7188,5.7188,5.7188,5.7188,5.7188,5.7695,5.851,5.9307,6.0122,6.0937,3.2126,3.2249,3.2371,3.244,3.2558,3.2799,3.3239,3.3697,3.4139,3.4547,3.4921,3.5153,3.5101,3.4728,3.4514,3.4548,3.4292,3.4178,3.4241,3.4337,3.4449,3.453,3.4563,3.453,3.4493,3.4493,3.4661,3.4945,3.5259,3.5785,3.6504,3.6845,3.722,3.7631,3.8005,3.8629,3.9395,4.0182,4.0967,4.177,4.2573,4.3358,4.4121,4.491,4.5713,4.6444,4.6855,4.6998,4.7025,4.7232,4.7302,4.7147,4.6287,4.5773,4.5287,4.4181,4.3669,4.3532,4.3617,4.38,4.3974,4.4116,4.455,0.0,0.0,4.5425,4.5866,4.6304,4.644,4.6582,4.7057,4.7179,4.7179,4.7109,4.7747,4.8498,4.9198,5.0546,5.1563,5.1899,5.2214,5.2692,5.3388,5.4054,5.469,5.5272,5.5483,5.588,5.6554,5.6591,5.679,5.7188,5.7188,5.7188,5.7188,5.7188,5.7188,5.7188,5.7188,5.7188,5.7188,5.7188,5.7188,5.7188,5.7188,5.7188,5.7188,5.7188,5.7188,5.7188,5.7188,5.7442,5.7949,5.9162,5.9868,6.0375,3.2,3.2108,3.2267,3.2546,3.2651,3.2983,3.3864,3.418,3.4622,3.5439,3.5598,3.5667,3.5667,3.5525,3.5418,3.5418,3.5414,3.5426,3.5493,3.5591,3.569,3.5738,3.5738,3.5688,3.5588,3.5571,3.5629,3.569,3.6216,3.6575,3.6719,3.7309,3.7595,3.7648,3.8433,3.9199,3.9948,4.077,4.1645,4.259,4.3393,4.4068,4.4692,4.5499,4.6302,4.6998,4.6998,4.702,4.7066,4.7254,4.732,4.7241,4.6695,4.6021,4.5302,4.4541,4.3889,4.3428,4.3497,4.3667,4.3849,4.3974,4.4113,4.427,0.0,0.0,0.0,4.5341,4.551,4.5735,4.6294,4.6595,4.6674,4.6509,4.6713,4.6878,4.6864,4.9074,5.0785,5.1054,5.0948,5.1212,5.2103,5.2721,5.3561,5.472,5.4815,5.5111,5.577,5.58,5.6138,5.6935,5.6971,5.7043,5.7188,5.7188,5.7188,5.7188,5.7188,5.7188,5.7188,5.7188,5.7188,5.7188,5.7188,5.7188,5.7188,5.7188,5.7188,5.7188,5.7188,5.7188,5.7387,5.9017,5.9641,5.9859,3.1763,3.1983,3.237,3.3141,3.3336,3.367,3.4552,3.5348,3.6147,3.7019,3.7254,3.7345,3.7345,3.6684,3.6256,3.6256,3.5736,3.5393,3.5409,3.5493,3.5542,3.5524,3.5524,3.5524,3.5508,3.5508,3.5816,3.6378,3.6467,3.6827,3.7488,3.7559,3.7595,3.7648,3.8433,3.9199,3.9948,4.077,4.1984,4.3447,4.4175,4.4531,4.4692,4.5499,4.6302,4.6998,4.6998,4.7066,4.7178,4.7276,4.7385,4.7367,4.6716,4.5961,4.5185,4.4503,4.376,4.3215,4.3445,4.3513,4.3615,4.3926,4.402,4.4082,4.427,0.0,4.4444,4.4613,0.0,4.4562,4.402,0.0,0.0,4.4058,4.5164,4.6081,4.5956,4.6853,4.8025,4.9391,4.9374,4.9833,5.1287,5.1911,5.2537,5.3292,5.3825,5.4409,5.5074,5.5045,5.5377,5.6102,5.6138,5.6482,5.7188,5.7188,5.7188,5.7188,5.7188,5.7188,5.7188,5.7188,5.7188,5.7188,5.7188,5.7188,5.7188,5.7188,5.7188,5.7188,5.7188,5.7188,5.7387,5.9017,5.9675,6.0023,3.1787,3.2165,3.271,3.3151,3.3698,3.4351,3.5194,3.6101,3.6851,3.7281,3.7838,3.818,3.818,3.8324,3.8433,3.8433,3.7828,3.7435,3.7435,3.7092,3.6892,3.6892,3.6892,3.6858,3.6788,3.6788,3.6915,3.7149,3.7149,3.731,3.7613,3.8076,3.829,3.8344,3.9575,4.0346,4.0762,4.1584,4.2588,4.3742,4.4513,4.5104,4.5584,4.6262,4.7025,4.7831,4.7841,4.7909,4.7954,4.8087,4.7847,4.7457,4.7259,4.6649,4.5834,4.5096,4.4375,4.3723,4.336,4.3375,4.3531,4.3666,4.383,4.3958,4.4101,4.3819,4.3567,4.3718,0.0,0.0,0.0,0.0,0.0,0.0,4.3309,4.3723,4.3664,4.3917,4.5035,4.7548,4.7769,4.8294,4.9763,5.0878,5.1589,5.1701,5.234,5.2988,5.3567,5.401,5.4598,5.5341,5.5359,5.5522,5.5866,5.6283,5.65,5.65,5.6971,5.7188,5.7188,5.7188,5.7188,5.7188,5.7188,5.7188,5.7188,5.7188,5.7188,5.7188,5.7188,5.7188,5.7413,5.9103,5.9761,6.003,3.2244,3.2681,3.3264,3.3621,3.4279,3.5041,3.5865,3.6814,3.7463,3.7558,3.8327,3.8864,3.8864,3.9477,3.9873,3.9873,3.9435,3.9171,3.9171,3.8725,3.8456,3.8456,3.8456,3.8402,3.8312,3.8293,3.8293,3.8219,3.8219,3.8219,3.8237,3.8826,3.9092,3.9165,4.0542,4.1209,4.1341,4.2185,4.314,4.4173,4.4767,4.5594,4.6543,4.6923,4.7639,4.8429,4.8484,4.8529,4.8573,4.8658,4.8201,4.7554,4.7657,4.7156,4.6395,4.5798,4.497,4.4139,4.3577,4.3415,4.341,4.348,4.3651,4.3816,4.3929,4.3556,4.3178,4.3108,4.2679,0.0,0.0,0.0,4.2102,4.1876,0.0,4.2102,4.2102,4.2038,4.3028,4.5836,4.6521,4.718,4.8163,4.9584,5.0377,5.0147,5.098,5.1746,5.2353,5.2867,5.3598,5.4574,5.4562,5.4689,5.4907,5.5432,5.5703,5.5703,5.6283,5.6573,5.6573,5.6772,5.6862,5.688,5.7098,5.7188,5.7188,5.7188,5.7188,5.7188,5.7239,5.7239,5.7463,5.9161,5.9863,6.0133,3.3254,3.3625,3.4129,3.499,3.5247,3.5682,3.6631,3.7622,3.8252,3.8272,3.9022,3.958,3.958,3.9713,3.9791,3.9791,3.9836,3.9878,3.9878,3.986,3.9843,3.9843,3.9843,3.9843,3.9843,3.9823,3.9823,3.9823,3.9823,3.9823,3.9823,3.9841,3.9859,3.9914,4.087,4.1305,4.1359,4.2228,4.3526,4.4964,4.4982,4.5917,4.7284,4.728,4.7783,4.8506,4.8506,4.8573,4.868,4.8702,4.8244,4.7678,4.7717,4.7156,4.6504,4.6468,4.5345,4.4134,4.423,4.3705,4.3178,4.3445,4.3515,4.3566,4.3753,4.3878,4.3745,4.298,4.299,4.2674,4.1044,4.1499,4.1858,4.1061,4.1594,0.0,0.0,4.2038,4.2643,4.4369,4.5832,4.6701,4.668,4.8003,4.8807,4.8679,4.9964,5.1053,5.1788,5.161,5.2186,5.379,5.3782,5.411,5.4907,5.4925,5.4943,5.4943,5.4961,5.4979,5.5015,5.5703,5.6029,5.6066,5.6862,5.7188,5.7188,5.7188,5.7188,5.7213,5.7338,5.7388,5.7588,5.9212,5.9965,6.0426,3.4583,3.4856,3.5015,3.507,3.5573,3.6364,3.7434,3.7869,3.8319,3.8889,3.9732,4.027,4.027,4.0869,4.1268,4.1268,4.0795,4.0517,4.0517,4.0,3.9698,3.9698,3.9698,3.9736,3.9832,3.9832,3.9872,3.9895,3.9895,3.9895,3.9895,4.0449,4.0699,4.0735,4.1694,4.2113,4.2228,4.3136,4.4173,4.5299,4.6365,4.7084,4.7608,4.8045,4.8726,4.9505,5.0137,5.038,5.033,4.981,4.9104,4.8384,4.788,4.7437,4.7048,4.6506,4.5965,4.5461,4.4959,4.4371,4.3923,4.3998,4.3724,4.3464,4.3584,4.3293,4.2974,4.2838,4.2064,4.125,4.0739,4.0501,4.0303,4.0021,4.0247,4.0441,0.0,4.0885,4.1417,4.198,4.3867,4.5095,4.508,4.6345,4.738,4.79,4.8753,4.9538,5.0226,5.0652,5.1289,5.219,5.22,5.2531,5.3295,5.3838,5.411,5.411,5.4653,5.4907,5.4907,5.516,5.554,5.6011,5.6283,5.6699,5.7188,5.7188,5.7239,5.7356,5.7363,5.7504,5.7874,5.9481,6.0114,6.0451,3.5222,3.5389,3.5447,3.5369,3.6134,3.7018,3.7812,3.8416,3.9038,3.9635,4.0703,4.1397,4.1397,4.2189,4.2754,4.2754,4.232,4.2041,4.2041,4.1563,4.1258,4.1258,4.0993,4.0893,4.0973,4.073,4.0648,4.0673,4.0733,4.0753,4.077,4.1288,4.152,4.1576,4.2215,4.2548,4.2663,4.3632,4.4525,4.5436,4.7065,4.7717,4.7787,4.85,4.9274,5.0091,5.0972,5.1285,5.1176,5.0383,4.9564,4.8746,4.795,4.7615,4.7403,4.688,4.6519,4.6194,4.5671,4.5088,4.4592,4.4358,4.4035,4.3706,4.3501,4.3179,4.2865,4.273,4.1962,4.1156,4.0663,4.0189,3.9806,3.9551,3.9533,3.9583,0.0,4.0059,4.0365,4.0365,4.2192,4.3552,4.3803,4.4867,4.5836,4.6655,4.7313,4.8108,4.9079,4.9528,5.0154,5.1082,5.1304,5.1637,5.2114,5.2883,5.3277,5.3277,5.3802,5.4055,5.4055,5.4345,5.4725,5.5196,5.5758,5.6283,5.679,5.708,5.7264,5.7388,5.7437,5.7601,5.7956,5.9292,6.0158,6.0884,3.5198,3.5348,3.5525,3.6012,3.6926,3.7667,3.7885,3.9264,4.0368,4.0586,4.1885,4.2793,4.2851,4.3592,4.4101,4.4101,4.4216,4.4284,4.4284,4.4284,4.4284,4.4284,4.3558,4.3134,4.3134,4.2537,4.2189,4.2174,4.2299,4.2343,4.2308,4.2308,4.2308,4.2308,4.251,4.2607,4.2737,4.3727,4.4639,4.5544,4.7083,4.7717,4.7787,4.8583,4.9383,5.0166,5.1017,5.1321,5.1212,5.0383,4.9582,4.88,4.7989,4.7615,4.749,4.7511,4.6949,4.6335,4.6374,4.5879,4.5202,4.4575,4.4398,4.4236,4.3578,4.3534,4.3395,4.2703,4.2693,4.2348,4.0877,4.0607,4.0371,3.9657,3.9532,3.952,3.9596,3.9589,3.9589,3.9589,4.0896,4.2071,4.2809,4.3562,4.4278,4.4988,4.5683,4.676,4.8292,4.823,4.8882,5.0419,5.1012,5.1336,5.1409,5.2096,5.2485,5.2498,5.2498,5.2498,5.2516,5.3295,5.3657,5.3784,5.5287,5.5957,5.6072,5.6887,5.7289,5.7412,5.7577,5.7697,5.7902,5.8707,6.0121,6.1704,3.5222,3.6027,3.6843,3.7524,3.7499,3.7836,3.9175,3.9812,4.0625,4.189,4.2507,4.3009,4.3553,4.3822,4.395,4.395,4.3974,4.3997,4.3997,4.3997,4.3997,4.3997,4.3803,4.3744,4.3847,4.3766,4.3487,4.2988,4.3134,4.2894,4.2308,4.2308,4.2308,4.2308,4.2465,4.2889,4.3544,4.4496,4.5773,4.712,4.7536,4.7717,4.7787,4.8583,4.9039,4.9401,5.0796,5.1665,5.1973,5.056,4.9967,4.9546,4.8152,4.7533,4.7363,4.7468,4.7284,4.7057,4.7144,4.6711,4.6142,4.5983,4.5177,4.4345,4.4181,4.3849,4.3543,4.3374,4.3005,4.2594,4.2202,4.1244,4.0467,4.0257,3.9829,3.952,3.9596,3.9589,3.9589,3.9589,3.9952,4.047,4.1161,4.1884,4.2858,4.4178,4.4413,4.5147,4.6705,4.7261,4.792,4.8789,4.9535,5.0438,5.1541,5.1627,5.1982,5.2563,5.2526,5.2498,5.2498,5.2715,5.3132,5.3766,5.4762,5.5535,5.6194,5.7011,5.7504,5.7697,5.7745,5.7815,5.8042,5.8867,6.0193,6.163,3.6198,3.6958,3.7786,3.8606,3.8482,3.8705,3.9822,4.0624,4.1487,4.2561,4.3331,4.3957,4.4378,4.4711,4.4922,4.4922,4.4922,4.4922,4.4922,4.4922,4.4922,4.4922,4.4606,4.4454,4.4542,4.437,4.4134,4.3757,4.3892,4.359,4.2822,4.2822,4.2626,4.2325,4.2785,4.3299,4.3886,4.5201,4.6515,4.7717,4.7717,4.7717,0.0,4.8185,4.8583,4.9018,4.9927,5.076,5.1303,5.042,4.9854,4.9365,4.8098,4.7572,4.7407,4.749,4.7446,4.7407,4.749,4.7268,4.6939,4.6595,4.5956,4.5365,4.5001,4.4491,4.4081,4.4132,4.3623,4.309,4.2751,4.2043,4.1291,4.0612,3.9946,3.9508,3.9558,3.9577,3.9589,3.9589,3.9589,3.9727,4.0053,4.077,4.1706,4.2868,4.3222,4.3918,4.5127,4.6209,4.7095,4.7772,4.8849,4.9958,5.1158,5.1377,5.1894,5.2676,5.2645,5.264,5.264,5.264,5.2876,5.3367,5.4143,5.4971,5.5829,5.6624,5.7291,5.781,5.7862,5.7927,5.8052,5.851,5.9483,6.0603,3.7626,3.8,3.8547,3.9416,3.9763,4.0049,4.0346,4.154,4.2573,4.301,4.4249,4.5133,4.5238,4.5898,4.6354,4.6354,4.6442,4.6495,4.6495,4.6495,4.6495,4.6495,4.58,4.5396,4.5396,4.4876,4.4549,4.4443,4.4654,4.4371,4.364,4.364,4.3268,4.2647,4.3409,4.3909,4.425,4.5952,4.7065,4.7717,4.7717,4.7717,4.7717,4.7678,4.8091,4.8724,4.8811,4.9398,5.0093,4.9985,4.9474,4.8746,4.795,4.7615,4.7511,4.7511,4.7511,4.7511,4.7511,4.7615,4.7536,4.6851,4.6739,4.6624,4.5951,4.5297,4.4855,4.4796,4.4346,4.3728,4.2992,4.2829,4.2307,4.0761,4.0026,3.9613,3.9514,3.9558,3.9589,3.9589,3.9589,0.0,3.9418,4.004,4.0719,4.1382,4.2143,4.2897,4.3693,4.5137,4.6321,4.7114,4.8395,4.9543,5.0458,5.114,5.1879,5.2682,5.2769,5.2806,5.2806,5.2806,5.2806,5.2838,5.364,5.4483,5.529,5.6088,5.6985,5.7857,5.795,5.7997,5.7997,5.7997,5.8437,5.9148,3.8569,3.8972,3.945,4.0323,4.1198,4.181,4.1969,4.2218,4.2916,4.4358,4.4874,4.5343,4.5933,4.6713,4.7187,4.7187,4.7766,4.8091,4.8091,4.8091,4.8091,4.8091,4.7397,4.6993,4.6993,4.6471,4.5864,4.5227,4.5454,4.5195,4.4407,4.4407,4.4317,4.4214,4.4464,4.5063,4.5938,4.7021,4.7551,4.7717,4.7717,4.7717,4.7678,4.7593,4.7623,4.7818,4.8361,4.923,4.9981,4.9329,4.9018,4.8746,4.795,4.7615,4.7511,4.7636,4.7593,4.7533,4.7636,4.7678,4.7702,4.7658,4.7217,4.6808,4.6758,4.6195,4.5516,4.4906,4.4789,4.4559,4.3825,4.32,4.2307,4.0761,4.0453,4.0197,3.9589,3.9558,3.9589,3.9589,3.9589,3.9558,3.9418,3.9535,3.9879,4.0546,4.1334,4.2121,4.286,4.4373,4.5544,4.6285,4.7077,4.8231,4.9754,5.0442,5.1185,5.1987,5.2539,5.2806,5.2806,5.2806,5.2806,5.2838,5.364,5.4529,5.5427,5.6227,5.7102,5.7973,5.7997,5.7997,5.7997,5.7997,5.8088,5.8327,3.9668,3.9931,4.034,4.1223,4.1823,4.2541,4.355,4.3696,4.4006,4.4879,4.5383,4.5951,4.6748,4.7169,4.7538,4.7941,4.831,4.8495,4.8495,4.8538,4.8556,4.8495,4.8264,4.7927,4.7498,4.7398,4.6932,4.6117,4.6318,4.6016,4.5231,4.5231,4.5039,4.4729,4.5311,4.6089,4.6952,4.7473,4.7717,4.7717,4.7717,4.7717,4.7678,4.7636,4.7615,4.7648,4.7966,4.8406,4.8858,4.8808,4.8515,4.8121,4.7805,4.7657,4.7615,4.7678,4.7657,4.7636,4.7759,4.7801,4.7822,4.7945,4.7736,4.7543,4.7601,4.7113,4.6525,4.6175,4.5524,4.4827,4.4093,4.3324,4.2567,4.186,4.1106,4.0483,4.0169,3.9833,3.9589,3.9589,3.9589,3.9558,3.9418,3.9405,3.9488,3.9709,4.0884,4.1742,4.2106,4.3943,4.534,4.6135,4.6765,4.7902,4.9574,5.034,5.1106,5.1912,5.2654,5.3017,5.3017,5.3017,5.3017,5.3035,5.3438,5.4301,5.5595,5.6823,5.7602,5.7997,5.7997,5.7997,5.7997,5.7997,5.7997,5.8052,4.0739,4.0896,4.1257,4.2168,4.2573,4.3262,4.4725,4.5106,4.526,4.535,4.6017,4.6762,4.7402,4.7779,4.8219,4.8791,4.9002,4.909,4.909,4.9125,4.9169,4.909,4.9078,4.8784,4.8141,4.8043,4.7684,4.7062,4.7023,4.6699,4.6114,4.6114,4.5841,4.5398,4.62,4.6916,4.7554,4.7657,4.7717,4.7717,4.7717,4.7717,4.7696,4.7657,4.7657,4.7657,4.7636,4.7615,4.7705,4.8273,4.8034,4.7554,4.7675,4.7717,4.7717,4.7717,4.7717,4.7759,4.7861,4.7902,4.7945,4.803,4.813,4.8226,4.8246,4.7904,4.7537,4.7389,4.6183,4.4965,4.4411,4.3646,4.3062,4.2932,4.1936,4.1108,4.0974,4.0321,3.9871,3.9871,3.9702,3.954,3.9444,3.9418,3.9333,3.9129,4.0657,4.159,4.159,4.3622,4.5206,4.6186,4.6654,4.7702,4.9375,5.0182,5.0991,5.182,5.2626,5.3104,5.3269,5.3269,5.3269,5.3269,5.323,5.4127,5.5702,5.7336,5.7997,5.7997,5.7997,5.7997,5.7997,5.7997,5.7997,5.7997,4.1677,4.1888,4.2203,4.3266,4.4115,4.4743,4.5045,4.5738,4.6251,4.6293,4.6956,4.7534,4.7745,4.9008,4.9857,4.9928,5.0618,5.1042,5.1042,5.1042,5.1042,5.1042,5.036,4.9935,4.9865,4.8642,4.7968,4.7897,4.7285,4.703,4.7071,4.7071,4.7128,4.7252,4.7345,4.75,0.0,4.7678,4.7717,4.7717,4.7717,4.7717,4.7696,4.7572,4.7511,4.7511,4.7385,4.7341,4.7381,4.754,4.7648,4.7678,4.7696,4.7717,4.7717,4.7717,4.7798,4.7881,4.7899,4.7927,4.803,4.8148,4.8228,4.8306,4.8438,4.8477,4.831,4.7696,4.6353,4.5284,4.5267,4.4612,4.3841,4.3113,4.2978,4.2665,4.1892,4.1153,4.0685,4.0685,4.004,3.9583,3.9495,3.9444,3.9346,3.9197,4.0686,4.159,4.159,4.3132,4.4714,4.6232,4.6277,4.7073,4.8679,4.9491,5.034,5.1189,5.2002,5.2778,5.3479,5.3479,5.3479,5.3459,5.3339,5.4154,5.5702,5.7336,5.7997,5.7997,5.7997,5.7997,5.7997,5.7997,5.7997,5.7997,4.2874,4.2951,4.3308,4.4323,4.478,4.5245,4.5893,4.6707,4.7267,4.734,4.7575,4.8098,4.9068,4.973,5.0297,5.0793,5.1104,5.1298,5.1298,5.1298,5.1298,5.1298,5.1057,5.0718,5.0221,4.9279,4.8574,4.8163,4.7464,4.7178,4.7272,4.7272,4.7359,4.7511,4.7575,4.7657,4.7717,4.7717,4.7717,4.7717,4.7717,4.7717,4.7678,4.7636,4.7615,4.7615,4.7554,4.7533,4.7554,4.7615,4.7615,4.7575,4.7678,4.7717,4.7717,4.7798,4.7861,4.7922,4.8046,4.813,4.8209,4.8343,4.8438,4.8476,4.855,4.8642,4.8658,4.8431,4.7601,4.6616,4.564,4.5192,4.4718,4.3965,4.3489,4.3086,4.2784,4.2029,4.1516,4.1516,4.1235,4.1016,4.095,4.0924,4.0838,4.0714,4.1262,4.159,4.159,4.3055,4.4416,4.5545,4.5979,4.674,4.7867,4.9159,5.023,5.1117,5.1911,5.2724,5.3499,5.3499,5.3499,5.3555,5.4453,5.5204,5.5899,5.756,5.8242,5.8242,5.8242,5.8242,5.8242,5.8242,5.8242,5.8242,4.3958,4.4041,4.4358,4.5369,4.554,4.5788,4.6525,4.7376,4.8051,4.8402,4.8609,4.9112,5.0122,5.0416,5.0789,5.1375,5.1428,5.1428,5.1428,5.1428,5.1454,5.1462,5.1556,5.1365,5.0827,5.0139,4.9406,4.8693,4.7963,4.7505,4.7363,4.7407,4.7468,4.7554,4.7657,4.7717,4.7717,4.7717,4.7717,4.7717,4.7717,4.7717,4.7717,4.7717,4.7717,4.7717,4.7717,4.7717,4.7717,4.7738,4.7696,4.7636,4.7678,4.7738,4.7798,4.7861,4.7943,4.8006,4.8187,4.8286,4.8382,4.8495,4.8587,4.866,4.8678,4.8786,4.891,4.8978,4.8462,4.7626,4.6483,4.5877,4.5398,4.489,4.4149,4.3651,4.3705,4.2985,4.2427,4.2401,4.2194,4.1986,4.1951,4.1906,4.1851,4.1773,4.1897,4.1973,4.1943,4.32,4.4411,4.5467,4.6029,4.679,4.7826,4.901,5.0139,5.1213,5.1825,5.264,5.3638,5.3619,5.3579,5.3632,5.5258,5.5939,5.6027,5.771,5.8393,5.8393,5.8393,5.8393,5.8393,5.8393,5.8393,5.8393,4.4881,4.5069,4.541,4.6425,4.6572,4.6619,4.6772,4.7588,4.8513,4.9358,5.0306,5.0785,5.0519,5.1208,5.1672,5.169,5.169,5.169,5.169,5.169,5.174,5.1882,5.1882,5.1956,5.2084,5.1293,5.0502,4.9693,4.8884,4.8137,4.7511,0.0,4.7696,4.7717,4.7717,4.7717,4.7717,4.7717,4.7717,4.7717,4.7717,4.7717,4.7717,4.7717,4.7717,4.7717,4.7717,4.7717,4.7717,4.7861,4.7899,4.7861,4.7738,4.778,4.7881,4.7881,4.8026,4.8207,4.8267,4.84,4.8513,4.8587,4.8715,4.8822,4.8891,4.8996,4.9118,4.9181,4.856,4.7996,4.8059,4.6784,4.5726,4.5777,4.5168,4.468,4.468,4.3995,4.3454,4.3395,4.2629,4.2064,4.2004,4.1932,4.1892,4.1892,4.2501,4.2869,4.2779,4.3559,4.4766,4.642,4.6494,0.0,4.8872,4.9032,4.9921,5.1486,5.1573,5.245,5.4,5.3851,5.3774,5.3806,5.5418,5.602,5.6027,5.771,5.8393,5.8393,5.8393,5.8393,5.8393,5.8393,5.8393,5.8393,4.6047,4.6124,4.6242,4.6672,4.6819,4.7089,4.7798,4.8647,4.9528,5.0342,5.1179,5.1682,5.1586,5.1819,5.1963,5.1963,5.1963,5.1963,5.1963,5.1963,5.1987,5.2011,5.2029,5.2054,5.2102,5.1311,5.0566,4.9843,4.9032,4.8305,4.7636,4.7759,4.784,4.784,4.7868,4.7909,4.7909,4.7909,4.8218,4.8728,4.8728,4.9055,4.9528,4.9528,4.9528,4.9528,4.9528,4.9528,4.9549,4.9588,4.9609,4.9609,4.9549,4.9185,4.8917,4.9547,4.9854,4.9884,4.9393,4.938,4.9399,4.8933,4.891,4.9015,4.9098,4.9162,4.9244,4.9321,4.9196,4.8935,4.8393,4.7438,4.6543,4.6024,4.5246,4.4712,4.4712,4.4485,4.4303,4.429,4.3992,4.3802,4.3775,4.3707,4.3652,4.361,4.3811,4.3613,4.2906,4.359,4.4538,0.0,4.6294,0.0,4.8292,4.8868,4.9706,5.077,5.1328,5.2467,5.4073,5.4018,5.3981,5.4019,5.5042,5.5784,5.632,5.7353,5.8111,5.8612,5.8612,5.8612,5.8612,5.8612,5.8612,5.8612,4.6661,4.6684,4.6731,4.6911,4.702,4.7379,4.8303,4.9207,5.005,5.086,5.1717,5.2246,5.2246,5.2246,5.2222,5.2126,5.2102,5.2102,5.2102,5.2102,5.2126,5.2174,5.2174,5.2198,5.2246,5.1759,5.1012,4.9978,4.892,4.8188,4.7806,4.7886,4.7945,4.7945,4.799,4.7992,4.801,4.832,4.8739,4.9232,4.9523,4.9943,5.0401,5.0401,5.0401,5.0401,5.0401,5.0401,5.0401,5.0462,5.0503,5.06,5.0934,5.0737,5.0409,5.0611,5.0785,5.0814,5.0377,5.0158,4.9933,4.9521,4.9289,4.9166,4.926,4.9355,4.9434,4.951,4.9589,4.9498,4.9023,4.8012,4.7127,4.6643,4.5609,4.4833,4.4827,4.4808,4.4783,4.4732,4.4712,4.4659,4.4605,4.4551,4.4496,4.444,4.4411,4.4129,4.3505,4.3882,4.4668,4.5851,4.6373,4.7226,4.8448,4.8984,4.9639,5.048,5.1602,5.2855,5.4163,5.4109,5.4109,5.4128,5.4913,5.5715,5.6536,5.7296,5.8095,5.8803,5.8803,5.8803,5.8803,5.8803,5.8803,5.8803,4.6795,4.6819,4.6911,4.7174,4.7219,4.7514,4.838,4.9325,5.0209,5.1022,5.1927,5.2521,5.2521,5.2521,5.241,5.2174,5.215,5.2126,5.2126,5.2126,5.2174,5.2311,5.2335,5.2382,5.2521,5.2521,5.1724,5.0134,4.8641,4.7945,4.7992,4.8012,4.8012,4.8012,4.8012,4.805,4.816,4.8906,4.9309,4.9474,5.0243,5.0571,5.0626,5.0626,5.0626,5.0626,5.0626,5.0626,5.0629,5.0748,5.089,5.112,5.1937,5.2295,5.2205,5.1252,5.113,5.1285,5.1287,5.0805,5.03,5.0313,4.9764,4.926,4.9384,4.951,4.9638,4.9692,4.9707,4.9736,4.9807,4.8551,4.7498,4.7517,4.6209,4.5148,4.5022,4.4991,4.4943,4.4821,4.4815,4.4764,4.4619,4.4605,4.4578,4.4515,4.444,4.4449,4.4491,4.4433,4.5118,4.6657,4.6769,4.7588,4.9211,4.9292,4.9792,5.0729,5.2244,5.3426,5.4307,5.4181,5.4127,5.4164,5.4912,5.5753,5.665,5.7416,5.8219,5.9004,5.9004,5.9004,5.9004,5.9004,5.9004,5.9004,4.6952,4.7043,4.7129,4.7196,4.7334,4.7695,4.8532,4.9454,5.0339,5.1154,5.2023,5.2563,5.2563,5.2672,5.2694,5.2627,5.2485,5.2405,5.2405,5.2405,5.2439,5.2536,5.2518,5.2604,5.2735,5.2735,5.1952,5.0332,4.8732,4.7972,4.7992,4.811,4.8168,4.8168,4.8208,4.8595,4.9238,4.9482,5.0293,5.1432,5.1715,5.2215,5.2768,5.2768,5.2768,5.2768,5.2768,5.2768,5.2768,5.2788,5.2828,5.2904,5.309,5.3262,5.3303,5.2962,5.2965,5.2972,5.2419,5.2178,5.1821,5.08,5.0012,4.9529,4.9619,4.9648,4.9707,4.983,4.9857,4.9885,5.0005,4.9227,4.8327,4.7686,4.6727,4.5845,4.5156,4.5026,4.4998,4.4955,4.4858,4.4802,4.4764,4.4712,4.4646,4.4578,4.4565,4.4787,4.5364,4.5467,4.5927,4.6824,4.7442,4.8325,4.948,4.9514,5.0312,5.1826,5.2203,5.3112,5.4439,5.4422,5.4371,5.434,5.4477,5.5358,5.6687,5.6837,5.7714,5.9004,5.9004,5.9004,5.9004,5.9004,5.9004,5.9004,4.7088,4.716,4.7267,4.7334,4.7425,4.7782,4.8659,4.9539,5.0401,5.1284,5.2114,5.2613,5.2676,5.2761,5.2806,5.2806,5.269,5.264,5.264,5.264,5.2645,5.2676,5.2698,5.2739,5.2806,5.2806,5.2043,5.048,4.9259,4.8475,4.8131,4.8267,4.8323,4.8343,4.8401,4.8918,4.9766,5.0172,5.1058,5.222,5.2667,5.3111,5.3499,5.3499,5.3499,5.3499,5.3499,5.3499,5.3499,5.3499,5.3539,5.3598,5.3638,5.3735,5.3831,5.3793,5.3793,5.3757,5.3386,5.3086,5.2501,5.104,5.0165,4.9663,4.9721,4.9778,4.9816,4.9906,4.9978,5.0031,5.0133,4.9496,4.8669,4.7831,4.7015,4.6175,4.5273,4.5114,4.5091,4.5057,4.4943,4.487,4.4846,4.4802,4.4876,4.5224,4.5243,4.5574,4.6337,4.6798,4.7203,4.7537,4.7999,4.8679,4.9634,4.9653,5.0308,5.1601,5.2013,5.2831,5.4005,5.4401,5.4573,5.4526,5.4443,5.5105,5.6325,5.6592,5.7473,5.8615,5.8989,5.914,5.914,5.914,5.914,5.914,4.7223,4.7294,4.7363,4.749,4.7511,4.7789,4.8601,4.9401,5.026,5.1187,5.1977,5.2549,5.2787,5.2846,5.2868,5.2868,5.2868,5.2828,5.2806,5.2806,5.2806,5.2828,5.2828,5.2846,5.2868,5.274,5.1999,5.0623,4.9838,4.9053,4.8325,4.8457,4.8513,4.8513,4.8698,4.927,5.012,5.0951,5.1764,5.2559,5.3262,5.3559,5.3559,5.3559,5.3559,5.3579,5.3579,5.3579,5.358,5.358,5.3676,5.3773,5.3832,5.3926,5.4037,5.411,5.4073,5.4055,5.411,5.3505,5.2557,5.1343,5.038,4.9736,4.9821,4.9871,4.9939,4.9999,5.0082,5.0158,5.0231,4.9679,4.8911,4.7974,4.7253,4.6449,4.5379,4.5224,4.5192,4.5136,4.5049,4.5036,4.5109,4.5066,4.5344,4.6135,4.621,4.6536,4.7348,4.8046,4.8452,4.8541,4.857,4.8956,4.9707,4.9736,5.0151,5.0952,5.1831,5.2662,5.3443,5.4327,5.4723,5.4689,5.459,5.5011,5.5877,5.6619,5.7411,5.8238,5.9027,5.9346,5.9327,5.9327,5.9327,5.9327,4.7298,4.7385,4.749,4.749,4.7575,4.7732,4.7859,4.8586,4.9427,5.0352,5.1224,5.2061,5.2864,5.306,5.3143,5.3143,5.3143,5.3039,5.2806,5.2806,5.285,5.2959,5.2977,5.302,5.3143,5.2464,5.1678,5.0782,5.0017,4.9248,4.8476,4.855,4.8569,4.8624,4.9381,5.0157,5.0969,5.1823,5.2694,5.3509,5.3679,5.3737,5.3737,5.3737,5.3813,5.3926,5.3926,5.3963,5.4018,5.4018,5.4018,5.4036,5.4055,5.4073,5.411,5.4218,5.4254,5.4273,5.4254,5.3232,5.2137,5.2077,5.0912,4.9821,4.9939,4.9978,5.0031,5.0139,5.0231,5.029,5.0367,5.032,4.9769,4.8217,4.7863,4.7231,4.5601,0.0,4.5286,4.5275,4.5159,4.5354,4.6017,4.6068,4.636,4.7046,4.7089,4.7421,4.8164,4.8442,4.8894,4.963,4.9556,4.9589,4.9792,4.9898,5.0361,5.1164,5.2049,5.2821,5.352,5.439,5.4736,5.4708,5.4673,5.5128,5.5942,5.6752,5.7584,5.8432,5.9243,5.9544,5.9563,5.9474,5.9475,5.9457,4.7313,4.7511,4.7615,4.7615,4.7657,4.7717,4.7717,4.8366,4.9082,4.9637,5.0794,5.1813,5.2407,5.2889,5.3185,5.3185,5.3185,5.3143,5.3017,5.3017,5.3039,5.3103,5.3103,5.3143,5.3185,5.2884,5.2298,5.1509,5.0798,5.0045,4.9251,4.8882,4.8715,4.8752,4.9693,5.0563,5.138,5.227,5.3144,5.3907,5.3944,5.3963,5.3963,5.3963,5.4,5.4055,5.4055,5.4055,5.4109,5.4109,5.4109,5.4109,5.4181,5.4218,5.4235,5.4356,5.4407,5.4407,5.4407,5.3301,5.2194,5.2288,5.1093,4.9925,4.9992,5.007,5.0133,5.0175,5.029,5.0348,5.0401,5.0478,5.0139,4.8842,4.8671,4.8259,4.6982,4.676,4.6738,4.6687,4.6612,4.6687,4.7017,4.7032,4.7326,4.8099,4.8162,4.8491,4.9267,4.9383,4.958,4.9999,4.9952,4.9925,4.9952,5.0031,5.0253,5.0612,5.1488,5.2297,5.3039,5.3888,5.4469,5.4856,5.4783,5.4963,5.5397,5.6595,5.7333,5.7842,5.9106,5.9616,5.9598,5.9563,5.9545,5.9545,4.7135,4.7509,4.7717,4.7717,4.7717,4.7717,4.7717,4.8203,4.8759,4.9136,5.0435,5.1487,5.1938,5.2729,5.3185,5.3185,5.3185,5.3206,5.3209,5.3209,5.3227,5.3185,5.3227,5.3209,5.3209,5.3297,5.2954,5.2143,5.1652,5.0989,5.0194,4.9657,4.9432,4.9469,5.0462,5.1259,5.1874,5.2784,5.3548,5.4109,5.4109,5.4109,5.4109,5.4109,5.4109,5.4146,5.4146,5.4033,5.3882,5.3882,5.3751,5.3619,5.3743,5.3761,5.3795,5.3924,5.3989,5.4024,5.4231,5.3308,5.2261,5.2101,5.1025,5.0018,5.0044,5.0133,5.02,5.0243,5.0337,5.0435,5.0446,5.0532,5.0325,4.9401,0.0,4.9019,4.8154,4.8019,4.7999,4.7958,4.7875,4.7857,4.798,4.7971,4.8267,4.9118,4.9175,4.9461,5.0057,5.0095,5.012,5.0145,5.012,5.0108,5.0133,5.0133,5.0133,5.012,5.0996,5.1833,5.2633,5.346,5.4254,5.5,5.4886,5.4845,5.4946,5.6509,5.7173,5.7343,5.9024,5.9685,5.9668,5.965,5.9633,5.9633,4.6535,4.7171,4.7717,4.7717,4.7717,4.7717,4.7717,4.7753,4.8146,4.9081,4.9943,5.0869,5.1883,5.2729,5.3185,5.3185,5.3185,5.323,5.3297,5.3297,5.3274,5.3206,5.3254,5.3297,5.3297,5.342,5.3093,5.2299,5.2303,5.1898,5.1102,5.1248,5.13,5.1337,5.23,5.2745,5.2857,5.3679,5.4053,5.4109,5.4109,5.4109,5.4109,5.4109,5.4182,5.429,5.429,5.3854,5.3282,5.3282,5.2721,5.2064,5.2145,5.2177,5.2212,5.2325,5.2417,5.2628,5.3369,5.2949,5.2157,5.154,5.0688,5.0025,5.0151,5.0188,5.0243,5.0348,5.0446,5.0511,5.0582,5.0643,5.0414,4.9519,0.0,0.0,4.8231,4.8097,4.8087,4.8097,4.7968,4.8152,4.8831,4.8895,4.9217,4.9955,5.0,5.0051,5.0095,5.0095,5.0158,5.0278,5.017,5.0133,5.0188,5.0188,5.0188,5.0207,5.1084,5.1885,5.2633,5.3501,5.4296,5.5,5.4985,5.4941,5.5019,5.6686,5.7387,5.7539,5.9225,5.9869,5.9869,5.9807,5.9793,5.9757,4.6163,4.6677,4.712,4.7627,4.7717,4.7717,4.7717,4.7717,4.7892,4.8391,4.9599,5.0631,5.1185,5.2435,5.3227,5.3254,5.3254,5.3316,5.342,5.342,5.3418,5.3396,5.3418,5.342,5.342,5.3558,5.3469,5.3173,5.2772,5.2438,5.2103,5.1781,5.161,5.1647,5.2555,5.2945,5.3019,5.3913,5.4287,5.4287,5.4287,5.4287,5.4287,5.4287,5.4339,5.4368,5.386,5.3515,5.3239,5.2749,5.2372,5.209,5.2121,5.2121,5.2152,5.2288,5.2371,5.2385,5.2242,5.1944,5.164,5.1412,5.0755,5.0126,5.0188,5.0224,5.029,5.039,5.0457,5.0521,5.0593,5.0654,5.0596,5.0269,0.0,5.0132,4.9749,4.9711,4.9702,4.9672,4.9612,4.9646,4.9854,4.9878,4.9965,5.0212,5.0255,5.0278,5.0278,5.0325,5.0371,5.0416,5.0371,5.0359,5.0382,5.0382,5.0382,5.0382,5.0681,5.1505,5.2792,5.3035,5.3891,5.5121,5.5042,5.4985,5.5051,5.6201,5.6948,5.7516,5.8691,5.9466,5.9904,5.9872,5.9855,5.9855,4.5343,4.6078,4.6667,4.7228,4.7536,4.7717,4.7717,4.7717,4.7783,4.7972,4.9177,5.0209,5.0745,5.2013,5.2955,5.3261,5.33,5.338,5.3539,5.3579,5.3579,5.3499,5.3539,5.3559,5.3559,5.3676,5.3754,5.3792,5.3312,5.3124,5.3123,5.2708,5.2535,5.2535,5.3181,5.3476,5.353,5.4196,5.4493,5.4493,5.4493,5.4493,5.4493,5.4493,5.4524,5.446,5.3615,5.3211,5.2899,5.2069,5.1617,5.1409,5.1439,5.1483,5.1542,5.1623,5.1687,5.164,5.1148,5.0983,5.0976,5.0996,5.0608,5.0219,5.0243,5.0267,5.0325,5.0424,5.0468,5.0521,5.0613,5.0664,5.0701,5.0701,5.0766,5.0784,5.0748,5.071,5.0673,5.0644,5.0604,5.0572,5.0468,5.0446,5.0424,5.0359,5.0412,5.0435,5.0435,5.0492,5.0534,5.0534,5.0575,5.0585,5.0585,5.0542,5.0511,5.0532,5.0468,5.1304,5.2889,5.2805,5.3639,5.5183,5.508,5.5028,5.5057,5.586,5.6664,5.7479,5.835,5.92,5.9902,5.9902,5.9902,5.9902,4.3973,4.5357,4.6486,4.6504,4.7174,4.7678,4.7717,4.7717,4.7783,4.7972,4.8703,4.9606,5.069,5.1518,5.2348,5.3224,5.33,5.3418,5.3675,5.3774,5.3716,5.3519,5.3636,5.3714,5.3714,5.3774,5.387,5.4,5.4,5.4037,5.4109,5.4254,5.4308,5.4308,5.4441,5.4505,5.4522,5.4641,5.4708,5.4708,5.4708,5.4708,5.4708,5.4708,5.4708,5.4576,5.3692,5.2862,5.2069,5.1186,5.0371,4.9707,4.9778,4.9885,5.0005,5.0005,5.0057,5.012,5.0175,5.02,5.02,5.02,5.02,5.0231,5.029,5.0302,5.0337,5.0478,5.05,5.0542,5.0673,5.0712,5.0701,5.0701,5.0766,5.0801,5.0801,5.0738,5.0701,5.0701,5.0644,5.0603,5.0603,5.0532,5.05,5.05,5.05,5.05,5.0511,5.0576,5.0596,5.0596,5.0729,5.0801,5.0801,5.0595,5.0532,5.0603,5.0532,5.133,5.29,5.2889,5.3746,5.5203,5.5135,5.5052,5.5057,5.586,5.6664,5.7479,5.835,5.92,5.9902,5.9902,5.9902,5.9902,4.3726,4.4351,4.512,4.6284,4.6703,4.7065,4.7627,4.7717,4.7783,4.7972,4.8703,4.9606,5.069,5.1562,5.2434,5.3346,5.3538,5.3637,5.3774,5.3793,5.3756,5.3698,5.3755,5.3774,5.3774,5.3888,5.3963,5.4,5.4147,5.4219,5.4235,5.4373,5.4441,5.4458,5.4573,5.4641,5.4641,5.4673,5.4708,5.4708,5.4708,5.4708,5.4708,5.4708,5.4362,5.3751,5.2934,5.2132,5.1381,5.0492,5.0052,4.9857,4.9925,4.9978,5.0031,5.0101,5.0151,5.0175,5.0255,5.0278,5.0278,5.0278,5.0278,5.0278,5.0302,5.0337,5.0382,5.0489,5.0532,5.0594,5.0683,5.0739,5.0784,5.0838,5.0861,5.0877,5.0863,5.0846,5.0829,5.0784,5.0711,5.0645,5.0606,5.0575,5.0542,5.0511,5.0535,5.0615,5.0711,5.072,5.0738,5.0738,5.0784,5.0801,5.0801,5.0739,5.0702,5.0673,5.0606,5.1429,5.3034,5.2935,5.3795,5.5326,5.5229,5.5135,5.509,5.5284,5.616,5.7422,5.7687,5.8653,5.9902,5.9902,5.9902,5.9902,4.3218,4.3698,4.4321,4.5361,4.6087,4.6667,4.7156,4.7539,4.7824,4.7972,4.847,4.9299,5.0653,5.1288,5.2126,5.3388,5.3657,5.3754,5.3813,5.3813,5.3832,5.3888,5.387,5.387,5.387,5.3963,5.4037,5.4129,5.4236,5.4324,5.4375,5.4455,5.4522,5.459,5.4689,5.4755,5.4736,5.4767,5.4783,5.4783,5.4783,5.4783,5.4783,5.4783,5.4269,5.3482,5.2649,5.1845,5.1073,5.0182,4.9925,4.9952,4.9992,5.0044,5.0108,5.0194,5.0212,5.0248,5.0314,5.0337,5.0337,5.0371,5.0359,5.0337,5.0371,5.0424,5.0457,5.0521,5.0582,5.0614,5.0702,5.0747,5.081,5.0891,5.0893,5.089,5.0905,5.0888,5.0872,5.0846,5.0784,5.072,5.0673,5.0683,5.0664,5.0615,5.0654,5.072,5.0793,5.0838,5.0846,5.0846,5.0844,5.0844,5.0844,5.0844,5.0791,5.0701,5.0654,5.15,5.3108,5.3,5.3843,5.5395,5.5268,5.5162,5.5094,5.5028,5.5943,5.7403,5.7403,5.8407,5.9902,5.9902,5.9902,5.9902,4.257,4.3282,4.3904,4.4058,4.5363,4.6432,4.6504,4.7293,4.7925,4.7992,4.8128,4.8831,5.0507,5.0829,5.1592,5.3259,5.3641,5.3813,5.3813,5.3813,5.387,5.3982,5.4019,5.4,5.4037,5.4037,5.4111,5.4308,5.4307,5.4375,5.4505,5.4522,5.459,5.4723,5.4767,5.4799,5.4814,5.4871,5.4901,5.4916,5.4916,5.4916,5.4916,5.4916,5.4366,5.3494,5.2698,5.1864,5.0959,5.0177,4.9952,5.0005,4.9999,5.0089,5.02,5.02,5.0267,5.0314,5.039,5.0412,5.0424,5.0489,5.0468,5.0435,5.0489,5.0511,5.0521,5.0593,5.0603,5.0624,5.0711,5.0747,5.0838,5.0899,5.0893,5.0898,5.0898,5.0905,5.0908,5.0908,5.0846,5.0801,5.0801,5.0801,5.0801,5.0801,5.0801,5.081,5.081,5.0863,5.0908,5.0908,5.0901,5.0898,5.0898,5.0898,5.0841,5.071,5.071,5.1559,5.3119,5.3045,5.3878,5.5408,5.5281,5.5176,5.5107,5.5042,5.5958,5.7418,5.7403,5.8407,5.9902,5.9902,5.9902,5.9902,4.257,4.2773,4.3158,4.3967,4.491,4.578,4.6413,4.7293,4.7925,4.7992,4.8128,4.8611,4.9738,5.0595,5.1468,5.2465,5.3326,5.3813,5.3813,5.3907,5.3963,5.4,5.4055,5.4146,5.4219,5.4219,5.4273,5.4308,5.4409,5.4472,5.4486,5.4654,5.4752,5.4767,5.486,5.4871,5.4871,5.4941,5.4971,5.4985,5.5042,5.5071,5.5071,5.5071,5.4139,5.2808,5.2618,5.157,5.0225,5.0035,4.9992,5.0031,5.0114,5.0194,5.02,5.0267,5.0325,5.039,5.0401,5.0446,5.05,5.0572,5.0572,5.0551,5.0511,5.0532,5.0582,5.0593,5.0644,5.0702,5.0775,5.0838,5.088,5.0901,5.0898,5.0898,5.0898,5.089,5.0909,5.0909,5.0888,5.0891,5.0891,5.0838,5.081,5.0863,5.0891,5.088,5.0874,5.0882,5.0909,5.0909,5.0898,5.0898,5.0898,5.0898,5.0893,5.0855,5.0801,5.1654,5.3243,5.3078,5.3901,5.5468,5.5384,5.528,5.5157,5.5107,5.6031,5.7476,5.7415,5.8407,5.9902,5.9902,5.9902,5.9902,4.255,4.2609,4.2794,4.3424,4.4512,4.5436,4.5852,4.7082,4.7968,4.7992,4.8149,4.8596,4.9499,5.0172,5.1045,5.2324,5.292,5.3385,5.3775,5.3926,5.4019,5.4055,5.4128,5.4235,5.4359,5.4359,5.4359,5.4359,5.4458,5.4538,5.4606,5.4736,5.4814,5.486,5.4916,5.496,5.4941,5.5028,5.5057,5.5038,5.508,5.5094,5.5094,5.5094,5.4047,5.2595,5.2595,5.1503,5.0057,5.0057,5.0082,5.012,5.0175,5.0212,5.0248,5.029,5.0337,5.0412,5.0446,5.05,5.0553,5.0633,5.0643,5.0633,5.0594,5.0623,5.0653,5.0654,5.0683,5.072,5.0838,5.0883,5.0897,5.089,5.0898,5.0898,5.0898,5.0898,5.0906,5.0929,5.0952,5.0952,5.0987,5.0952,5.0972,5.0987,5.1006,5.0995,5.0998,5.0998,5.0998,5.0998,5.0963,5.0956,5.0956,5.0914,5.0909,5.0905,5.0827,5.1681,5.3282,5.3121,5.3935,5.5492,5.5434,5.5313,5.5203,5.5162,5.6097,5.7532,5.7476,5.847,5.995,5.9902,5.9902,5.9902,4.251,4.2589,4.2668,4.2843,4.4114,4.5146,4.5311,4.6724,4.7866,4.8014,4.819,4.8581,4.9317,4.9693,5.0565,5.2252,5.2401,5.2735,5.3553,5.3721,5.3906,5.4091,5.4235,5.4342,5.4409,5.4409,5.4409,5.4407,5.4508,5.4606,5.4723,5.4802,5.486,5.4916,5.4971,5.5014,5.5028,5.508,5.5121,5.5121,5.5135,5.5154,5.5154,5.5154,5.4202,5.2831,5.2678,5.1542,5.012,5.012,5.0139,5.02,5.02,5.0267,5.0302,5.0302,5.0367,5.0435,5.0489,5.0572,5.0623,5.0692,5.0693,5.0702,5.0702,5.0702,5.0693,5.0701,5.0739,5.0766,5.0883,5.0908,5.0905,5.0898,5.0906,5.0914,5.0914,5.0933,5.0956,5.1012,5.1012,5.1046,5.1094,5.1101,5.1101,5.1101,5.1101,5.1101,5.1101,5.1101,5.1101,5.1101,5.1027,5.1005,5.1005,5.0921,5.0898,5.0898,5.0971,5.1816,5.3292,5.3325,5.4111,5.5492,5.5432,5.5333,5.5229,5.5216,5.6148,5.762,5.7547,5.8528,6.001,5.9966,5.9934,5.9934,4.2445,4.2548,4.2649,4.2783,4.3621,4.4551,4.5337,4.6327,4.7246,4.8076,4.8247,4.8343,4.8471,4.9324,5.0343,5.1472,5.1565,5.1899,5.2717,5.2938,5.3362,5.4072,5.4287,5.4392,5.4409,5.4409,5.4424,5.4489,5.4606,5.4705,5.4802,5.486,5.4931,5.4985,5.5,5.5042,5.5094,5.5162,5.5189,5.5203,5.5313,5.5358,5.5358,5.5358,5.4747,5.3792,5.3028,5.1655,5.0194,5.0194,5.0188,5.02,5.0267,5.029,5.0302,5.0302,5.0382,5.0489,5.05,5.0584,5.0702,5.0712,5.0702,5.0711,5.0711,5.0711,5.072,5.0775,5.0838,5.0883,5.0899,5.0905,5.089,5.0898,5.0956,5.0998,5.0998,5.1046,5.1087,5.1087,5.1094,5.1094,5.1094,5.1101,5.1101,5.1101,5.1101,5.1101,5.1101,5.1101,5.1101,5.1101,5.1027,5.1005,5.1005,5.0921,5.0898,5.0917,5.1599,5.2404,5.332,5.3932,5.4698,5.5492,5.5432,5.5396,5.5358,5.5248,5.6175,5.7672,5.762,5.8619,6.0103,6.0087,6.0068,6.0068,4.2443,4.2548,4.2629,4.2764,4.3531,4.4261,4.4758,4.5964,4.6972,4.7473,4.7992,4.8306,4.8306,4.8827,4.9584,5.0581,5.0673,5.1026,5.1881,5.2545,5.3063,5.3418,5.406,5.4409,5.4409,5.4409,5.4458,5.4606,5.4673,5.472,5.4799,5.4875,5.4946,5.5,5.5042,5.5094,5.5162,5.5267,5.5313,5.5326,5.539,5.5403,5.5403,5.5403,5.4868,5.3932,5.2594,5.131,5.0267,5.0267,5.0267,5.0267,5.029,5.0302,5.0302,5.0302,5.0393,5.05,5.05,5.0603,5.0693,5.0702,5.0702,5.071,5.0784,5.0801,5.0829,5.0846,5.0891,5.0908,5.0913,5.0933,5.0956,5.0956,5.1012,5.1053,5.1053,5.1087,5.1107,5.1108,5.1128,5.116,5.116,5.116,5.116,5.116,5.116,5.116,5.116,5.116,5.116,5.116,5.1088,5.1053,5.1053,5.0956,5.0898,5.0917,5.2178,5.2963,5.333,5.4108,5.4847,5.5504,5.5468,5.5434,5.539,5.5326,5.6299,5.7794,5.7706,5.8663,6.0099,6.0099,6.0099,6.0099]}]]